GFSGBSN_850_spd_000.txt.gz
Wind_Speed
22 19 21 22 21 19 20 21 19 20 17 15 14 14 13 10 8 8 8 7 7 7 9 11 11 9 12 12 19 6 2 3 7 6 18 17 18 17 15 12 22 23 19 28 27 27 27
24 20 20 23 24 21 21 20 19 18 16 16 16 15 14 12 9 8 8 8 8 8 7 9 11 9 12 16 11 16 10 12 4 3 12 17 17 18 22 21 19 14 27 25 26 25 22
28 25 21 23 23 22 21 20 20 18 15 17 19 16 15 14 11 9 8 8 9 10 9 9 12 11 12 18 5 14 16 16 13 9 9 12 19 18 8 15 18 25 15 15 25 25 15
30 28 24 23 21 22 22 22 20 18 17 16 16 16 14 14 13 10 8 9 10 10 11 11 9 8 10 13 20 11 9 12 22 16 15 14 10 16 22 13 13 9 10 13 19 17 23
32 30 25 22 21 22 23 23 22 19 17 16 16 16 15 13 14 12 9 9 11 10 12 11 8 9 9 11 21 22 18 12 8 8 9 15 14 14 12 10 7 9 13 21 15 18 16
28 32 26 21 21 24 24 24 23 22 19 17 15 14 16 14 13 13 11 8 7 11 11 7 11 5 16 14 12 16 22 21 16 14 12 11 11 9 10 11 17 12 12 13 18 18 17
27 29 28 24 25 25 26 24 23 21 19 18 14 15 17 15 13 13 12 9 6 4 16 13 9 11 1 10 7 13 17 18 17 18 13 16 8 18 21 21 18 17 19 17 15 17 18
29 28 30 27 25 26 24 23 21 19 18 17 15 15 16 14 13 15 13 9 9 3 8 32 28 21 24 7 9 15 15 18 20 16 16 14 19 26 17 18 18 21 20 18 17 17 21
28 26 24 30 25 26 25 24 21 20 16 15 15 14 15 13 13 17 19 17 17 15 7 8 31 33 22 17 18 16 22 25 16 18 19 19 24 17 19 18 20 21 22 18 16 19 7
30 29 29 30 25 27 26 26 24 21 19 16 15 13 13 12 12 16 17 10 17 14 4 5 7 9 30 11 8 25 21 24 13 20 18 16 22 20 19 22 19 20 21 19 17 17 9
31 30 31 26 29 29 28 28 25 22 20 17 15 13 14 14 6 12 9 8 4 5 5 8 7 5 7 14 3 12 30 27 18 17 11 10 15 21 24 23 21 22 12 16 22 9 4
33 29 30 28 22 32 28 26 25 22 20 17 15 14 13 15 15 10 9 3 7 2 8 6 6 7 9 14 10 8 28 23 20 17 18 16 17 16 15 21 20 20 12 15 14 6 7
35 33 31 27 29 21 22 24 25 22 20 17 16 15 16 13 13 18 8 17 3 5 2 5 5 7 14 12 12 9 18 20 9 7 10 7 19 12 3 5 19 19 12 7 6 7 5
35 36 31 25 27 18 15 27 24 23 20 18 17 19 16 16 12 14 20 2 6 7 8 3 4 9 8 8 8 16 10 16 18 12 2 10 9 16 11 8 10 18 15 3 5 4 5
37 34 31 25 25 10 22 26 24 23 22 18 17 21 22 22 18 17 16 5 4 4 3 5 5 7 6 6 6 14 15 6 10 18 7 5 9 10 12 13 11 3 11 18 6 7 4
37 36 34 24 24 27 29 20 24 24 22 19 27 24 26 22 24 21 6 9 6 6 7 5 9 12 9 11 8 12 11 7 16 17 13 2 5 5 11 10 16 8 11 11 7 5 7
36 36 36 32 25 25 29 19 23 27 22 22 27 11 10 24 29 17 7 7 9 16 9 8 11 10 11 10 13 12 8 12 14 15 15 7 6 3 2 11 15 8 5 8 5 2 6
36 39 34 33 25 31 26 15 21 19 22 23 18 3 21 29 7 4 7 6 4 10 18 9 13 18 12 11 15 11 12 7 17 15 10 8 4 3 8 3 11 5 9 21 2 2 2
36 38 34 34 24 22 20 18 24 23 27 33 16 6 26 34 5 6 7 7 8 3 7 8 8 10 7 7 7 15 14 10 17 10 14 10 5 1 5 8 5 8 6 3 5 2 4
33 38 39 34 31 18 25 19 26 28 28 27 10 5 8 18 9 6 11 7 6 16 18 15 13 16 7 8 10 1 10 6 15 17 19 8 4 7 4 6 10 6 5 4 5 2 2
32 34 36 35 35 27 28 20 21 27 28 33 9 5 8 5 9 10 4 4 8 6 14 18 6 12 9 7 8 10 13 7 9 18 10 3 4 9 5 18 14 11 9 7 5 4 2
35 31 36 34 34 28 23 15 7 25 25 27 10 4 10 2 15 16 15 9 9 7 4 6 12 8 16 11 8 12 10 9 7 8 12 8 6 11 9 6 11 10 12 12 9 5 6
34 31 33 34 31 30 21 17 5 21 28 9 12 11 2 4 7 7 7 10 10 11 12 21 13 13 11 14 8 17 18 16 8 9 10 6 3 5 4 2 6 2 8 10 8 8 7
31 29 32 33 31 31 22 21 18 14 23 23 14 10 5 4 6 8 11 13 16 13 15 7 21 14 3 6 4 15 12 11 7 1 9 8 3 2 3 2 1 2 3 4 11 8 9
30 28 31 31 32 33 27 21 23 12 21 24 21 12 5 2 5 9 13 3 1 6 7 11 6 5 6 5 3 4 2 4 5 5 7 11 4 1 2 3 5 4 2 0 5 6 6
28 27 30 31 31 30 28 23 19 14 17 21 24 24 6 1 3 6 6 4 7 3 2 6 9 6 9 2 2 3 3 3 3 3 5 2 6 3 4 1 2 2 1 6 4 2 6
27 25 28 30 31 31 28 24 21 8 18 21 19 23 14 4 10 11 3 2 5 2 1 4 6 3 9 3 4 3 4 7 6 6 5 5 4 5 2 2 5 3 4 2 4 3 5
26 25 28 30 29 30 27 21 16 5 16 20 23 19 19 6 8 8 4 3 6 5 2 5 6 2 2 3 2 2 3 6 5 7 7 6 7 4 3 2 6 9 4 3 3 3 4
25 25 26 29 26 26 24 20 18 8 18 19 22 20 17 10 5 8 10 12 15 16 2 18 3 10 8 3 2 2 2 3 4 4 7 6 5 5 7 5 2 8 4 9 7 10 13

GFSGBSN_850_spd_003.txt.gz
Wind_Speed
26 26 22 20 19 23 21 19 19 19 17 17 15 13 12 11 9 7 6 5 4 4 4 5 5 6 5 11 17 4 4 7 4 2 20 19 12 11 5 5 10 14 16 22 29 32 33
28 26 26 22 20 22 24 22 19 18 18 17 15 13 12 12 10 7 6 6 5 4 4 4 4 6 9 13 13 18 16 12 4 3 3 19 10 12 14 9 11 10 14 26 30 28 31
21 27 29 26 23 21 24 23 20 18 18 16 14 16 14 12 12 9 7 6 6 6 6 6 4 7 14 24 8 8 12 13 13 9 6 9 16 16 5 5 10 13 14 16 20 29 17
25 26 25 29 26 23 23 24 21 20 19 18 14 14 14 11 12 9 8 8 7 9 8 7 5 6 11 14 19 13 15 16 19 16 11 8 7 9 9 8 9 4 5 14 12 10 17
29 25 24 23 25 25 22 23 22 22 20 19 17 13 12 12 11 10 9 8 8 9 8 8 7 7 11 11 16 24 14 15 12 10 7 14 12 8 6 3 4 4 9 8 6 8 6
31 29 26 30 28 24 23 24 23 22 22 20 17 15 12 12 10 11 11 8 6 7 8 8 9 4 13 10 10 17 23 14 12 8 6 10 8 5 2 4 12 8 6 11 8 6 12
30 30 29 25 28 27 25 27 26 25 23 21 19 16 13 13 10 14 12 7 5 4 14 11 12 7 4 4 4 8 19 22 17 12 4 10 6 11 11 9 11 8 16 13 11 9 12
32 32 31 26 23 23 29 28 28 26 23 20 19 18 14 14 11 15 13 8 8 3 6 19 28 19 15 9 5 13 12 15 16 15 5 6 17 11 10 12 10 14 15 21 15 15 8
33 32 32 32 31 25 27 28 27 25 23 20 20 19 16 15 14 18 19 15 14 10 5 8 27 26 29 23 17 15 20 23 9 9 12 16 5 14 12 13 14 16 17 16 16 14 15
33 34 33 34 28 30 24 19 26 26 25 22 21 20 17 17 16 19 20 13 13 7 3 4 4 7 15 14 7 30 28 20 7 16 12 14 14 16 12 18 14 17 16 15 16 10 10
36 36 34 34 33 28 27 21 29 26 26 25 22 21 20 19 8 21 9 14 9 5 4 6 5 2 1 12 9 12 27 26 15 10 9 8 7 14 18 24 16 15 13 12 11 12 15
35 37 36 34 33 32 26 27 28 29 25 27 24 23 22 23 17 14 13 17 12 3 8 6 5 4 3 12 8 2 10 19 5 13 14 15 6 4 14 15 16 3 2 8 6 6 11
37 38 36 36 34 29 24 26 24 30 26 29 26 25 27 27 25 19 21 16 3 4 2 5 4 6 8 9 12 8 5 12 5 5 7 6 15 5 3 2 6 4 3 4 5 6 10
36 37 36 36 35 27 26 25 12 36 28 33 29 27 25 22 20 25 22 3 6 5 6 3 3 8 7 8 10 11 3 7 12 6 1 6 5 13 10 10 7 8 14 6 7 6 7
35 37 36 38 34 39 31 23 11 25 25 31 33 29 29 27 20 26 20 4 6 5 3 6 5 6 5 7 5 10 12 5 7 16 7 5 8 4 14 12 13 7 12 19 4 4 3
35 36 38 39 37 40 29 28 17 15 23 35 36 34 32 30 26 33 3 6 5 1 6 5 9 10 7 7 9 9 8 9 8 15 17 3 6 3 9 11 11 11 11 11 5 5 6
34 35 37 38 36 36 25 19 16 16 20 39 42 17 26 33 35 18 3 7 4 9 9 6 7 4 5 7 10 6 6 7 13 11 18 9 6 6 2 12 16 12 7 8 4 8 2
34 34 35 38 39 37 23 19 28 16 13 45 26 5 22 36 7 5 5 5 5 3 8 11 6 7 5 10 10 5 10 7 9 5 14 7 4 5 17 9 13 16 14 10 6 7 9
33 34 34 37 40 39 31 24 33 13 20 35 21 8 32 43 6 5 5 8 8 6 6 7 9 11 9 8 4 13 7 11 20 9 13 9 4 5 6 6 5 14 13 9 9 4 12
33 33 35 35 39 41 33 28 34 7 30 30 10 4 10 18 4 10 8 8 9 7 13 10 4 5 8 5 10 6 12 6 16 14 25 14 4 5 5 4 5 7 21 12 10 6 4
31 31 34 33 36 39 37 31 25 12 42 25 7 3 10 8 8 5 10 4 9 5 11 4 5 12 5 5 5 6 4 2 4 21 5 5 5 3 16 21 16 13 16 17 19 19 7
29 31 32 31 35 35 41 37 24 19 25 17 10 5 9 8 16 14 8 5 5 4 5 3 5 7 11 7 6 3 7 4 4 9 4 4 4 4 5 7 14 15 20 19 10 2 7
29 30 31 29 33 33 33 36 20 22 9 6 9 11 9 7 8 7 7 11 12 11 11 15 11 7 10 15 13 4 9 6 7 10 7 9 3 5 4 12 13 3 9 7 3 1 4
28 29 29 27 30 32 32 34 18 14 23 7 17 15 5 3 3 7 3 11 14 14 11 7 12 12 7 12 6 3 2 7 2 4 9 7 6 3 4 5 2 4 1 6 7 4 3
26 28 29 26 29 31 29 30 22 18 13 8 15 11 6 2 6 8 8 6 4 2 3 11 20 14 21 5 3 2 1 1 4 4 2 3 4 2 2 2 4 3 3 3 6 4 1
26 26 27 26 28 30 29 28 17 19 17 1 17 14 6 3 4 5 3 1 1 3 4 4 9 6 16 2 3 4 3 3 3 2 4 5 3 2 3 1 1 3 3 4 1 1 3
26 26 25 26 27 29 27 23 19 15 12 6 13 18 9 6 7 6 3 2 2 1 2 2 6 3 5 2 1 3 4 6 6 5 5 4 3 5 2 2 6 4 2 4 4 4 3
25 24 24 24 25 28 24 22 17 15 8 7 16 14 17 6 6 5 6 4 3 3 2 1 4 2 2 5 4 3 3 5 4 4 7 7 5 3 3 2 6 5 2 4 4 3 12
25 25 23 24 25 26 23 21 16 13 12 5 17 15 15 6 4 7 8 9 9 7 6 9 2 6 6 3 3 2 2 4 5 4 3 4 6 6 6 5 2 4 2 7 10 17 17

GFSGBSN_850_spd_006.txt.gz
Wind_Speed
22 18 19 23 22 21 20 21 22 20 19 18 18 17 14 12 12 9 7 6 5 4 4 5 5 6 10 11 14 5 9 6 4 10 18 19 13 6 5 5 10 9 8 18 22 27 28
23 22 22 20 24 22 21 21 23 24 20 19 19 17 15 12 13 11 8 7 6 6 5 3 4 7 11 6 10 18 12 5 3 5 6 19 13 14 7 8 9 10 10 16 20 24 20
25 27 25 24 27 23 22 22 23 23 22 20 19 18 15 14 13 13 10 9 7 7 6 5 5 7 13 21 8 13 19 20 12 7 10 8 22 10 3 4 12 9 9 11 11 11 11
25 26 27 25 23 26 20 21 23 24 23 22 19 18 16 14 13 14 12 10 8 9 8 7 6 7 9 6 10 16 13 17 16 16 14 9 5 16 9 9 7 4 4 8 5 9 7
29 29 28 28 27 24 23 24 23 24 24 23 22 19 18 14 13 14 12 11 8 8 9 8 7 6 10 7 10 13 19 15 10 16 19 15 11 7 2 2 4 4 6 6 5 6 5
30 31 32 31 30 28 20 25 27 26 26 25 24 21 18 15 13 13 13 10 7 7 8 8 8 4 12 7 5 4 22 16 7 8 9 10 5 3 2 5 14 12 7 8 7 3 8
30 32 30 31 31 31 26 28 19 28 28 26 25 22 21 17 14 15 17 10 5 5 14 11 12 6 1 5 5 4 20 16 11 6 4 2 4 11 11 10 5 8 9 12 4 5 10
31 31 32 32 32 32 27 31 27 21 30 28 26 24 22 19 17 16 18 13 8 4 5 20 25 19 12 7 4 6 14 14 11 9 4 3 11 8 7 8 10 11 15 15 10 10 9
33 30 32 32 33 33 34 29 32 25 29 29 26 25 23 20 18 18 23 21 12 4 3 7 22 18 20 19 8 12 18 15 8 16 16 14 6 15 13 11 10 14 17 9 9 13 18
34 32 33 35 34 34 32 28 26 27 19 28 26 26 25 22 20 22 25 21 12 3 3 4 4 4 11 14 6 26 22 14 6 14 16 13 18 15 10 15 10 17 8 13 13 7 6
35 34 33 35 34 32 30 30 24 26 24 25 28 27 30 28 18 25 21 17 13 3 3 4 4 5 5 12 6 7 26 18 14 9 7 8 8 16 21 18 14 11 8 12 11 10 8
35 36 33 34 33 35 31 30 25 21 24 31 26 30 31 30 22 14 17 21 15 3 7 5 5 5 5 8 3 4 15 19 4 15 15 8 2 5 7 11 18 4 10 8 7 4 10
36 37 33 34 35 36 33 28 33 23 21 30 21 35 34 31 28 21 26 25 3 4 2 6 4 5 5 7 7 8 7 8 5 7 8 6 18 5 2 4 5 13 8 4 6 6 8
34 37 33 34 37 37 32 35 32 21 24 25 35 45 36 34 28 31 34 2 6 5 5 4 5 8 7 7 7 10 5 8 14 5 2 7 3 14 11 17 6 14 16 5 6 4 4
35 35 34 33 36 38 34 38 29 21 23 23 30 36 40 34 33 36 25 4 6 6 6 9 7 6 8 6 5 10 9 8 11 13 8 6 6 2 5 5 14 5 11 20 7 5 3
35 33 33 33 34 39 37 41 23 13 23 20 29 43 40 41 35 37 8 7 5 3 6 4 8 8 8 9 9 8 8 7 8 18 12 6 3 6 4 7 12 10 7 6 6 5 5
33 34 33 34 35 37 41 40 28 16 18 17 11 15 34 40 40 26 7 6 4 6 7 6 7 8 7 6 8 7 5 4 12 10 18 4 4 1 1 6 12 9 9 5 7 8 3
33 33 33 34 35 35 39 39 28 27 22 21 21 6 38 43 6 7 5 5 6 4 12 4 5 9 8 9 7 6 8 7 17 10 10 11 4 5 11 4 10 15 13 13 7 10 8
31 31 32 33 35 35 38 40 35 27 13 14 18 11 41 43 6 9 4 8 6 5 7 7 11 10 10 7 4 11 6 11 15 7 11 10 4 2 4 7 11 12 16 15 13 3 9
30 29 31 33 34 33 39 41 41 31 20 15 9 5 13 23 4 9 13 9 7 11 11 6 5 11 6 7 8 3 8 5 15 14 17 18 4 6 8 3 1 10 20 18 16 10 8
30 28 29 32 32 31 37 39 40 31 17 14 7 3 9 9 6 12 10 4 13 7 7 12 4 11 8 4 6 8 7 4 3 13 9 7 6 6 14 17 14 11 18 23 14 6 13
30 27 27 29 30 29 32 35 36 24 13 11 7 6 10 13 16 7 14 10 11 9 6 6 8 8 14 9 6 1 6 4 4 10 10 5 3 4 16 14 17 7 20 21 11 7 6
31 27 28 29 28 29 31 32 32 19 25 8 4 14 16 13 11 8 6 8 8 4 10 12 12 7 10 15 16 8 10 5 1 4 4 7 4 3 4 6 12 7 19 15 4 8 15
32 27 26 26 26 29 30 30 29 16 16 18 15 13 6 5 9 10 9 14 14 13 10 8 18 7 1 7 10 8 6 5 3 8 10 6 3 5 1 0 3 1 17 23 23 22 22
30 27 27 25 24 27 28 28 27 20 18 25 3 9 4 3 5 5 3 1 5 4 10 12 13 19 11 8 3 2 2 3 0 3 6 5 3 4 3 2 3 3 5 8 11 8 5
29 26 27 25 25 27 26 27 27 20 19 20 9 12 7 4 5 5 5 4 3 1 2 4 9 13 13 5 3 4 4 4 3 3 4 5 2 1 4 2 3 2 2 1 2 2 5
28 26 24 24 24 25 23 25 24 18 17 17 9 10 9 5 7 10 3 3 4 2 2 2 3 5 14 5 3 3 3 2 4 6 5 2 1 4 1 2 6 5 2 1 4 5 2
27 27 25 23 23 24 24 25 24 23 15 20 4 11 9 4 6 9 12 7 4 3 2 1 2 1 2 3 2 3 3 5 2 3 5 5 4 3 3 0 5 1 2 1 3 2 4
25 26 23 24 23 24 22 26 25 23 15 15 1 9 10 3 2 8 14 15 13 9 2 5 2 3 6 3 3 2 2 2 3 3 1 3 5 5 7 5 2 1 0 2 4 6 9

GFSGBSN_850_spd_009.txt.gz
Wind_Speed
21 22 25 23 22 21 17 22 20 21 22 22 21 21 19 17 15 14 11 10 8 7 6 7 7 10 12 10 12 4 7 6 6 18 19 13 7 2 3 4 7 6 2 11 16 21 24
25 24 24 26 28 24 23 19 22 21 22 24 21 21 21 17 16 14 13 11 10 8 6 5 7 10 12 5 10 14 11 11 7 8 10 13 10 11 6 5 4 6 10 11 12 20 19
26 26 27 27 27 28 25 21 23 21 22 21 23 22 21 17 16 15 14 11 9 9 8 7 6 9 13 20 9 16 20 14 10 7 7 10 12 9 3 3 9 7 7 7 9 7 6
27 27 27 26 29 27 27 25 23 19 21 22 24 23 22 18 17 15 15 12 11 8 8 7 7 7 9 4 16 15 16 13 16 12 9 6 3 12 14 9 6 4 3 3 3 10 8
28 28 28 29 27 26 27 27 24 20 19 23 25 24 23 20 18 15 13 12 10 8 9 7 7 7 10 6 10 16 19 12 14 12 13 10 5 6 2 3 6 6 8 5 4 8 6
30 31 30 31 30 28 29 29 27 26 23 17 25 28 25 23 18 14 14 13 9 8 9 8 8 5 11 4 4 7 22 16 8 11 12 9 7 3 3 6 11 5 4 3 6 0 4
30 31 32 30 33 32 32 31 30 27 24 24 26 28 26 25 20 15 19 14 5 5 15 12 12 6 0 7 4 4 13 18 10 5 5 2 5 9 13 8 6 5 9 12 7 7 6
30 31 32 31 31 34 32 31 29 27 30 26 21 28 27 26 23 21 21 18 8 3 5 27 20 23 6 5 3 5 13 14 7 6 5 1 11 7 6 6 8 11 13 14 12 9 11
29 29 33 32 35 33 32 30 29 28 28 32 27 31 28 28 25 25 26 24 8 4 3 7 22 23 20 17 7 10 16 15 4 7 7 11 5 7 7 9 9 9 9 11 12 7 14
28 29 32 34 32 31 32 33 29 26 27 25 28 26 29 31 29 27 26 22 18 4 2 5 6 5 11 10 7 25 21 10 4 10 10 12 14 13 10 11 9 17 6 10 11 5 8
31 30 32 34 31 32 34 35 28 26 27 24 29 17 28 39 26 33 25 21 15 3 2 3 3 4 11 15 4 9 21 11 9 7 5 6 6 11 18 18 9 9 6 9 9 7 7
33 33 32 33 31 30 35 34 31 29 29 24 24 25 13 44 33 26 20 22 15 4 7 5 4 5 7 7 3 3 13 16 2 10 12 7 5 6 6 9 14 2 6 11 5 8 13
34 33 31 33 30 30 34 32 28 33 27 19 18 27 18 49 38 27 30 32 5 4 1 6 5 6 8 5 5 6 10 10 7 6 8 8 17 1 3 4 6 10 5 3 6 8 8
31 32 32 30 30 33 32 36 35 32 25 17 17 28 16 46 37 36 45 6 4 4 5 3 4 6 6 7 5 7 8 10 13 3 2 8 6 18 9 7 6 12 13 6 6 4 5
31 30 29 30 30 31 34 35 37 34 25 12 16 14 27 27 38 44 33 4 7 6 6 8 8 5 7 7 3 10 12 11 8 16 8 3 5 3 7 17 8 5 10 19 13 12 5
33 30 29 30 30 32 32 35 40 36 22 6 11 8 15 37 42 46 10 8 5 4 6 4 7 9 8 9 9 8 7 3 12 12 14 4 4 5 4 6 8 12 5 4 6 5 5
32 31 29 29 29 30 31 31 37 35 21 12 4 9 13 42 46 29 6 5 4 6 6 6 7 8 6 6 9 8 5 3 10 8 16 6 4 2 2 9 12 7 12 7 4 6 4
32 31 29 28 28 30 30 31 35 34 24 1 4 3 35 47 9 7 4 6 7 4 11 3 2 9 9 7 8 6 7 7 14 10 11 11 4 5 14 3 8 11 11 16 4 5 6
31 31 28 28 27 29 29 30 34 34 19 14 6 7 49 43 5 8 4 5 1 4 5 6 7 8 10 7 3 8 5 10 18 12 14 10 4 4 4 4 5 7 9 16 16 5 8
30 31 27 27 27 29 28 29 31 33 20 23 10 3 14 22 4 11 12 8 7 6 9 10 4 8 7 7 7 3 5 4 18 13 12 14 4 6 7 4 1 6 14 19 18 10 12
31 31 28 25 26 27 27 29 30 33 24 5 7 5 10 9 7 13 12 6 9 6 7 12 4 11 9 5 8 7 7 4 5 12 5 6 6 9 16 18 12 11 10 20 21 24 13
30 29 27 25 24 25 27 28 27 32 20 5 5 6 10 10 18 13 14 10 8 12 6 5 7 9 12 7 6 5 5 5 5 7 9 6 4 3 8 16 23 19 18 16 23 20 20
29 28 27 26 25 25 25 26 27 31 21 7 13 8 12 16 11 12 10 9 12 5 10 11 12 10 9 11 20 22 9 10 5 9 9 5 2 2 9 11 7 9 26 21 20 18 15
28 26 26 24 26 26 25 24 26 25 14 17 19 5 3 6 11 14 9 10 8 7 6 4 12 9 5 6 7 11 9 8 5 8 12 6 4 2 5 3 1 5 2 16 20 13 12
28 26 26 22 24 23 24 24 26 24 18 18 13 5 2 4 10 11 11 4 7 12 10 15 15 17 12 6 2 2 0 3 6 7 14 6 5 3 3 3 2 5 6 9 9 10 16
27 26 26 24 23 22 23 25 27 25 23 19 7 6 2 5 8 11 11 7 3 4 2 4 3 16 12 3 3 4 4 4 3 2 3 3 2 2 4 3 4 2 9 15 13 5 16
26 26 25 23 23 21 22 21 25 25 20 21 3 4 2 5 7 13 4 6 7 3 1 0 3 4 16 6 6 4 4 2 3 6 4 3 3 5 4 2 6 3 2 13 5 5 7
26 25 24 24 23 21 22 21 23 24 20 22 3 10 5 3 8 10 8 7 6 6 3 4 3 4 4 5 3 3 3 5 2 2 4 5 4 3 2 1 4 1 2 5 3 1 6
26 24 22 22 22 22 22 20 22 22 22 19 10 10 5 4 4 11 11 11 12 7 8 8 2 1 4 3 2 2 2 2 5 2 2 3 5 4 7 5 3 4 2 1 2 5 5

GFSGBSN_850_spd_012.txt.gz
Wind_Speed
25 25 25 26 25 26 26 28 25 19 19 23 21 25 22 18 17 17 13 12 10 7 6 7 8 10 12 11 11 4 5 5 9 22 19 11 8 4 4 3 0 5 3 6 10 14 16
24 26 28 27 25 26 27 25 27 25 21 21 23 22 24 21 17 17 14 12 10 8 7 6 7 9 12 5 12 17 10 7 7 16 19 17 6 6 4 4 3 2 5 8 9 9 14
25 27 27 26 29 28 27 26 25 23 24 19 21 22 24 21 17 17 14 12 9 7 8 8 7 9 13 21 9 11 15 12 12 11 9 7 10 6 3 3 4 5 5 6 8 11 8
26 28 29 30 27 30 29 27 28 24 23 26 18 23 23 22 20 17 14 12 10 9 8 8 8 8 9 7 14 13 17 16 12 10 6 2 4 8 12 5 5 3 3 2 5 6 8
27 28 30 31 30 29 30 31 29 27 24 23 21 17 23 22 22 16 14 11 12 9 9 8 9 8 9 7 10 16 15 9 17 14 10 6 5 4 3 3 3 5 4 4 5 2 4
27 29 29 32 32 31 32 33 29 28 27 23 25 22 22 24 23 20 14 11 10 9 10 8 11 6 9 3 3 8 18 11 9 12 8 8 6 3 3 4 5 4 4 3 5 3 4
26 29 30 31 34 33 33 31 29 29 28 26 27 25 20 26 24 24 19 16 7 4 16 12 8 5 1 6 4 4 8 17 8 8 5 3 4 9 10 7 5 3 3 9 7 10 11
26 29 29 28 32 35 34 32 31 30 27 24 25 24 21 29 26 29 24 21 15 3 4 29 20 14 4 6 3 5 9 12 7 5 4 1 10 8 3 5 7 6 10 12 9 11 9
26 32 32 31 33 35 34 32 32 31 29 25 26 25 25 29 26 35 29 25 14 6 1 6 24 23 14 12 4 11 16 9 4 6 8 10 4 5 8 5 6 6 9 6 10 9 12
31 33 34 33 33 34 32 31 34 33 29 24 25 23 25 29 31 38 34 27 17 5 4 4 5 6 11 13 6 20 19 10 3 10 6 9 10 9 5 4 7 13 7 11 10 4 5
32 32 34 33 33 33 33 29 34 31 30 26 25 24 19 16 16 43 33 30 22 7 2 3 4 3 10 17 4 6 20 10 7 7 6 4 3 6 13 16 7 4 6 8 9 7 6
33 32 32 32 32 33 33 33 32 31 32 26 24 22 22 19 21 41 33 30 22 5 6 5 4 6 8 9 2 5 9 7 2 6 9 7 4 4 5 3 11 2 4 6 4 4 9
34 34 34 32 32 32 31 32 35 30 39 31 21 14 18 35 8 39 38 32 5 4 1 6 5 6 7 6 5 5 8 9 6 4 6 4 16 2 3 3 4 7 5 2 4 6 8
35 35 34 32 31 31 29 31 31 36 38 22 18 12 12 21 17 45 47 5 4 6 5 4 5 8 7 6 4 6 8 8 14 3 1 5 5 12 11 15 6 10 9 4 5 3 4
35 34 33 32 30 30 30 29 29 35 38 25 7 8 13 29 19 49 37 4 8 6 6 8 11 6 7 5 3 6 8 6 8 15 7 4 5 1 5 5 11 5 10 13 7 7 4
35 35 33 32 29 28 30 29 27 33 39 23 11 6 9 26 25 38 11 5 5 5 6 4 5 5 5 8 8 8 7 4 9 15 9 2 6 4 2 7 12 8 2 4 6 6 6
33 34 32 31 28 27 28 27 29 32 36 20 9 3 9 8 32 18 5 4 4 7 10 5 5 4 4 5 7 5 4 4 7 4 16 7 4 1 2 9 13 7 7 6 2 3 3
34 33 32 31 28 27 28 25 28 30 33 22 2 3 14 13 9 4 5 6 5 4 3 2 3 3 7 8 6 4 8 6 8 10 8 9 3 5 12 6 11 14 13 16 7 6 4
34 33 31 29 28 26 27 27 28 27 25 25 9 2 15 42 4 5 3 4 3 4 5 5 5 4 5 6 3 7 4 7 13 10 10 9 5 3 4 0 2 9 12 15 14 3 9
36 32 31 29 27 26 26 28 30 28 28 16 6 2 12 24 2 8 9 5 4 1 3 2 2 4 4 7 8 2 4 4 19 11 11 16 5 7 9 3 3 5 9 15 14 9 16
33 32 30 29 27 27 27 27 30 32 29 7 4 3 3 6 4 9 6 7 8 3 3 6 2 8 5 4 5 7 8 4 6 10 6 6 7 10 20 22 15 11 11 16 20 20 11
31 30 29 29 27 27 26 25 28 32 25 3 1 2 6 12 11 11 6 6 11 7 6 5 7 6 9 6 6 4 4 5 5 9 10 7 6 5 12 15 17 15 20 20 20 22 21
30 28 28 28 26 28 26 26 26 31 24 7 11 8 7 15 7 9 9 6 8 9 8 10 11 7 8 11 18 20 14 9 4 7 10 3 3 3 8 2 10 10 23 22 18 15 17
29 28 27 28 26 27 23 25 26 29 23 16 11 12 2 5 10 10 12 13 6 7 6 2 12 8 3 6 13 8 12 15 11 11 12 5 3 2 6 7 3 3 9 20 24 12 19
29 28 24 26 26 26 23 24 23 27 26 20 12 7 2 4 8 9 7 7 11 8 3 6 16 16 12 4 3 3 2 4 6 11 12 10 3 3 4 5 5 2 2 3 13 11 16
31 28 25 24 24 24 24 23 22 27 27 19 4 2 1 4 9 11 9 6 3 2 1 5 6 7 10 2 3 3 3 1 4 4 2 6 1 0 4 4 4 3 0 5 6 4 17
27 27 25 24 24 25 24 23 22 26 27 20 2 4 1 4 13 20 8 7 6 4 1 1 2 2 9 3 3 4 3 4 2 3 3 3 2 6 6 4 6 2 3 9 2 5 5
28 24 25 23 23 23 25 24 21 23 26 20 3 3 2 4 11 8 13 10 8 7 4 4 1 4 3 4 4 4 4 4 2 4 5 6 5 3 4 3 4 2 5 2 3 5 3
27 24 23 22 22 22 22 22 21 19 22 22 11 5 5 1 4 11 10 9 11 7 8 8 2 1 5 3 2 1 2 2 3 3 1 3 5 3 6 5 3 2 4 7 9 6 3

GFSGBSN_850_spd_015.txt.gz
Wind_Speed
24 26 26 25 24 26 27 26 25 24 23 22 22 19 20 22 19 16 13 16 12 8 7 6 6 9 11 10 10 3 3 5 10 20 17 11 6 5 3 3 2 3 2 5 7 9 10
24 25 26 26 27 27 26 27 27 26 26 20 20 17 21 20 20 19 11 14 12 9 8 7 6 8 11 6 12 18 7 4 6 16 19 14 5 6 2 3 3 3 4 7 9 12 12
25 26 26 27 27 27 27 26 27 29 27 23 18 20 18 21 20 20 12 12 13 9 8 8 7 7 11 18 10 8 13 10 7 13 14 16 13 8 4 1 2 5 5 8 11 12 9
24 24 27 27 27 28 30 30 31 31 27 25 20 19 21 23 20 20 17 12 11 9 7 7 7 7 7 6 13 16 13 12 12 13 8 7 8 8 4 1 3 2 3 3 3 1 7
25 23 27 27 28 28 29 30 31 30 26 27 23 22 22 18 20 20 20 13 10 11 9 9 9 7 7 6 8 9 14 17 14 11 8 7 7 5 3 3 2 3 3 5 5 5 3
26 24 27 30 30 30 31 32 31 31 29 24 25 22 24 18 20 19 24 15 13 12 10 8 9 5 9 2 5 7 15 12 14 15 8 7 6 4 3 4 5 4 5 4 4 1 3
27 27 30 31 28 32 31 32 32 29 30 29 27 21 22 25 16 18 28 23 11 5 17 11 9 3 4 6 8 6 16 15 11 13 5 4 5 9 11 6 5 1 3 7 5 8 10
30 30 29 30 31 32 30 31 32 29 30 30 27 21 22 23 20 9 38 34 29 9 7 29 11 16 4 9 5 8 15 12 8 4 6 3 10 11 1 8 10 11 13 15 10 6 8
28 29 30 30 32 32 31 31 32 31 30 28 27 22 22 22 23 21 41 33 26 20 4 4 26 18 10 9 4 13 19 9 4 5 7 5 2 2 10 6 9 11 12 13 13 8 13
30 33 33 33 33 31 30 31 32 31 28 27 27 26 23 19 20 23 38 29 23 17 4 4 5 5 16 11 4 15 19 9 3 10 5 9 10 6 4 6 8 15 5 11 13 7 7
31 33 32 33 33 31 30 31 31 30 31 34 29 27 22 16 16 17 34 32 25 14 2 4 4 8 13 16 10 8 21 6 7 6 5 4 6 5 12 11 7 6 5 6 8 8 8
32 33 33 34 33 32 30 30 30 31 33 32 37 26 17 15 20 25 38 35 26 5 6 6 6 7 8 8 5 6 10 5 6 4 5 6 3 6 8 7 13 3 2 8 2 5 8
31 32 33 33 32 31 28 29 31 30 29 35 37 23 14 15 16 20 45 33 3 4 3 8 6 8 10 7 6 7 9 8 5 4 6 5 15 5 4 3 1 9 3 2 4 6 7
31 31 33 33 32 31 28 30 30 29 32 38 41 14 13 16 22 5 43 7 4 5 4 4 6 9 5 9 4 7 10 8 11 2 1 4 5 11 8 14 7 11 11 6 5 5 4
34 32 33 32 31 31 28 29 31 29 32 35 32 4 11 13 11 16 27 3 6 6 9 10 11 6 3 3 3 5 7 5 9 15 7 4 4 1 7 5 7 4 10 10 5 11 6
32 33 33 32 32 30 29 30 28 32 33 35 25 8 11 10 14 4 2 4 3 3 14 10 5 5 9 9 7 9 7 4 5 10 11 2 5 5 2 6 6 6 1 3 5 5 8
33 35 33 31 31 30 28 28 27 31 31 31 13 3 4 5 11 4 2 2 5 6 9 4 4 5 6 7 7 6 5 3 6 5 12 5 5 2 4 9 11 8 6 5 3 4 3
33 33 33 31 30 30 29 27 27 31 32 19 15 2 17 16 4 2 3 5 6 4 3 4 4 5 5 6 5 4 5 5 9 10 9 8 3 5 9 7 15 14 15 18 9 8 4
32 31 31 31 30 30 30 27 26 30 33 27 13 2 17 15 3 3 2 3 5 3 2 2 3 3 3 4 5 5 3 5 15 9 10 9 4 3 5 1 4 8 14 20 16 8 16
31 31 31 30 30 29 30 26 27 32 33 28 4 1 4 5 1 6 4 3 5 4 3 3 3 4 3 3 3 3 4 3 17 11 11 13 5 8 10 12 2 6 16 18 16 6 14
31 30 30 30 30 28 31 25 29 32 33 5 4 0 4 3 1 5 3 3 5 3 2 4 2 3 5 4 4 4 5 3 6 12 9 8 7 12 19 23 18 18 12 19 19 22 12
30 30 29 29 30 29 30 24 27 30 36 7 8 1 2 7 9 6 4 4 6 4 4 3 3 6 7 4 6 4 5 5 5 5 8 6 5 4 17 19 21 22 23 21 21 21 21
31 30 28 27 28 29 32 25 24 28 34 9 15 8 2 10 6 5 4 7 6 6 5 4 6 4 8 8 9 14 12 10 5 6 11 4 3 3 11 6 10 8 13 20 20 21 15
29 30 29 27 26 27 27 27 28 26 31 26 17 7 2 4 7 6 9 5 5 7 2 1 10 4 4 2 7 9 13 17 16 12 11 5 3 3 6 7 3 3 5 12 19 17 21
28 28 26 26 25 24 25 26 23 23 29 27 18 4 3 3 6 6 9 7 3 3 4 3 6 6 8 6 2 4 0 3 7 11 10 14 3 3 3 6 7 5 7 1 8 9 19
28 28 25 25 26 24 23 26 25 22 27 27 6 2 3 3 8 8 5 7 3 3 1 3 7 9 6 3 2 2 3 4 3 1 7 5 4 1 3 4 4 3 5 3 1 3 3
26 26 26 23 23 25 24 24 24 20 24 27 5 15 1 2 2 14 7 7 7 5 1 1 3 4 9 3 3 4 3 2 3 2 3 3 2 3 4 4 7 3 5 2 4 6 8
24 24 23 22 22 22 23 24 25 22 22 27 12 10 8 4 4 14 15 9 7 9 4 4 2 1 2 2 2 3 3 4 2 4 5 6 5 4 3 3 6 1 2 1 3 10 6
24 23 23 24 23 23 21 20 22 20 19 21 20 9 3 1 3 7 11 13 13 10 12 9 1 3 5 3 4 3 4 1 3 3 1 3 5 3 7 5 4 5 9 12 13 10 5

GFSGBSN_850_spd_018.txt.gz
Wind_Speed
22 23 23 24 24 25 25 25 24 25 26 25 22 18 16 21 21 19 20 16 12 11 12 9 8 10 13 10 9 4 2 5 14 20 17 13 10 7 7 4 7 11 10 9 12 11 14
22 21 23 24 23 24 25 25 26 26 28 27 25 21 15 20 22 21 22 17 12 11 12 9 7 9 12 12 11 14 3 2 8 20 19 16 8 7 4 5 9 2 6 10 10 15 15
22 22 22 23 24 24 25 26 26 28 26 26 23 23 18 17 17 24 21 21 12 10 13 11 7 8 9 11 9 12 12 12 6 13 16 17 10 7 7 4 4 6 10 12 16 16 14
23 22 22 24 27 25 27 27 27 27 26 25 23 23 20 18 18 23 20 24 10 11 12 9 7 6 6 8 16 9 12 10 10 11 12 15 11 7 4 2 3 5 5 6 3 3 6
24 26 27 28 28 26 25 27 26 27 28 25 27 24 20 21 19 11 20 24 17 14 13 10 8 6 4 7 9 11 15 12 14 12 11 12 10 5 5 5 5 8 7 9 9 7 6
26 27 25 27 27 28 26 29 25 27 27 25 28 25 23 18 24 13 17 27 20 19 15 10 8 3 8 3 6 11 20 18 11 14 10 7 5 6 8 8 5 5 9 9 10 2 8
27 27 27 29 29 30 31 29 25 26 27 27 25 24 22 18 21 22 7 29 17 7 15 8 8 2 5 7 9 11 19 15 12 13 10 10 6 11 14 14 11 4 7 11 10 10 17
27 29 30 31 30 30 31 29 25 28 27 27 22 23 21 21 21 19 27 23 30 10 9 19 8 8 7 10 5 10 20 12 14 13 11 6 13 13 8 11 13 14 16 16 14 12 12
29 29 32 32 32 30 31 29 26 26 25 25 23 27 21 23 22 22 26 24 31 15 5 9 19 9 8 10 5 15 21 10 13 12 17 9 1 6 14 14 14 16 16 15 15 16 18
31 32 30 32 32 32 31 29 25 25 26 26 26 28 21 22 20 16 24 16 28 14 3 8 10 10 16 7 4 11 20 9 5 13 11 10 13 7 8 12 13 15 11 14 14 11 6
30 31 31 33 35 32 30 28 25 25 26 26 27 22 23 20 14 14 14 14 25 11 7 12 7 9 14 16 12 8 16 4 8 9 7 3 6 11 13 12 12 7 5 7 9 11 11
32 33 33 33 33 30 29 27 24 27 28 27 30 32 33 22 17 19 7 20 22 3 6 8 7 11 14 14 8 9 13 3 6 6 7 9 1 5 6 6 14 1 6 10 10 8 9
31 30 31 33 31 30 28 26 26 28 25 28 35 36 26 15 12 16 14 26 4 5 6 9 9 13 15 12 10 11 12 10 6 5 7 8 16 6 7 8 7 12 4 3 4 6 8
31 33 34 32 30 29 27 26 29 24 29 31 35 26 6 11 14 13 20 4 5 6 6 5 14 16 9 17 7 11 13 10 12 5 3 5 4 15 12 16 5 17 14 5 6 8 10
34 33 32 31 29 28 27 28 25 26 30 32 37 14 1 11 13 13 18 4 3 8 12 12 13 9 5 12 5 8 11 8 10 13 6 6 4 3 7 7 13 5 10 14 15 21 13
33 31 30 29 28 29 28 30 25 27 31 37 32 8 3 11 10 16 2 1 1 6 19 17 7 7 8 15 8 10 12 6 9 16 14 3 4 6 4 9 12 12 0 5 6 6 15
30 29 30 29 30 30 29 31 25 28 33 30 27 5 7 12 10 11 3 2 5 16 14 3 7 9 8 13 9 10 7 2 9 11 18 7 6 4 3 12 14 10 8 6 6 8 9
29 30 28 29 29 29 29 28 24 29 32 30 10 1 16 22 3 2 2 2 9 9 2 4 7 10 13 13 11 9 10 4 9 12 10 11 5 8 16 12 15 17 16 19 9 13 8
30 29 29 29 30 30 30 28 26 29 33 41 4 1 14 5 3 3 3 2 6 3 2 3 4 3 5 9 6 8 5 3 14 12 12 11 5 4 4 4 8 11 20 22 20 12 19
28 29 28 28 28 28 28 28 26 30 34 9 3 1 4 5 2 8 11 4 5 5 4 7 6 7 7 5 2 6 7 4 14 14 7 12 6 7 10 14 3 7 15 20 18 11 18
28 30 28 27 27 28 28 30 25 30 30 13 3 2 2 2 6 8 6 4 10 3 3 4 4 3 5 4 5 4 5 3 5 11 10 8 6 11 21 24 22 23 26 22 19 27 16
28 27 27 26 26 27 26 30 24 27 34 15 7 4 2 5 14 10 4 7 6 3 3 2 3 9 6 4 3 5 5 7 6 10 11 6 6 4 13 19 22 24 24 22 20 23 27
26 27 26 25 25 24 27 29 25 26 33 13 19 11 4 3 6 6 4 6 6 6 1 3 3 3 5 7 9 10 9 5 4 7 13 4 2 2 7 13 18 9 8 10 7 10 18
25 26 26 23 23 23 25 28 25 23 24 25 20 8 3 3 4 5 7 4 7 8 3 2 6 3 2 3 5 9 13 17 16 15 11 6 4 3 6 7 4 4 7 11 11 15 17
24 24 23 22 21 22 22 23 23 22 22 23 10 2 5 2 5 7 4 4 6 5 3 2 4 5 4 3 3 4 2 3 6 10 14 12 4 3 3 5 12 7 6 6 4 5 5
22 23 22 20 21 20 21 22 22 22 20 16 10 9 6 2 7 9 6 12 6 4 2 2 3 4 4 2 1 3 2 2 1 2 3 7 8 3 1 4 4 7 7 4 2 3 14
21 21 21 21 21 20 21 21 21 20 18 18 6 11 2 4 4 19 11 8 5 5 2 0 1 2 6 4 3 4 3 2 2 3 4 3 2 5 6 5 7 6 7 2 5 7 14
19 20 20 20 20 18 18 18 19 19 17 17 11 13 10 5 3 13 14 7 6 7 4 5 3 2 2 4 3 3 3 2 3 2 4 7 5 4 4 4 4 1 3 4 4 8 9
18 19 20 22 20 21 20 20 19 18 17 15 12 12 9 6 3 8 10 11 14 10 11 9 1 4 3 2 3 2 3 2 4 3 3 4 4 2 5 4 3 3 8 10 9 8 5

GFSGBSN_850_spd_021.txt.gz
Wind_Speed
19 20 17 20 21 22 22 22 23 23 24 24 24 23 21 18 15 18 19 19 17 15 12 11 10 10 13 12 11 5 5 9 17 18 17 16 16 15 11 11 10 13 16 15 15 18 17
21 20 21 21 22 25 23 24 24 25 25 24 25 23 22 21 18 15 19 17 23 16 13 11 10 10 12 12 8 11 4 4 11 20 19 16 9 10 7 7 10 2 11 15 16 17 18
19 22 23 26 26 24 25 24 25 24 25 26 24 25 24 21 20 18 17 17 23 17 13 12 10 9 11 15 5 11 14 5 6 17 19 14 8 6 7 5 10 10 13 14 19 21 15
23 24 25 26 26 27 28 26 25 26 25 26 26 26 25 24 21 19 15 19 20 23 15 13 10 6 7 13 17 7 7 8 6 9 12 12 13 4 6 3 5 6 10 11 5 7 14
23 24 26 27 27 30 31 27 30 29 25 24 26 27 26 25 22 21 19 13 22 22 17 15 11 7 6 10 11 14 9 10 10 8 7 9 10 6 4 9 8 11 9 13 9 8 7
25 25 27 29 29 33 30 28 29 28 26 24 25 26 23 20 19 17 23 16 25 22 19 16 7 5 10 8 8 10 14 12 12 15 13 9 7 6 10 11 7 9 14 10 10 5 8
26 28 30 30 31 32 31 29 30 28 27 24 25 23 20 19 18 15 18 11 13 11 28 11 14 4 8 8 8 11 18 17 14 16 8 10 7 12 16 15 15 5 9 10 9 7 15
27 28 30 31 30 33 32 32 29 27 25 23 23 21 17 22 20 17 17 9 9 3 10 15 8 11 8 11 7 14 19 14 16 13 11 6 12 16 11 10 11 12 13 15 14 12 12
27 29 31 32 34 32 31 29 28 26 22 23 23 22 22 18 20 19 17 23 14 7 5 19 15 17 10 10 8 20 22 16 16 16 16 10 4 11 13 11 10 12 13 13 15 16 17
27 30 28 30 32 31 30 28 27 23 21 23 23 22 24 17 15 9 13 17 15 12 5 11 12 10 11 8 5 16 21 11 6 14 13 11 8 5 11 13 11 12 9 11 12 10 7
27 28 32 34 32 31 29 28 25 22 25 26 22 23 21 18 19 21 10 10 8 10 6 15 12 10 16 12 18 14 19 5 10 10 7 4 7 13 11 12 9 7 3 4 6 10 12
28 32 32 31 32 29 28 26 25 26 24 24 26 26 33 26 15 16 14 12 22 4 4 6 7 13 16 17 8 13 14 5 4 6 11 9 2 5 9 6 11 3 4 6 7 4 7
29 32 31 30 30 28 28 26 27 24 22 27 29 33 25 14 10 10 11 18 2 5 11 8 9 14 17 12 11 13 13 11 8 5 9 11 14 7 10 9 7 9 2 2 4 5 7
29 31 30 29 29 29 28 26 28 24 25 31 31 29 7 4 11 16 17 5 7 8 7 7 12 17 9 17 10 14 14 12 14 11 4 8 6 19 14 15 6 13 11 5 6 8 12
27 29 29 29 29 29 29 28 26 23 27 32 30 13 4 10 7 17 11 3 2 12 12 12 17 11 7 17 7 13 14 11 14 14 7 6 4 3 7 8 12 6 9 15 12 18 12
27 30 30 29 29 29 29 30 23 22 28 32 29 7 3 11 10 14 1 1 2 8 16 18 7 6 8 18 10 13 13 13 11 18 13 1 3 6 7 5 9 9 4 2 4 5 10
27 30 29 29 29 29 30 31 23 27 30 30 16 3 10 10 12 6 1 2 7 22 9 3 9 9 9 14 11 14 16 5 17 15 15 6 4 5 4 10 13 9 10 6 8 9 5
27 30 29 28 28 28 29 32 26 29 34 21 4 2 12 11 2 2 1 2 14 10 1 4 6 5 15 16 9 12 10 2 10 10 13 10 1 5 12 9 8 14 15 16 7 10 8
28 28 30 27 27 28 29 32 27 31 26 13 4 4 8 3 3 4 1 2 6 3 1 3 4 2 9 13 6 6 8 5 12 12 11 10 5 3 3 4 11 11 17 18 19 16 22
26 25 28 27 26 28 27 31 27 30 23 8 3 2 1 5 3 9 4 8 6 5 7 8 9 10 10 12 2 8 6 4 10 12 7 8 5 7 8 10 6 6 14 17 17 10 19
26 26 26 25 25 25 27 29 28 29 22 7 6 2 1 1 3 10 2 4 9 4 3 3 4 3 4 4 5 4 6 6 6 9 5 5 4 9 17 22 21 20 23 23 20 20 17
23 23 26 23 24 24 25 28 25 26 20 21 6 5 9 2 8 12 4 6 6 4 2 2 3 5 3 3 2 3 5 6 6 10 10 4 3 4 16 21 21 20 22 18 19 19 19
21 22 22 22 22 23 23 25 25 23 25 10 12 7 4 3 5 6 4 7 6 4 4 5 3 4 2 1 4 5 4 3 1 4 11 5 3 3 5 10 19 9 4 8 11 13 10
21 21 20 20 20 21 22 22 23 21 20 14 7 6 5 2 7 5 5 5 7 4 3 3 1 2 3 4 5 4 8 10 12 11 10 4 4 2 6 10 3 2 5 8 10 14 9
20 20 20 21 22 22 22 21 22 20 19 12 12 6 5 1 5 4 7 4 7 6 2 3 2 2 2 2 3 3 2 1 8 14 10 11 4 3 3 6 15 6 3 4 4 7 12
18 18 20 20 21 19 18 19 21 19 17 8 9 8 1 4 5 4 5 6 5 4 4 2 1 2 2 2 1 1 2 3 2 4 3 8 9 4 2 3 4 5 9 4 1 2 15
16 16 18 19 21 21 20 20 19 18 16 12 5 10 1 4 2 8 7 7 6 5 1 1 2 0 1 1 2 2 4 1 3 3 6 4 3 5 6 4 8 7 5 1 2 7 15
16 16 17 18 19 21 20 19 19 19 16 13 5 6 8 4 9 4 10 6 6 8 3 5 3 3 2 2 1 2 3 2 3 5 4 6 5 4 4 5 6 3 6 7 6 9 9
15 17 17 18 18 19 19 20 18 19 17 15 7 8 10 8 6 5 8 11 9 5 2 5 3 3 2 2 2 2 2 3 4 3 3 4 6 3 5 3 8 8 11 11 6 9 7

GFSGBSN_850_spd_024.txt.gz
Wind_Speed
20 21 22 22 25 24 23 26 24 25 25 24 26 27 24 25 24 21 17 16 15 19 15 12 10 7 10 12 9 4 6 18 19 16 17 17 17 15 11 9 15 12 15 16 15 18 13
21 24 24 25 25 26 24 25 27 27 26 27 26 26 26 27 25 21 19 16 17 15 17 13 11 9 14 12 8 5 5 5 12 20 18 18 13 16 8 15 8 6 12 15 19 10 13
24 24 24 26 26 28 28 32 31 28 27 27 27 26 27 27 25 25 21 17 16 14 20 14 12 11 11 16 8 9 12 5 7 17 19 19 9 5 1 4 9 7 10 11 14 15 10
24 27 28 30 29 29 30 32 30 29 26 27 28 28 26 28 25 25 22 20 17 17 24 15 13 10 9 12 17 10 8 10 3 9 21 16 10 7 3 4 1 4 9 8 10 18 17
23 27 29 30 32 31 33 32 30 29 29 27 26 26 27 27 25 18 20 23 22 18 19 18 17 11 9 10 18 20 8 10 9 3 11 13 11 4 3 1 4 7 6 10 9 6 4
25 28 30 31 34 33 33 33 31 29 28 26 25 24 24 23 19 18 18 18 22 14 17 16 8 9 12 11 11 13 14 11 12 10 10 9 5 4 3 5 5 6 8 8 8 5 3
27 28 29 31 32 34 33 32 30 28 27 26 23 22 22 21 17 19 18 15 10 7 29 8 17 2 18 16 13 15 18 14 12 14 6 12 5 7 12 13 12 12 7 10 7 6 6
29 29 29 29 33 34 33 31 29 27 26 23 22 23 20 17 21 17 15 10 11 4 7 22 17 6 14 16 11 15 20 11 10 9 6 4 8 10 8 6 5 6 8 10 10 10 7
28 30 32 35 35 33 32 30 28 26 23 22 24 22 22 20 17 17 13 17 16 4 4 15 12 16 15 11 10 21 24 13 10 9 8 6 1 11 11 6 4 7 7 8 11 11 11
29 30 34 34 33 32 30 29 28 26 25 26 22 22 23 20 17 6 9 11 14 10 3 11 11 10 11 9 7 19 20 10 6 13 8 7 7 3 8 9 6 5 2 5 8 7 4
31 30 33 32 31 30 29 29 26 27 26 22 25 25 25 23 19 16 9 7 10 9 5 13 9 11 15 8 20 14 19 4 8 8 5 4 6 6 4 5 6 3 6 5 5 6 7
29 29 31 32 31 31 30 29 28 28 24 24 27 29 32 25 16 12 9 9 12 0 2 4 7 12 14 15 6 16 12 4 1 2 9 3 6 2 6 5 4 6 2 3 4 3 4
28 29 32 31 31 30 30 30 29 26 22 26 32 33 19 8 6 9 10 11 1 3 7 7 8 13 16 12 8 13 10 7 5 5 4 6 6 3 3 4 3 5 1 1 2 3 6
27 30 31 31 30 29 29 30 32 23 24 30 34 22 11 5 5 18 18 3 4 8 3 6 13 15 9 15 7 11 11 9 10 6 6 6 5 13 9 8 5 8 5 3 5 3 4
27 30 32 30 30 29 28 29 32 23 28 32 27 10 8 7 11 15 12 2 3 6 9 10 17 6 9 12 7 9 9 7 10 10 6 5 2 9 11 5 8 4 7 2 5 5 3
26 30 32 30 29 28 30 30 30 27 32 27 17 7 9 11 13 13 1 2 5 6 15 15 5 5 9 15 8 9 12 12 10 15 10 2 1 2 7 4 7 6 5 2 1 3 5
27 28 29 29 28 30 29 30 30 31 31 20 6 4 6 10 8 2 2 3 2 23 12 1 9 8 9 13 6 8 11 3 15 12 12 3 2 3 5 8 9 5 6 3 3 4 4
25 28 29 29 28 30 28 32 30 31 31 13 5 3 7 7 1 3 1 3 10 7 3 5 4 10 11 13 5 9 9 7 18 11 11 5 2 3 9 9 13 11 8 13 4 6 5
25 26 27 27 28 28 29 31 31 33 23 6 5 4 1 3 1 1 3 3 5 5 5 3 4 5 15 12 6 8 7 6 4 5 11 8 3 2 2 3 8 6 7 12 16 11 17
24 25 26 26 26 27 29 31 31 31 11 8 4 2 1 3 2 3 2 5 4 7 10 9 7 7 12 7 1 7 7 1 8 5 8 12 3 5 3 2 3 3 6 9 10 8 13
23 24 24 23 24 25 27 29 29 28 14 5 5 3 4 1 4 3 5 4 6 4 5 6 3 5 9 4 5 6 8 8 5 6 5 1 3 4 8 13 13 12 17 17 17 18 15
21 23 24 22 23 24 25 27 28 26 12 15 3 3 6 4 7 6 3 3 4 6 7 3 5 6 3 5 7 6 6 7 5 7 5 4 3 3 10 14 16 16 17 17 18 19 19
18 21 23 23 23 23 24 24 25 24 22 8 9 7 3 4 1 5 3 6 3 3 6 8 5 4 5 8 9 5 4 5 4 7 8 4 2 2 4 7 10 7 7 6 8 12 12
18 19 20 21 21 19 20 21 22 20 19 11 9 4 4 2 4 2 2 2 4 4 6 6 4 4 1 3 4 2 5 4 5 4 8 5 4 2 4 7 2 3 9 8 9 15 12
17 18 18 19 20 21 19 18 19 18 15 8 13 7 5 3 3 1 3 3 7 7 7 6 6 5 1 3 2 3 3 3 6 10 11 6 3 2 2 3 9 1 4 2 3 6 5
17 19 18 18 19 20 20 18 17 16 14 8 5 8 3 4 2 11 4 7 5 4 3 4 1 0 1 1 2 1 1 3 4 3 3 10 6 2 1 3 3 3 3 3 4 4 2
18 16 19 17 19 18 18 18 17 17 13 12 4 10 3 4 6 8 2 6 3 1 3 3 3 2 1 1 1 1 2 3 2 5 5 3 3 7 5 3 6 6 2 4 2 5 10
17 18 17 17 19 19 18 17 17 16 14 12 5 6 9 5 14 10 7 3 5 3 3 5 3 2 1 2 2 1 1 2 3 2 5 7 6 4 3 3 6 0 6 2 4 12 10
17 19 17 16 19 20 18 17 16 16 13 12 6 8 10 8 10 8 11 5 5 3 5 7 1 3 2 3 1 1 2 3 3 3 1 3 3 3 7 5 7 10 9 9 7 10 10

GFSGBSN_850_spd_027.txt.gz
Wind_Speed
25 27 24 25 28 28 29 29 31 31 29 26 24 24 22 24 24 22 23 20 16 14 14 19 16 11 12 12 12 1 3 17 18 17 20 22 15 8 6 7 14 6 7 19 20 19 16
24 24 28 27 29 30 31 29 34 30 31 28 22 24 24 24 24 24 22 23 20 14 12 20 16 14 15 7 9 8 5 13 18 19 19 21 10 16 7 9 5 4 4 5 10 14 15
24 24 27 28 30 29 31 31 33 32 30 29 27 26 25 24 23 25 23 21 18 17 17 16 15 16 13 20 8 10 11 7 5 14 21 21 12 11 7 2 3 5 3 7 8 13 6
25 25 28 29 30 31 32 33 33 32 30 28 26 25 25 23 24 23 22 16 18 23 16 14 18 16 8 18 19 15 15 11 9 8 20 17 13 8 3 2 2 4 3 2 8 12 13
25 27 28 27 27 29 32 31 32 31 29 27 25 23 22 22 22 21 18 18 17 21 21 10 22 15 7 13 23 18 15 16 9 5 16 15 12 5 5 5 2 2 3 6 7 8 5
27 27 29 30 32 33 32 32 30 29 27 26 24 20 20 22 20 19 20 18 18 17 20 18 13 10 9 14 24 25 13 15 15 11 14 8 4 3 3 2 5 5 4 4 5 4 5
26 27 27 32 31 32 32 30 28 27 25 23 21 20 21 19 18 17 18 13 3 5 19 8 11 4 7 13 18 19 23 15 15 12 3 5 3 6 9 8 4 4 4 4 4 5 3
27 29 29 31 29 30 30 27 27 26 26 25 24 23 21 19 20 17 14 9 7 1 8 17 11 6 26 22 10 23 24 11 9 5 3 4 2 5 7 7 6 4 5 5 6 6 6
27 29 29 29 31 29 29 28 27 26 25 24 22 19 22 22 20 12 8 10 14 13 7 14 10 16 20 11 7 23 22 11 7 6 6 7 3 11 4 2 0 2 3 3 4 7 5
26 25 29 30 31 30 29 29 29 27 27 23 19 21 24 23 19 12 12 8 12 10 3 10 6 10 16 12 5 23 22 13 4 7 7 1 3 2 5 2 3 1 4 5 4 4 4
27 26 30 30 31 29 29 29 31 30 26 21 23 27 28 26 20 18 10 6 7 2 4 11 9 20 17 2 21 14 19 4 7 7 5 5 3 5 3 2 3 3 5 5 3 3 5
27 25 31 31 30 30 30 29 29 32 23 21 27 32 31 14 7 6 8 11 12 1 3 5 8 10 7 16 4 17 7 4 6 8 5 4 3 3 4 2 4 5 3 3 2 2 2
28 27 30 32 30 30 28 28 30 31 24 27 33 32 14 8 1 8 14 8 4 4 3 6 9 10 13 5 6 10 7 4 4 5 3 4 1 2 4 5 2 4 5 3 2 1 6
27 29 29 32 29 29 31 31 31 29 29 32 28 16 9 10 10 12 18 1 1 3 5 9 11 13 7 9 4 8 7 5 3 3 4 4 2 8 4 5 6 5 5 4 5 3 4
26 28 29 32 30 30 31 30 32 31 32 25 17 9 14 9 11 12 2 2 1 4 5 9 13 8 6 4 6 5 3 4 4 3 5 4 3 4 6 3 6 4 5 2 1 2 3
26 29 29 30 29 30 30 31 31 33 34 15 7 13 15 11 5 7 2 5 5 3 13 9 4 4 6 7 5 6 7 7 4 7 2 2 4 3 4 3 3 4 4 3 2 2 5
25 27 28 29 29 30 31 32 32 34 23 13 9 6 11 7 6 4 2 4 5 17 6 1 4 6 8 6 5 5 11 4 9 9 6 2 1 2 3 5 7 3 4 2 2 4 3
24 26 28 27 28 30 31 32 33 25 16 11 11 4 6 7 3 2 2 1 7 7 7 3 5 7 11 8 7 4 8 3 18 15 6 3 3 3 9 6 8 5 6 5 3 5 4
22 24 26 24 26 27 30 31 30 23 13 9 6 3 8 11 4 2 3 4 4 6 5 2 4 5 13 5 6 2 4 4 18 9 11 5 2 1 3 3 2 5 7 8 7 1 13
21 23 25 26 27 27 29 31 29 22 8 8 3 3 5 5 6 3 5 6 2 13 6 9 11 14 8 3 2 8 3 4 8 4 12 10 4 6 4 3 4 3 5 8 11 5 9
19 21 23 24 23 24 26 29 28 21 12 6 5 2 3 2 1 3 4 3 8 5 8 10 5 8 5 3 9 8 7 3 5 2 4 3 2 1 5 9 6 7 11 11 12 15 11
16 19 21 22 24 22 22 25 25 23 11 16 4 4 8 7 4 1 3 4 6 4 5 5 6 9 11 5 2 7 8 4 4 3 3 2 2 1 6 9 8 7 11 12 15 17 19
15 17 19 20 22 24 22 21 22 19 15 10 9 6 3 8 2 2 3 4 1 2 6 7 4 5 7 4 8 7 8 6 9 8 5 5 3 1 4 5 6 3 6 8 7 7 10
14 16 18 18 20 22 22 20 18 18 14 9 8 4 3 3 1 2 2 3 2 3 4 3 8 4 1 1 1 4 4 5 6 5 10 5 4 1 3 5 1 3 6 7 9 9 9
12 16 17 18 18 20 21 21 19 15 14 8 9 4 3 3 4 3 0 3 7 7 4 3 4 4 1 1 2 3 2 2 5 5 7 4 3 2 2 2 6 4 3 5 5 5 3
10 17 16 17 17 19 19 19 19 17 12 8 3 6 1 2 3 7 4 8 3 2 1 2 3 1 2 1 1 3 3 3 3 3 4 5 4 2 0 2 3 3 2 3 5 3 5
9 15 18 15 15 16 18 17 17 19 16 12 4 8 4 4 5 7 3 3 3 3 2 2 2 2 1 1 1 2 2 1 3 5 4 4 2 5 4 3 6 8 5 6 1 4 3
8 13 18 16 15 15 16 15 15 16 16 13 5 6 8 6 19 11 9 6 4 3 3 5 3 1 1 2 2 1 1 2 1 3 5 6 6 4 4 4 7 6 2 2 5 4 6
7 11 18 17 15 16 17 16 14 13 15 13 9 8 10 9 11 13 15 12 7 1 3 8 1 3 3 3 0 1 1 2 0 3 3 3 5 4 7 6 7 3 7 8 7 8 7

GFSGBSN_850_spd_030.txt.gz
Wind_Speed
20 20 23 23 26 26 27 28 27 30 30 28 26 25 21 21 22 20 20 21 19 18 18 17 11 22 15 13 14 4 6 23 20 21 24 22 16 9 6 8 11 3 3 9 14 19 12
21 23 21 28 27 25 26 27 29 29 29 28 27 25 24 23 23 22 19 21 19 20 21 22 22 19 19 9 11 7 7 18 24 24 23 23 13 16 7 5 8 2 13 13 13 9 7
21 24 25 26 25 28 29 32 29 29 27 26 25 22 21 22 22 19 18 20 19 18 22 20 9 20 18 23 6 18 9 17 21 21 21 25 13 11 6 0 8 5 5 3 6 6 4
21 24 25 26 28 29 30 32 31 28 28 25 23 21 21 20 20 19 18 17 16 15 18 20 21 17 8 22 12 18 15 14 12 17 18 23 14 8 4 3 3 5 4 1 4 4 9
24 25 26 26 29 28 28 30 27 26 26 23 20 19 18 18 21 19 18 17 14 14 13 23 20 16 7 14 24 22 19 17 14 13 19 18 16 5 6 5 3 3 2 4 7 9 6
23 25 28 27 28 28 28 27 27 24 24 22 23 20 20 20 19 19 15 17 16 14 13 12 16 9 9 12 30 22 18 17 11 13 17 10 5 3 2 4 6 6 4 3 5 4 3
25 25 27 28 29 30 28 27 28 26 24 24 23 23 18 19 17 25 17 15 3 1 10 3 14 4 6 16 24 25 19 18 14 13 5 9 2 9 14 8 4 3 1 2 5 4 4
26 24 24 29 28 29 28 26 27 28 23 25 23 19 18 20 21 15 13 6 3 4 4 15 14 3 12 20 14 25 21 10 8 4 8 3 3 8 9 6 5 1 3 5 6 1 3
26 27 24 30 29 29 28 28 27 30 28 24 18 19 21 22 21 21 5 5 5 6 2 9 9 7 20 16 7 20 23 10 6 5 4 5 5 8 6 6 5 2 3 2 4 5 2
26 27 25 30 30 29 28 26 26 28 30 22 19 22 26 28 18 5 9 3 2 3 1 4 4 5 11 13 5 19 18 9 3 5 5 4 4 7 6 3 4 3 1 3 4 5 4
24 26 27 30 29 29 29 29 29 28 29 22 22 30 31 19 14 10 7 2 10 3 3 7 5 22 14 2 21 13 8 3 4 7 5 3 3 5 4 3 4 3 5 4 2 3 4
25 27 27 29 29 29 29 29 28 30 27 28 29 28 18 8 3 2 6 11 6 1 3 4 7 10 7 8 3 12 3 6 9 6 6 2 1 2 4 4 5 6 4 6 4 3 2
24 28 27 30 28 29 30 29 30 30 30 28 23 16 14 9 7 7 13 5 2 1 3 4 8 9 12 4 5 4 4 4 4 5 3 2 2 2 4 7 4 5 5 3 4 2 6
24 28 28 29 28 29 30 30 32 33 31 21 13 13 13 11 10 8 8 4 3 3 2 9 10 12 6 8 7 7 5 4 2 4 4 4 0 4 2 5 6 3 5 4 5 2 4
24 27 29 29 27 29 30 31 33 29 25 17 16 21 22 20 11 2 5 3 4 4 2 9 13 6 4 5 6 4 1 5 2 2 5 4 1 2 3 3 6 3 3 3 2 1 3
22 26 28 25 27 28 30 31 30 25 18 14 20 20 17 12 9 7 3 6 2 4 13 5 5 0 4 4 4 3 5 3 3 6 2 5 4 2 2 4 1 4 6 3 2 1 4
22 25 27 25 26 28 30 29 28 21 12 7 6 6 9 8 8 5 3 5 4 13 5 2 4 4 7 5 4 4 9 2 6 4 3 2 4 4 4 4 6 3 3 2 3 4 3
21 24 25 26 27 28 29 29 26 17 10 6 5 3 6 5 4 3 2 3 6 5 7 2 5 7 6 4 4 3 8 4 14 6 5 1 4 3 7 3 5 4 5 6 4 4 2
19 22 25 26 25 25 28 28 25 19 11 7 4 3 9 6 3 2 2 4 6 2 3 2 3 3 5 5 5 3 5 4 17 6 8 3 2 2 2 2 2 4 5 4 2 1 6
17 20 23 25 27 26 26 26 24 17 7 5 2 3 5 6 4 3 5 5 4 8 8 7 5 14 4 3 3 4 3 5 8 7 11 7 3 5 5 4 3 3 4 8 9 3 4
14 17 20 23 25 26 24 23 22 17 11 4 5 2 3 3 3 1 2 5 5 6 6 5 4 6 3 3 6 5 3 3 6 3 3 4 3 3 5 7 5 5 8 8 12 18 8
13 14 18 20 22 24 24 21 21 20 9 10 4 4 6 5 5 3 1 4 6 4 5 4 5 2 3 4 2 5 6 3 4 1 3 1 1 2 4 5 7 6 10 11 14 15 18
15 14 15 17 19 21 22 20 18 18 15 9 7 5 4 6 4 2 2 0 4 2 5 5 2 4 7 3 7 7 6 14 7 7 3 5 4 1 4 3 5 5 8 11 5 6 8
22 11 17 15 16 18 18 20 17 14 13 9 9 5 5 4 2 2 1 1 3 3 2 3 6 3 2 3 8 8 8 9 9 4 6 4 4 1 4 4 1 5 2 6 8 7 10
26 11 14 16 15 16 17 16 16 13 10 7 7 4 3 3 5 5 6 1 4 4 3 2 4 4 2 3 3 2 1 1 4 4 6 4 4 2 2 2 6 3 3 4 5 8 5
23 12 12 17 13 13 15 15 15 12 9 7 2 6 2 4 5 5 3 4 3 2 3 1 2 2 2 2 2 3 4 5 3 2 4 4 3 3 2 2 3 3 1 3 4 4 5
22 11 10 15 14 11 13 14 14 13 10 6 1 6 4 5 9 3 4 2 2 3 2 1 2 2 1 2 2 3 3 3 5 6 4 3 3 4 4 3 6 7 3 6 2 5 6
18 11 7 15 14 10 11 10 11 11 12 9 4 4 7 5 22 16 8 5 4 5 4 4 3 1 2 2 3 2 2 2 1 3 5 6 6 4 3 3 7 4 5 3 4 10 9
12 10 8 13 16 12 11 11 8 9 9 11 11 8 9 11 13 15 18 18 16 8 3 11 2 4 6 3 1 1 1 1 2 3 1 3 5 4 7 5 6 4 6 13 12 14 13

GFSGBSN_850_spd_033.txt.gz
Wind_Speed
19 21 23 23 24 23 27 28 29 30 27 27 26 25 24 22 23 24 21 22 20 19 21 22 22 20 17 15 19 2 6 17 25 32 28 20 17 10 6 8 5 3 2 8 15 15 10
20 22 25 24 24 26 27 28 27 29 26 26 25 23 21 19 21 19 19 21 18 19 19 17 22 17 14 11 14 10 3 23 28 29 29 24 14 13 9 3 8 4 11 12 12 13 8
21 25 26 26 25 27 28 28 27 25 24 24 24 21 19 19 19 18 17 18 18 18 17 15 14 12 15 19 9 15 8 23 27 26 29 25 11 12 6 3 6 5 3 1 6 6 5
23 24 26 28 27 28 29 28 28 27 24 24 22 21 19 17 18 18 19 18 18 15 14 13 10 13 8 26 9 16 10 20 22 21 23 23 14 13 4 4 4 5 3 3 3 7 6
24 26 25 27 28 30 28 28 28 26 25 22 23 21 22 21 18 18 17 17 16 14 12 9 14 9 4 11 24 16 16 18 19 21 18 19 19 5 5 5 3 2 4 4 5 7 4
24 25 27 25 29 30 29 28 27 26 27 23 20 22 21 19 19 18 23 17 13 13 8 5 14 6 9 11 25 21 18 13 12 19 16 14 7 4 4 3 8 5 5 2 4 1 4
23 27 29 26 30 30 30 29 27 26 28 25 26 19 17 19 20 27 21 13 1 0 9 7 8 5 2 10 22 23 20 14 8 14 6 11 5 11 11 7 3 5 3 3 3 1 4
25 26 29 27 31 30 31 29 28 27 28 25 27 15 17 19 21 19 21 5 0 1 3 17 5 14 3 18 13 19 17 9 6 3 6 5 9 6 6 6 3 2 0 3 5 1 2
25 27 29 28 30 30 31 30 30 28 28 28 22 15 19 25 23 20 2 2 2 2 1 6 7 6 16 18 9 18 17 6 4 4 3 5 4 9 5 5 4 1 3 3 3 5 2
25 26 28 27 29 30 31 31 29 28 28 23 23 23 26 25 17 4 5 4 6 4 3 4 6 6 15 15 5 19 17 4 3 8 10 4 7 10 7 7 5 4 2 2 3 3 3
24 26 29 28 29 29 31 30 29 29 29 30 25 21 20 7 6 1 3 4 10 2 5 4 6 14 8 2 21 10 13 3 4 5 5 2 5 6 4 4 4 3 3 4 3 3 2
23 24 27 28 27 28 30 30 31 32 30 24 17 14 11 8 9 7 8 11 6 2 5 3 4 8 7 5 5 11 1 6 9 6 7 3 2 4 3 3 3 7 4 6 4 2 2
23 26 27 26 26 27 29 31 33 30 24 17 16 15 16 15 13 13 11 2 3 4 2 4 5 10 10 6 6 3 1 5 3 5 3 5 3 2 6 7 5 4 5 2 4 3 5
21 25 27 24 24 27 29 32 33 26 16 16 15 13 19 18 14 9 4 1 5 4 2 7 13 13 6 5 6 2 4 4 3 6 3 3 2 3 2 4 5 2 5 4 5 1 4
22 23 25 25 25 28 30 31 29 23 11 12 12 15 17 13 10 5 4 4 2 3 2 11 13 9 5 6 3 3 3 3 3 2 5 4 2 1 2 2 4 3 1 2 4 2 3
22 23 24 25 24 25 28 29 28 16 3 5 6 9 11 9 5 4 3 5 4 6 8 5 5 2 3 3 4 2 3 2 4 3 2 5 4 1 1 4 6 3 6 3 3 1 3
23 23 23 25 27 26 26 26 25 17 7 7 8 5 9 10 7 8 3 4 3 7 11 5 3 5 5 4 4 2 6 2 2 3 3 3 4 2 4 3 6 2 1 5 4 3 3
25 27 21 24 29 26 25 25 23 19 13 7 4 3 14 9 5 3 2 3 4 4 2 3 4 5 4 4 3 3 6 3 9 7 4 1 4 3 5 2 3 3 5 5 3 3 2
20 25 22 24 27 26 24 23 23 19 16 11 5 5 12 11 3 3 1 2 2 3 2 3 3 2 3 4 4 2 4 3 10 6 6 4 1 2 2 3 3 3 4 4 4 3 6
19 23 23 24 24 26 24 22 21 19 14 10 4 3 6 8 4 3 4 5 2 2 3 5 4 6 5 2 2 5 3 4 14 9 8 6 3 4 5 4 4 3 5 6 6 3 3
18 21 24 22 22 23 24 21 21 20 12 5 6 3 4 3 4 3 3 3 5 6 6 7 4 5 3 3 3 3 2 2 4 4 4 4 3 2 5 6 3 4 5 7 8 11 5
16 19 23 24 21 20 21 22 18 19 11 9 4 4 7 4 7 5 3 4 4 4 5 4 4 1 2 3 3 5 5 2 2 3 3 0 1 2 4 3 5 5 9 9 9 9 12
14 15 20 25 22 17 19 20 18 16 13 6 6 3 3 5 5 2 2 1 2 1 4 4 2 4 6 3 3 6 7 12 5 6 3 4 4 1 3 4 5 6 11 11 5 5 8
18 11 15 24 23 17 15 18 18 14 12 9 8 4 3 4 2 2 5 4 2 3 3 1 3 2 3 5 9 10 12 8 8 2 5 4 4 2 3 4 1 6 4 7 11 6 12
21 12 12 21 21 17 15 14 15 13 8 4 5 2 2 2 5 7 3 1 1 3 3 1 2 4 7 4 3 2 2 2 3 3 3 4 4 1 1 3 6 4 3 5 5 6 6
20 13 9 16 18 17 13 14 12 14 10 4 5 4 1 2 5 1 4 4 3 1 3 1 2 2 4 2 2 3 4 3 3 2 3 4 5 2 3 2 3 2 1 3 4 4 4
14 13 11 12 16 16 12 13 12 12 12 8 3 5 3 4 7 3 5 3 2 3 2 2 2 2 2 2 2 3 3 4 4 5 5 3 2 6 4 3 6 6 4 7 1 4 3
11 13 14 7 14 16 13 11 11 10 12 11 9 8 7 6 18 16 12 6 3 2 3 4 3 2 2 2 3 3 3 3 2 3 5 6 6 3 4 3 7 6 4 3 4 9 8
12 13 12 8 7 16 17 12 11 10 9 11 12 12 13 11 13 16 18 20 24 16 4 5 2 4 7 3 1 2 2 3 3 3 0 4 6 4 7 5 3 3 7 12 13 11 9

GFSGBSN_850_spd_036.txt.gz
Wind_Speed
22 21 25 26 27 25 28 27 29 29 27 24 24 25 24 22 20 19 20 19 19 21 18 18 17 16 17 8 22 3 2 9 27 29 28 23 23 15 6 8 6 4 2 11 11 9 7
22 24 26 27 30 27 29 27 29 28 27 26 22 23 22 20 19 17 17 16 16 14 14 17 14 18 13 8 18 24 8 14 31 32 31 25 16 14 12 6 6 7 10 7 5 8 6
23 25 27 26 27 28 31 29 28 28 25 24 23 22 21 19 18 16 16 17 15 14 14 13 13 15 17 15 8 9 11 16 31 33 33 26 17 11 9 4 11 5 3 2 7 5 5
22 26 28 28 25 29 32 30 29 27 25 26 23 20 21 22 21 17 17 14 16 14 12 10 7 11 9 22 15 9 11 18 27 29 30 27 11 11 3 6 4 6 3 2 3 8 6
23 24 28 30 26 30 31 31 28 26 26 26 25 21 22 19 17 16 15 20 18 12 10 8 8 8 3 9 20 8 11 22 22 21 22 23 15 7 4 6 4 2 4 4 5 7 3
24 25 29 30 29 31 31 29 28 27 24 27 25 23 23 15 15 16 15 25 10 10 5 4 7 3 5 7 20 14 10 17 23 24 17 19 10 5 3 4 6 6 2 2 5 1 2
25 27 29 30 28 30 30 30 29 30 28 27 27 25 18 14 15 17 19 16 1 3 9 7 5 4 5 10 20 13 13 16 15 22 9 14 6 15 10 5 3 6 4 4 3 0 3
24 25 29 30 30 29 29 30 30 30 30 27 25 22 16 16 17 17 13 2 2 2 2 14 8 18 2 20 12 15 15 8 6 5 7 7 8 7 8 8 6 4 4 2 3 1 1
22 24 27 29 29 28 29 31 30 31 33 31 29 25 21 20 21 18 7 2 5 3 2 4 5 9 7 21 6 12 12 5 5 4 11 6 4 10 8 8 7 2 3 3 2 4 1
25 26 27 29 28 28 29 30 31 34 36 31 27 20 15 12 6 7 3 10 7 6 4 1 2 3 12 14 3 13 11 2 2 8 12 3 2 4 5 6 4 3 2 2 3 3 3
23 24 28 27 26 28 28 31 32 33 30 27 24 20 11 10 8 7 4 4 8 3 5 2 1 13 11 7 15 5 5 4 4 9 3 2 4 10 7 4 7 1 3 4 3 3 3
22 24 26 26 25 28 29 30 25 28 25 25 18 16 12 14 13 10 7 8 5 4 5 0 2 7 6 3 4 7 3 7 8 9 11 4 2 3 3 5 2 8 5 5 4 2 2
20 23 26 26 27 27 28 28 26 22 20 20 15 15 17 15 16 13 6 1 3 5 1 3 4 6 10 5 5 4 2 3 3 5 3 4 2 1 5 6 4 3 5 2 4 3 4
20 22 26 27 25 25 27 27 26 18 16 15 15 15 14 13 8 5 8 2 8 4 5 6 11 13 6 5 5 3 3 3 6 5 3 3 2 1 1 3 5 2 4 4 4 1 3
19 22 25 28 31 25 27 26 25 20 14 10 13 14 14 14 10 8 5 5 3 3 1 9 9 7 5 6 4 4 3 3 2 3 5 4 3 1 3 2 3 3 2 2 5 2 3
19 22 24 25 31 26 25 25 23 19 17 16 14 11 17 18 12 7 3 6 3 2 2 5 5 1 3 3 3 2 1 1 4 2 2 3 4 2 2 4 8 3 6 3 3 2 3
19 19 26 25 28 28 24 24 21 19 18 18 13 4 20 13 10 8 4 3 3 6 3 4 3 4 4 4 3 4 3 2 2 3 6 4 4 1 2 1 6 2 2 5 4 2 3
20 18 23 27 26 28 25 22 22 18 17 17 8 3 18 10 6 3 3 4 4 4 3 4 4 5 4 3 3 2 6 1 5 7 4 1 4 3 1 1 1 2 4 4 4 3 2
19 17 21 27 26 27 28 22 21 19 16 14 5 5 13 10 3 3 3 3 2 4 4 2 2 3 1 4 4 3 3 2 9 3 5 4 2 3 3 4 3 3 4 4 4 3 5
16 17 19 26 27 26 29 26 20 17 13 8 3 3 7 9 6 3 4 3 3 2 2 4 3 3 4 3 4 4 2 3 8 6 7 4 3 4 5 4 3 2 4 5 5 3 3
16 17 17 23 26 28 27 26 22 19 10 4 5 2 2 3 3 4 2 2 2 4 5 3 4 2 5 3 2 3 2 2 4 5 4 3 3 2 4 4 3 4 4 7 7 5 6
15 18 17 21 24 28 27 25 23 19 10 5 3 1 1 3 8 4 4 5 4 2 2 2 5 1 2 4 5 6 6 2 3 3 3 1 3 1 3 2 5 5 8 9 9 6 10
17 20 18 18 22 25 26 23 21 18 14 7 5 4 2 2 2 2 2 4 4 3 5 6 3 2 4 1 1 6 3 8 7 7 3 4 5 2 3 4 5 5 8 13 5 5 9
17 20 19 16 20 23 24 19 19 16 13 9 7 4 3 3 1 3 3 2 3 3 1 4 4 2 3 9 10 11 10 10 8 3 5 4 4 2 3 4 1 5 4 9 11 5 11
16 22 18 12 17 20 21 16 16 16 12 5 7 3 3 3 4 6 2 3 1 2 2 1 2 2 6 1 3 3 1 2 1 2 3 3 4 2 1 3 6 3 4 5 6 4 8
17 18 15 10 15 17 19 15 15 13 13 7 4 3 2 3 3 5 4 3 2 1 3 1 3 4 4 2 2 3 4 4 3 3 3 4 4 3 3 2 3 3 3 4 3 1 2
16 16 13 12 11 14 17 15 13 11 13 12 6 8 2 4 6 3 4 4 2 1 2 1 3 3 3 2 2 3 3 4 5 6 4 4 3 4 4 3 6 6 4 4 1 4 4
18 14 14 14 10 11 14 16 15 10 11 11 10 9 7 5 16 17 10 6 5 3 2 2 3 1 2 3 3 3 3 4 2 4 6 7 7 4 3 3 7 5 5 4 3 7 8
18 14 14 12 13 9 12 13 14 14 11 13 12 12 14 10 13 25 28 23 25 22 6 4 2 4 7 3 1 2 2 1 3 3 0 4 5 5 7 5 3 6 2 10 14 9 8

GFSGBSN_850_spd_039.txt.gz
Wind_Speed
21 24 24 26 25 27 27 29 30 31 28 26 23 24 21 18 16 16 14 14 14 14 13 13 13 12 9 13 14 6 6 6 28 29 29 24 27 18 9 7 8 2 4 9 8 6 4
23 22 25 26 29 26 28 31 31 30 27 25 23 22 19 17 16 15 15 13 12 12 10 10 8 8 10 10 9 24 7 4 30 32 32 25 21 18 13 9 6 11 5 4 8 6 3
23 24 24 28 30 27 30 31 31 30 27 25 23 21 20 15 17 17 14 13 12 10 11 9 8 8 13 18 6 19 25 15 27 34 35 23 17 19 13 5 9 10 4 2 7 4 3
23 25 26 28 30 28 29 31 31 29 27 25 23 23 19 17 17 14 12 11 13 13 9 8 6 8 8 16 16 10 17 12 26 32 34 26 26 14 6 12 5 5 3 4 2 9 8
23 24 26 29 28 30 29 30 32 31 28 28 25 24 19 21 13 11 12 15 18 10 7 6 5 7 5 8 21 8 5 14 27 30 31 26 20 6 7 6 4 2 4 5 3 9 3
23 25 26 29 28 30 28 29 28 28 30 31 26 23 21 20 9 11 12 16 8 4 4 5 4 4 7 7 18 17 10 14 24 26 23 20 10 4 3 4 8 6 4 3 8 2 3
23 26 27 29 28 27 29 30 28 32 35 35 31 20 18 15 9 10 12 7 1 4 11 4 6 4 9 9 17 16 9 18 22 24 6 14 4 14 10 4 4 7 5 4 2 2 1
23 25 28 29 26 29 28 27 32 34 36 34 30 25 18 13 12 12 8 4 2 3 1 8 8 13 6 9 11 12 10 9 10 12 7 6 8 8 9 5 6 5 5 3 1 3 0
23 24 27 28 25 27 28 31 31 33 33 35 31 25 15 9 9 11 6 3 5 3 2 5 1 4 1 11 8 8 10 7 6 5 12 11 6 12 11 6 6 2 4 3 2 2 2
23 24 26 27 25 27 29 30 30 29 31 30 27 25 20 7 8 13 7 6 5 4 4 3 2 3 8 11 5 6 5 3 4 10 8 3 4 13 12 11 7 4 2 4 4 3 1
24 23 26 28 26 27 28 29 28 26 26 26 24 21 20 17 10 14 7 3 4 2 5 5 4 3 13 6 10 4 3 8 5 10 5 3 5 8 9 6 5 4 5 4 3 4 2
26 24 27 28 27 26 28 28 27 24 22 21 20 21 17 18 14 12 9 5 1 5 6 4 6 8 5 5 4 3 6 10 7 12 11 4 4 4 2 7 5 6 5 6 4 2 0
25 24 27 29 28 27 27 28 24 21 19 17 18 18 17 13 10 7 5 4 4 6 1 3 3 4 3 5 6 2 2 4 2 4 3 4 5 4 4 7 6 0 4 1 2 1 3
23 25 26 28 30 28 27 26 21 18 16 16 17 16 16 16 12 8 9 3 9 5 5 4 5 9 5 5 6 4 3 3 5 7 3 3 4 4 5 3 6 5 3 3 4 3 2
24 24 27 27 29 31 28 26 22 17 16 17 16 13 19 20 14 8 4 6 2 1 4 7 6 7 5 5 4 4 3 1 2 1 4 4 3 1 4 2 2 4 2 3 6 1 1
21 24 25 27 28 29 30 27 25 19 16 17 14 7 24 19 13 6 3 6 3 2 3 4 4 2 3 3 3 2 1 1 3 2 1 3 5 2 2 4 9 2 5 3 2 3 3
19 23 23 26 28 29 29 29 28 23 18 14 11 3 19 13 12 10 4 3 3 4 3 2 3 4 3 4 3 2 1 1 1 2 4 4 3 0 2 1 5 2 1 5 4 1 3
18 21 21 24 27 29 29 30 27 26 19 14 6 3 13 10 7 3 3 3 4 4 3 2 4 3 4 4 3 2 3 1 3 5 3 1 4 3 2 1 1 2 4 4 3 4 1
17 20 22 22 25 29 29 30 29 23 19 15 4 3 12 8 3 3 4 3 2 5 4 3 2 2 1 3 3 2 3 2 4 2 5 4 2 3 4 3 2 3 3 3 4 3 5
16 18 20 24 26 27 30 28 29 24 16 9 3 2 6 9 5 2 4 3 4 2 2 4 2 3 3 4 5 3 2 3 5 2 7 6 3 4 5 3 4 3 4 5 5 3 3
12 17 19 22 26 27 29 30 26 25 14 5 4 2 1 1 2 2 1 2 2 3 4 3 3 2 3 3 2 2 2 3 2 5 3 3 3 2 3 3 3 4 4 8 7 4 5
11 17 20 21 24 27 27 29 26 22 15 5 3 2 2 1 3 1 0 1 1 2 1 2 5 3 2 4 5 7 5 2 3 1 3 2 3 1 2 1 4 4 7 8 10 4 8
15 17 19 18 21 24 25 26 25 20 15 7 5 4 2 2 1 1 2 2 1 2 1 3 1 1 3 1 3 4 3 7 7 7 3 4 5 2 3 2 4 6 9 12 6 5 9
14 16 20 20 16 20 21 21 22 18 14 11 9 4 3 2 1 1 4 4 1 0 2 1 3 3 3 9 12 12 12 11 7 3 5 5 4 2 1 3 1 4 4 6 13 5 11
16 17 19 20 11 16 18 19 18 15 14 7 6 4 2 3 3 5 2 3 6 3 0 2 1 4 9 2 3 3 1 2 3 2 3 2 4 2 1 3 5 1 3 6 5 2 11
15 16 21 14 11 13 15 17 15 16 15 11 9 3 1 3 3 3 2 2 1 1 3 1 3 6 6 2 2 3 4 4 3 1 4 4 4 3 2 2 3 3 3 5 2 2 5
15 18 19 15 14 10 13 14 15 14 14 12 9 8 1 3 5 4 4 3 2 1 2 2 4 5 5 2 2 3 4 4 5 6 4 3 2 5 4 3 6 5 6 10 2 3 3
16 17 15 16 15 11 13 15 12 15 14 12 11 10 9 5 14 12 10 7 4 4 3 1 2 2 2 4 4 3 3 5 3 4 5 8 6 3 3 4 7 6 5 6 3 4 6
19 15 13 16 18 16 10 14 12 13 14 13 12 11 14 10 12 29 32 30 24 20 5 4 3 3 8 3 1 3 3 2 4 3 2 5 6 5 7 5 4 9 1 3 9 10 4

GFSGBSN_850_spd_042.txt.gz
Wind_Speed
23 22 24 25 27 28 25 28 28 29 27 27 25 22 20 17 14 13 12 11 10 10 10 10 11 10 7 7 16 12 12 18 26 24 25 24 30 23 17 15 13 14 7 9 8 10 8
23 23 25 25 28 25 27 28 27 30 29 27 26 20 18 17 14 12 12 12 9 9 8 9 7 7 7 11 11 18 7 7 26 28 27 24 25 19 18 13 15 15 5 15 11 8 6
22 24 25 25 28 23 28 28 29 28 28 26 24 24 20 17 11 12 11 6 6 7 8 6 6 7 11 16 13 20 25 11 17 28 29 23 18 19 12 8 10 8 15 7 11 12 9
21 24 26 27 27 27 28 27 27 29 29 28 28 23 21 14 13 12 7 7 10 7 8 6 9 8 9 11 14 7 17 18 14 27 27 19 19 18 11 7 11 11 7 11 12 16 6
23 24 25 28 27 25 28 26 26 29 32 30 28 23 21 13 16 7 5 8 10 14 8 6 6 7 5 13 16 12 17 14 18 28 25 20 24 21 7 13 8 14 11 17 5 10 11
24 23 27 28 24 27 26 24 29 27 30 31 30 24 12 9 7 5 4 8 5 4 7 5 5 5 9 15 14 13 11 12 25 27 22 20 15 13 13 14 15 17 17 13 14 5 9
26 24 25 27 24 26 26 28 26 30 32 31 33 26 15 10 4 5 2 2 2 3 6 4 5 4 9 11 15 14 6 13 23 24 10 23 7 16 21 18 3 10 16 10 9 4 5
27 24 26 26 25 26 25 25 28 28 30 32 29 28 17 5 2 6 1 2 1 2 3 5 5 11 11 8 6 11 12 12 14 19 14 9 15 14 13 12 9 14 14 10 5 4 4
28 25 25 26 24 23 25 25 27 26 26 31 31 26 20 13 6 4 7 2 3 1 3 4 3 5 2 10 9 8 3 5 18 18 19 15 12 14 14 12 11 9 12 9 3 5 1
26 25 26 26 25 24 25 25 25 22 22 24 28 27 21 10 15 13 8 4 2 1 2 4 1 0 6 8 6 4 6 6 5 6 10 8 2 17 18 15 13 9 4 7 5 4 4
25 24 26 27 27 25 24 25 23 19 17 18 22 24 22 18 10 13 8 4 1 4 3 8 4 3 8 5 12 6 9 5 9 6 4 3 7 18 18 19 13 4 7 8 3 2 2
24 24 25 26 28 26 24 22 19 16 12 13 17 17 15 13 12 10 8 4 0 3 8 4 6 6 5 4 3 7 5 13 9 8 11 4 6 3 3 9 7 15 10 7 3 1 3
23 24 25 26 27 29 24 21 19 16 12 11 13 13 14 13 6 4 4 2 2 6 3 6 4 5 6 4 6 5 4 5 3 4 3 3 3 3 3 10 6 6 10 3 3 3 2
22 22 24 25 25 28 29 23 19 20 16 15 12 8 12 13 9 6 3 3 9 6 5 2 4 12 5 4 5 3 7 3 4 3 3 3 4 4 2 2 5 5 4 2 4 5 3
20 21 22 26 25 26 28 28 21 21 20 16 9 6 13 14 9 4 1 7 3 2 2 6 8 7 3 6 5 4 3 2 2 2 2 4 4 3 6 6 4 5 4 1 4 1 2
19 21 21 25 27 27 27 30 28 21 20 15 7 2 16 14 10 6 2 5 1 1 2 2 2 1 4 3 3 4 3 1 3 1 2 3 5 2 4 1 8 1 7 2 0 4 4
17 19 21 23 27 30 29 28 31 26 21 14 6 2 12 10 10 8 4 3 3 3 2 3 2 2 4 3 2 2 2 2 1 2 3 5 2 2 3 3 6 4 3 2 2 1 2
17 19 19 23 26 30 31 31 29 31 21 14 3 1 9 5 3 3 2 2 4 3 2 2 3 3 3 2 3 2 3 1 2 3 3 2 4 4 2 2 3 2 3 5 3 5 0
15 18 19 22 26 28 32 31 29 28 24 16 5 2 8 2 3 2 1 1 2 2 3 1 2 0 1 3 2 2 2 2 3 1 5 5 3 4 2 1 1 5 6 4 4 2 5
15 16 19 22 27 29 31 32 29 25 22 12 4 1 4 7 5 2 2 1 1 1 1 2 3 2 4 2 3 4 4 2 0 2 4 3 3 1 3 3 4 4 9 10 5 4 5
15 15 19 21 23 28 31 32 27 23 20 9 5 2 2 1 3 3 0 0 1 1 0 1 2 2 3 3 3 4 3 3 2 3 2 1 2 1 1 1 3 3 6 13 10 9 6
15 16 17 20 21 26 28 29 26 20 18 6 4 3 3 1 1 1 1 1 0 0 1 1 2 5 3 2 2 6 6 4 3 4 3 1 3 1 2 1 6 8 11 12 15 15 14
14 14 17 21 21 20 23 25 24 20 16 6 4 3 2 0 2 3 3 2 1 1 1 2 3 3 3 1 1 1 5 6 5 7 6 4 5 2 1 0 4 8 17 19 11 10 15
12 15 19 25 17 14 18 23 21 21 16 9 7 3 2 1 3 1 1 1 1 1 1 1 0 0 5 12 11 8 8 8 7 3 6 6 5 2 1 2 4 2 3 5 18 11 16
12 16 18 20 16 13 14 18 19 19 18 10 7 3 2 3 3 4 2 3 4 1 2 1 0 2 13 3 3 3 2 2 3 3 4 4 4 2 2 4 9 5 4 6 6 6 17
10 14 17 18 16 14 13 15 17 18 18 12 10 6 1 3 1 1 3 2 2 3 2 2 2 6 6 1 2 4 4 3 4 3 3 4 3 4 3 3 4 3 5 6 4 4 5
7 13 16 14 14 14 14 13 16 13 16 14 10 9 4 3 3 4 3 3 2 2 1 1 4 4 4 3 4 4 4 1 5 6 5 5 3 9 7 5 6 4 7 5 3 4 1
10 13 16 12 12 15 16 13 15 10 13 13 11 9 9 5 13 11 10 5 4 4 2 2 3 3 3 6 5 4 5 6 4 5 6 9 6 4 6 5 7 7 5 4 5 4 5
11 16 16 13 12 14 16 12 15 8 10 12 11 12 13 9 11 19 23 22 20 16 5 3 3 1 5 5 3 2 3 3 5 4 3 7 6 4 7 4 1 9 2 5 3 4 5

GFSGBSN_850_spd_045.txt.gz
Wind_Speed
22 23 25 25 25 24 24 26 27 28 26 27 26 26 23 18 15 13 11 11 11 8 8 8 9 12 8 13 18 7 20 17 24 23 23 20 28 25 19 20 17 15 10 20 9 7 10
22 24 26 24 25 25 24 25 28 28 28 30 28 26 24 20 15 13 11 10 7 7 8 7 6 10 11 14 9 10 16 12 26 25 26 24 25 24 13 10 20 13 16 12 13 10 9
22 23 23 26 27 22 28 27 25 28 30 31 28 27 22 17 12 11 11 9 6 7 7 6 6 8 13 17 7 21 12 6 22 28 28 25 19 23 7 8 15 15 17 9 16 14 7
24 23 24 26 26 24 27 23 29 28 30 31 30 28 22 13 12 10 10 8 7 10 9 5 8 7 11 14 17 12 18 10 11 27 24 21 17 22 7 6 11 12 12 14 12 13 10
25 24 25 26 24 24 24 27 25 27 30 30 29 28 17 8 6 9 5 5 8 11 10 6 6 7 9 5 18 20 15 11 12 23 21 17 15 21 11 12 11 13 12 18 13 20 10
25 23 25 27 26 25 23 24 24 26 27 30 29 27 16 3 3 4 4 3 3 5 7 4 4 5 13 9 16 16 13 14 21 23 19 14 11 12 12 14 15 18 19 19 17 10 15
27 24 24 26 25 24 23 22 24 25 26 29 31 25 15 5 3 5 2 1 2 3 7 1 2 8 6 10 14 14 13 15 24 23 12 16 8 19 25 23 17 13 17 16 12 7 8
26 25 24 26 25 24 24 22 23 24 24 26 29 25 17 6 3 4 2 3 6 3 2 3 6 8 11 7 12 13 11 4 16 16 17 7 9 18 19 18 16 9 13 14 4 10 6
25 26 25 26 27 25 24 22 21 22 19 21 24 24 15 14 3 3 4 2 3 3 2 4 3 7 6 6 10 10 7 5 9 21 19 15 7 16 15 15 13 13 13 13 6 9 8
23 26 27 26 27 26 26 23 24 21 14 16 18 19 17 6 5 8 5 5 3 2 2 1 3 2 1 7 5 13 7 4 2 17 16 9 8 15 18 19 15 12 4 7 6 9 6
22 25 28 27 27 27 26 26 23 23 17 13 13 14 13 9 1 4 5 4 3 2 2 2 3 2 6 4 14 7 13 6 3 9 3 5 15 17 16 17 15 4 10 7 3 4 4
20 24 27 28 28 28 28 27 27 24 21 18 14 10 9 6 4 1 2 1 3 3 8 5 3 4 7 7 4 6 5 7 7 7 9 4 5 4 3 2 8 13 13 8 3 1 4
19 22 25 27 29 29 28 29 28 27 26 20 13 7 5 5 4 7 7 3 2 6 1 6 4 4 5 4 4 6 5 4 4 4 3 4 4 4 2 11 8 8 13 4 4 4 4
18 19 22 25 28 28 30 30 30 28 27 21 9 5 7 5 5 2 2 2 9 5 7 4 5 9 4 2 4 1 6 7 3 6 3 2 3 2 4 2 7 12 15 3 6 6 7
16 19 21 22 27 30 30 32 33 32 27 20 8 4 7 10 4 3 2 6 3 2 1 5 7 5 3 5 5 3 1 4 5 2 2 4 4 1 3 3 4 3 6 2 2 2 1
14 17 21 21 24 30 32 33 34 33 29 20 8 5 5 8 4 6 2 4 2 1 2 4 2 3 6 5 3 4 2 3 3 2 3 4 6 6 8 7 0 3 3 2 2 4 5
15 16 19 22 24 27 30 34 33 33 31 19 5 4 7 6 6 2 4 1 4 2 2 3 2 2 3 4 2 2 1 3 1 3 1 4 3 5 5 7 9 5 4 3 3 2 3
15 17 18 21 27 27 30 34 34 30 30 19 4 3 8 3 1 1 4 3 1 3 2 2 2 3 3 4 4 2 3 2 3 1 3 3 4 4 2 2 4 5 6 9 4 5 1
15 16 17 20 24 29 29 32 33 27 27 20 10 5 6 1 0 3 4 4 1 1 2 2 2 2 2 4 2 4 3 2 2 1 2 4 4 4 2 3 3 5 8 7 2 3 5
14 16 18 21 22 26 29 31 31 24 21 13 6 3 1 0 2 2 4 4 4 2 1 0 2 2 5 4 1 5 5 2 1 2 4 1 2 2 2 3 3 5 10 11 8 4 5
14 17 19 20 21 25 27 28 27 22 17 8 4 2 3 2 1 1 2 1 3 4 2 3 3 4 3 3 4 3 5 5 3 3 1 2 1 1 2 1 2 3 7 13 13 11 6
14 16 18 21 24 18 21 26 28 20 14 6 5 5 6 5 4 4 2 2 1 2 2 4 3 5 5 2 2 4 7 7 6 8 5 3 2 1 3 3 6 9 11 11 15 15 17
14 15 18 20 18 16 18 23 26 23 16 7 7 5 4 2 2 4 1 2 1 1 1 3 1 3 4 2 1 2 3 3 1 6 9 5 5 3 1 0 5 10 19 19 15 11 15
10 13 16 17 16 16 17 20 21 24 19 10 8 5 4 2 4 3 4 3 3 1 2 3 2 3 3 5 7 6 4 3 4 3 6 6 5 3 1 2 4 1 2 2 19 12 15
8 11 14 16 16 15 13 18 18 20 19 10 13 5 4 4 6 7 4 5 6 5 4 3 1 2 6 2 4 4 3 4 4 4 6 7 7 2 2 5 10 10 6 5 8 7 18
4 8 13 14 14 15 15 13 16 13 16 12 12 11 2 6 4 5 5 4 5 6 4 3 1 4 5 1 2 3 4 4 4 5 4 6 7 4 3 3 4 4 3 4 3 3 8
4 10 15 17 14 15 16 16 12 14 14 12 10 11 4 5 5 4 3 4 4 6 4 2 4 4 3 5 4 3 4 1 4 5 6 7 6 9 8 4 7 0 6 5 3 4 8
7 10 15 13 15 14 13 15 14 12 11 12 9 9 8 5 14 8 7 8 7 6 5 4 3 5 5 6 4 4 7 6 5 5 6 10 6 6 7 5 7 7 6 4 7 6 5
7 13 15 14 8 9 12 14 14 12 11 10 9 13 11 9 12 21 22 18 15 11 6 4 5 4 2 5 6 4 4 3 7 5 8 6 7 3 6 4 3 9 4 5 4 4 2

GFSGBSN_850_spd_048.txt.gz
Wind_Speed
22 22 24 25 24 24 26 26 27 26 29 31 31 28 26 24 18 13 11 9 8 8 7 7 6 7 8 6 17 7 13 23 22 27 22 18 28 24 13 17 13 17 12 23 28 8 3
22 23 24 25 27 23 24 21 26 27 28 32 32 29 27 21 13 10 9 7 8 7 7 5 4 6 10 10 9 9 10 21 26 32 25 21 26 23 14 12 15 12 18 15 18 7 1
22 22 24 25 24 24 24 25 25 25 30 32 34 31 29 20 7 8 6 8 6 4 5 6 4 5 10 17 2 11 13 18 25 30 27 23 19 22 5 8 20 6 6 12 6 8 2
24 24 23 25 25 24 24 23 23 26 29 32 35 32 25 15 5 5 6 7 5 7 9 9 4 4 8 9 12 7 17 8 5 27 25 23 16 13 1 2 5 8 4 9 9 12 6
25 24 26 26 24 25 24 25 23 26 28 31 35 29 22 10 4 4 4 1 4 9 9 4 3 5 6 2 16 12 13 8 8 24 23 20 12 5 10 6 4 7 8 11 10 16 6
25 25 27 28 26 25 25 25 23 25 25 27 32 26 20 9 7 6 3 3 4 7 7 2 4 3 8 4 9 14 19 9 10 28 16 18 8 4 5 8 10 16 16 13 13 13 13
24 26 28 28 26 26 25 24 22 23 25 23 27 27 20 11 7 5 5 7 5 1 4 1 5 6 10 10 11 17 15 8 14 20 6 11 5 15 20 17 6 9 11 13 13 9 12
22 26 28 29 27 26 25 24 22 20 23 21 20 24 21 11 5 4 7 3 4 2 3 3 5 5 9 4 6 10 10 6 9 12 10 6 12 10 12 12 15 9 6 14 3 8 5
20 24 27 29 27 27 28 25 24 23 20 17 19 16 15 14 10 4 4 2 2 4 2 5 4 5 1 4 7 6 8 1 13 16 13 9 6 11 16 13 13 12 8 7 4 6 1
20 23 26 28 28 27 28 29 28 23 22 20 15 14 11 6 7 6 4 3 2 4 1 5 5 3 2 4 7 9 9 4 2 14 12 5 5 10 9 15 14 11 7 7 6 5 3
18 21 25 26 26 28 29 30 30 28 24 21 17 10 8 2 3 2 4 2 2 6 2 4 6 8 1 2 12 9 9 7 3 8 4 2 7 8 8 12 9 6 9 7 4 2 4
18 20 24 24 27 28 29 31 31 30 28 23 17 9 5 3 4 5 3 1 4 1 7 3 1 4 3 4 6 6 6 9 4 6 9 4 6 2 3 6 3 8 9 8 3 0 2
17 19 21 22 26 27 30 33 33 32 32 25 14 8 6 3 1 9 6 1 2 5 3 3 1 5 7 2 5 1 4 4 2 6 3 4 3 2 2 5 2 7 9 3 1 1 4
15 18 21 21 24 27 30 31 35 34 31 24 13 5 8 3 7 3 3 3 5 3 5 3 2 6 3 1 4 5 8 3 6 7 3 3 3 2 4 1 5 5 7 3 5 4 4
14 17 21 21 22 27 29 32 34 34 31 23 12 5 8 13 7 5 2 3 2 2 3 2 5 3 4 3 3 6 7 5 5 3 3 4 3 2 1 4 5 3 1 3 3 3 3
13 16 20 23 24 27 30 32 34 34 30 23 10 3 1 11 2 4 1 4 2 4 4 4 1 1 4 6 5 6 2 4 7 7 8 7 5 1 4 3 5 3 4 3 1 2 4
13 16 18 21 26 28 30 33 34 32 29 23 5 5 1 10 3 2 2 2 6 1 3 4 3 2 3 3 2 2 5 2 3 4 5 3 4 6 5 4 5 1 1 4 2 2 2
12 16 17 21 25 27 31 34 33 28 26 20 5 2 5 6 3 5 2 4 1 1 1 1 2 5 1 3 1 2 6 5 3 1 3 3 4 3 2 6 7 6 6 3 3 4 1
13 17 18 21 23 27 29 29 31 24 22 20 7 4 4 2 2 2 1 3 2 2 1 1 2 2 2 2 1 3 5 0 2 3 2 4 3 3 2 2 4 4 7 8 0 3 3
15 18 19 21 24 26 25 30 30 23 18 10 4 3 2 2 3 4 4 4 3 1 2 2 2 2 4 3 2 3 5 2 1 4 2 2 2 2 2 2 3 4 7 8 5 3 3
13 16 17 20 22 20 22 27 29 23 14 5 3 3 3 3 3 6 2 3 4 3 3 2 3 6 4 3 4 4 7 4 4 4 1 3 3 3 2 4 4 2 5 8 7 6 4
11 13 16 18 18 18 21 25 27 25 11 8 5 5 7 8 4 5 4 3 2 2 2 4 4 4 3 2 2 3 5 5 4 5 4 2 2 2 2 4 2 5 7 8 9 10 10
9 11 13 16 17 19 18 21 24 28 19 8 8 4 3 10 1 3 4 5 4 2 2 5 8 2 4 6 8 6 5 4 3 6 6 5 4 2 0 3 3 6 14 16 11 9 15
6 9 11 14 17 18 18 18 21 20 20 11 11 7 4 3 3 4 6 5 6 3 5 4 4 3 2 2 4 3 2 3 1 1 1 3 5 3 1 1 1 5 2 2 18 9 10
5 6 10 16 16 16 18 17 14 18 18 12 13 7 4 3 11 8 11 6 10 7 4 4 4 3 4 1 3 3 2 2 4 2 5 5 4 2 2 3 8 6 5 3 5 8 14
3 5 12 18 16 16 17 16 11 13 15 12 13 12 2 4 5 8 8 7 3 5 4 4 1 3 1 2 1 1 3 5 4 5 3 3 4 3 2 3 3 2 3 1 2 3 5
2 7 11 16 14 15 12 14 14 11 10 16 9 11 4 4 3 9 4 5 7 7 3 2 3 2 2 1 2 3 2 2 3 4 4 3 3 6 5 3 6 2 7 4 1 2 10
3 6 12 13 13 10 10 12 12 16 10 12 9 9 8 4 15 5 5 5 8 7 3 8 3 3 2 2 2 3 3 4 3 5 6 7 5 4 4 3 6 12 5 2 5 9 10
3 6 11 9 11 11 11 13 12 14 13 14 11 11 13 7 11 20 22 25 19 13 6 5 3 5 7 3 2 2 2 2 4 3 6 4 6 4 6 5 4 9 0 11 10 9 7

GFSGBSN_850_spd_051.txt.gz
Wind_Speed
23 24 22 23 22 21 22 23 23 22 25 30 31 32 29 25 15 7 7 5 5 5 6 6 4 3 6 4 17 6 2 28 30 30 30 23 29 17 7 7 14 7 8 18 17 16 13
24 23 21 24 24 22 21 21 21 22 27 29 32 31 26 20 10 4 3 2 4 4 3 5 4 3 7 6 4 10 6 23 32 33 32 28 22 23 15 15 7 13 16 8 2 16 14
25 25 24 24 24 23 22 22 21 21 26 27 32 29 25 18 7 3 1 4 3 3 5 5 4 1 6 17 6 2 2 19 27 33 33 27 22 24 12 5 16 10 7 4 10 13 5
24 26 24 25 25 23 23 22 22 21 24 25 30 28 22 16 10 5 3 6 1 5 7 7 4 2 8 4 11 6 2 13 26 30 29 29 23 18 1 5 10 5 6 7 9 9 4
22 25 25 25 25 25 24 23 21 21 23 24 27 28 19 15 11 7 5 4 5 7 6 2 2 2 8 8 10 8 5 8 8 32 26 24 14 5 10 6 5 5 5 8 10 15 6
21 24 26 26 24 26 25 23 23 21 22 22 22 25 15 13 10 9 8 6 7 7 9 6 3 3 4 5 5 8 8 8 4 30 23 20 8 3 5 6 13 16 10 7 9 9 6
20 23 26 27 25 27 27 26 23 23 21 20 19 20 17 10 8 7 8 5 3 4 1 1 4 7 8 11 5 10 12 7 5 21 10 19 6 13 12 3 5 7 8 3 7 6 8
19 22 25 25 26 27 28 28 27 23 22 18 15 16 14 9 5 3 4 4 5 2 5 2 5 6 6 1 2 10 11 7 4 8 11 6 5 5 8 6 6 4 7 11 1 5 12
18 20 22 24 25 26 27 29 28 27 23 20 15 9 11 7 5 3 4 2 3 4 3 4 6 3 2 5 7 9 6 3 10 8 11 8 7 7 8 5 8 6 6 5 6 3 4
16 19 21 22 23 26 28 29 30 30 28 22 16 9 7 5 2 4 4 1 3 7 2 11 8 7 3 2 3 3 9 5 2 7 9 2 5 7 7 8 5 4 5 4 12 6 4
15 18 20 21 22 24 27 30 30 30 29 27 18 8 2 8 4 4 6 3 4 2 5 8 6 3 4 3 9 9 12 2 6 10 1 2 3 4 3 2 4 5 5 7 4 4 4
14 16 19 21 22 24 26 29 30 30 29 29 16 7 1 3 4 5 5 5 6 4 4 1 4 3 7 8 4 6 5 3 6 6 8 4 4 4 3 3 3 2 8 8 5 3 1
13 15 17 21 23 23 24 27 30 30 29 27 15 4 3 1 2 5 5 2 4 5 4 2 3 0 2 4 4 3 3 5 3 4 2 2 3 2 3 4 5 3 7 2 2 1 5
12 14 17 20 24 26 26 28 31 32 27 24 13 0 5 1 2 1 6 1 8 3 3 2 2 4 3 1 3 4 4 3 3 4 4 4 4 2 1 4 3 7 5 5 6 4 4
11 14 17 20 24 27 29 31 30 31 25 21 9 1 4 5 4 8 4 5 4 3 3 2 1 2 2 3 5 6 1 4 3 3 5 4 2 2 0 2 3 3 3 2 2 2 3
11 14 18 20 24 28 30 33 32 29 22 18 4 1 2 5 3 6 3 4 3 4 3 2 3 0 1 3 2 7 7 4 5 5 3 5 5 1 2 1 2 2 2 2 2 2 4
10 14 17 20 25 28 30 30 31 29 22 14 3 0 2 2 5 2 3 4 4 5 1 0 4 1 3 3 4 3 3 4 6 9 8 7 3 3 5 5 5 4 2 3 2 4 3
10 15 17 20 24 28 26 28 29 27 22 12 2 2 1 1 2 3 2 4 2 1 3 3 1 2 1 1 2 1 4 1 3 7 6 5 4 3 4 4 8 2 4 4 4 4 2
10 14 17 20 24 24 24 26 27 25 21 16 5 2 1 2 1 1 3 2 1 1 0 2 1 1 1 2 2 3 4 2 4 2 5 4 2 3 3 1 6 4 5 4 2 1 4
10 14 17 20 21 22 23 25 25 23 16 10 3 3 1 5 3 2 4 5 4 3 2 2 1 2 1 1 1 3 2 1 2 2 2 2 3 5 7 4 5 5 11 11 6 2 3
8 11 14 17 19 21 23 25 26 24 14 4 5 3 3 2 3 3 1 1 3 4 2 3 2 4 4 3 4 4 3 2 2 2 1 3 3 2 2 3 3 3 5 13 10 8 5
6 9 12 15 18 20 22 24 26 25 14 8 5 5 7 6 11 3 1 3 2 2 4 4 3 6 4 2 2 4 6 4 4 2 3 2 2 2 3 4 2 4 7 7 8 10 7
4 6 9 14 17 18 21 22 23 23 22 9 7 2 2 6 5 1 2 3 4 3 1 3 2 2 2 2 2 5 4 3 7 7 5 4 4 2 2 2 3 7 13 15 7 6 13
2 3 8 14 17 15 19 18 17 21 21 17 14 5 4 3 3 4 6 5 7 5 0 3 5 1 1 1 3 3 6 7 6 4 6 5 6 3 3 2 1 6 3 8 16 9 9
1 2 7 13 17 15 16 18 13 15 18 15 18 10 6 3 8 6 12 4 8 8 3 1 2 2 2 1 2 2 1 1 3 1 1 2 4 2 2 3 7 3 3 5 6 7 13
1 2 7 14 14 12 13 15 18 17 12 17 13 14 4 3 3 6 4 6 2 4 4 3 2 3 1 2 2 3 3 4 3 3 1 2 3 4 1 3 4 3 1 3 3 5 2
3 1 6 10 10 10 11 12 12 15 13 13 12 13 7 5 3 11 3 4 6 4 3 3 3 1 1 1 0 2 3 2 3 5 4 2 1 5 4 3 6 6 4 3 3 4 4
4 2 5 6 8 10 9 10 11 14 14 15 11 10 11 6 18 4 5 4 6 3 2 6 2 2 1 2 3 3 3 4 2 4 6 6 5 3 4 3 7 4 4 3 3 2 9
3 3 6 6 7 10 7 8 10 13 15 13 9 11 11 10 13 24 19 17 19 11 7 3 3 3 4 2 1 2 2 1 5 3 1 3 6 4 7 5 6 12 1 6 9 9 7

GFSGBSN_850_spd_054.txt.gz
Wind_Speed
22 22 22 21 20 20 19 18 17 18 22 24 28 29 24 19 13 5 3 1 1 2 3 4 3 3 6 4 19 6 9 14 29 28 27 22 26 19 5 6 12 3 15 15 16 19 25
21 22 21 22 21 21 18 19 18 17 20 24 27 28 21 17 10 6 4 3 2 1 1 4 3 3 6 8 6 14 11 20 37 34 30 25 20 17 13 7 12 10 3 15 10 16 18
21 23 23 22 21 21 21 19 17 17 20 23 24 26 17 14 9 5 4 4 1 1 3 3 4 3 8 15 7 7 8 18 31 32 32 29 11 16 13 4 13 7 7 5 9 12 9
20 23 23 25 21 21 20 21 19 18 17 20 21 23 17 12 10 4 4 5 5 5 7 4 3 4 6 13 10 8 5 13 25 27 30 28 18 20 4 6 8 5 5 5 5 12 12
18 21 23 25 23 21 21 21 20 19 18 17 19 19 15 12 9 9 6 5 6 8 4 4 3 3 7 5 5 4 0 4 20 28 26 29 19 10 6 7 4 3 6 7 7 14 6
16 19 23 24 23 23 23 23 21 20 20 17 15 16 15 9 6 7 5 4 6 8 7 4 4 4 4 6 5 2 5 3 11 28 23 18 9 4 4 6 16 14 6 7 9 13 6
15 18 21 22 22 22 23 24 24 23 21 19 14 12 11 8 4 4 5 2 2 2 4 1 5 5 9 10 4 6 4 10 13 23 6 19 6 14 9 4 6 8 6 6 3 4 7
14 16 18 21 21 23 24 25 24 25 24 22 17 9 7 7 4 4 4 4 5 2 4 6 7 6 3 3 2 5 13 7 7 15 13 7 8 4 8 2 4 9 8 6 2 3 8
14 15 16 19 22 21 24 24 25 25 25 24 20 11 6 3 3 2 4 3 5 2 0 3 5 5 4 3 5 4 5 4 14 11 17 10 7 8 8 3 4 2 5 4 4 3 2
14 15 16 17 20 23 22 24 25 26 26 25 20 12 5 2 2 1 3 1 0 6 3 7 6 6 5 2 5 4 3 6 4 14 10 6 6 7 8 4 4 2 5 5 6 5 4
13 14 17 18 18 21 23 26 26 26 26 24 19 10 5 3 3 3 4 2 4 0 5 5 5 10 9 4 4 7 8 12 7 9 4 1 4 9 5 3 5 5 3 7 4 4 3
12 13 16 19 22 21 23 24 28 27 24 22 17 7 5 3 2 3 3 3 3 5 1 1 5 1 4 3 2 5 7 11 3 8 8 4 4 4 2 2 3 4 6 8 5 3 1
11 13 17 20 21 24 26 24 26 28 23 21 14 3 4 4 2 3 5 3 4 5 3 4 3 4 7 3 4 3 1 3 3 4 4 4 4 2 2 5 4 4 5 2 1 1 8
10 12 15 20 22 25 29 29 27 26 21 17 9 3 3 2 1 1 4 3 7 4 3 0 1 5 3 4 4 2 5 2 3 5 4 5 3 1 2 2 5 3 4 5 6 4 4
10 11 15 19 23 26 28 27 26 26 19 15 2 4 0 4 4 4 2 4 7 5 4 4 2 2 0 2 5 3 2 6 4 7 5 4 2 1 2 2 2 3 5 4 4 2 3
10 11 15 19 23 26 25 25 26 26 19 10 2 4 1 3 4 3 3 3 2 3 2 3 3 6 3 5 5 5 4 4 5 5 6 6 4 3 3 3 2 1 1 1 2 3 4
8 10 15 19 22 24 23 24 26 26 19 9 5 3 1 3 4 1 2 5 3 6 3 2 2 2 3 4 5 5 8 4 6 7 8 6 4 4 5 7 10 5 4 4 2 4 4
8 11 15 18 21 22 21 23 24 25 19 6 3 3 1 2 2 3 1 4 2 3 3 3 1 2 0 2 2 2 5 3 8 11 6 6 5 4 2 3 4 3 6 5 3 4 2
8 11 14 17 20 21 21 22 22 22 17 11 3 3 2 3 1 1 3 2 2 1 2 0 2 1 2 2 2 2 2 2 4 4 6 5 0 3 2 1 2 6 6 7 1 2 6
7 10 13 16 17 20 21 21 21 19 12 6 3 2 1 4 5 4 2 3 3 3 2 1 2 1 1 1 2 2 2 1 3 2 3 5 3 5 6 4 5 5 10 13 7 4 4
7 8 11 13 16 19 21 20 20 18 10 4 4 3 3 2 1 3 4 1 3 3 3 2 1 3 3 3 2 3 2 1 2 1 2 3 4 2 4 2 4 4 6 14 17 15 8
5 6 8 11 16 17 19 18 19 18 10 12 4 3 4 5 11 5 2 2 2 1 4 3 2 1 3 4 6 6 5 3 4 1 2 2 1 2 4 3 2 4 6 9 15 15 17
3 4 5 11 16 14 16 15 19 20 15 9 5 4 1 3 4 1 4 4 5 3 1 3 2 1 4 4 3 1 9 8 5 7 4 3 4 3 4 4 5 7 12 14 8 10 13
4 3 4 9 13 13 14 14 15 18 19 17 13 5 2 1 3 2 5 5 5 6 2 3 2 1 1 2 4 5 7 6 8 3 7 5 5 3 2 3 1 6 2 7 16 14 13
5 3 3 8 11 10 10 13 16 13 14 14 16 7 3 1 3 4 10 4 9 8 2 3 1 1 1 2 3 3 3 3 3 5 4 4 4 2 3 3 7 5 2 5 6 7 14
7 3 1 7 7 7 8 10 11 13 13 11 14 15 5 2 1 3 5 6 3 4 5 2 1 1 1 2 2 4 4 5 3 3 4 2 2 4 2 3 5 4 3 4 3 5 1
8 5 0 4 5 7 7 7 9 11 12 11 10 12 6 3 2 7 2 3 7 5 3 5 7 2 1 2 1 3 3 3 4 4 4 3 1 5 6 3 6 7 5 1 2 5 10
11 5 2 3 4 7 6 7 8 11 11 10 7 8 7 2 11 3 2 4 9 2 3 9 3 2 2 2 3 3 3 4 3 2 6 6 5 3 4 4 7 3 2 4 4 3 5
10 7 2 2 3 6 6 7 8 11 9 10 7 7 8 5 6 17 12 6 11 16 12 6 6 5 3 1 0 1 2 1 4 2 2 3 6 4 7 5 5 6 5 6 6 4 3

GFSGBSN_850_spd_057.txt.gz
Wind_Speed
19 21 21 23 21 20 19 18 18 16 17 19 23 23 20 16 12 9 5 3 2 2 4 4 5 2 4 5 12 8 7 13 18 23 26 21 26 21 8 7 11 9 11 24 10 15 21
18 20 21 23 21 20 18 19 18 16 16 18 20 22 18 14 8 7 5 3 3 1 1 3 4 2 5 4 5 14 8 14 21 31 34 23 22 23 12 11 8 10 15 16 21 23 24
18 19 21 23 21 20 19 19 20 18 15 16 18 19 15 12 8 3 4 7 3 3 3 3 4 2 6 9 9 10 9 8 26 36 35 26 21 19 11 5 12 8 7 5 8 16 7
17 18 20 21 20 21 20 20 20 19 19 16 16 16 14 11 9 3 3 3 4 6 7 4 3 2 5 9 10 10 10 11 23 27 24 25 27 11 5 6 8 5 5 5 9 16 6
16 17 19 20 20 20 20 21 21 19 18 17 14 13 12 9 6 4 3 2 3 5 5 4 3 2 3 4 13 5 8 11 20 28 22 26 23 6 4 6 4 3 7 6 9 23 8
15 16 18 19 19 20 18 20 21 21 21 19 16 11 8 6 6 7 6 3 1 2 2 2 4 3 4 6 2 4 1 4 16 22 19 20 8 3 3 7 16 7 6 6 8 9 5
15 15 17 19 19 19 21 20 21 22 21 23 18 11 6 5 4 7 7 1 3 3 3 3 4 3 6 9 4 6 6 9 13 18 7 11 4 11 6 4 3 5 5 4 1 4 4
15 14 15 18 19 19 22 21 22 22 24 21 22 14 6 3 2 2 5 3 2 2 2 7 5 5 5 6 4 7 4 5 3 12 11 5 9 5 7 7 4 7 5 5 0 2 8
15 14 15 18 19 20 22 23 22 23 23 24 23 17 6 3 3 1 1 1 2 5 2 3 7 7 4 6 4 2 7 3 6 12 17 12 7 8 5 4 7 2 7 4 4 3 3
15 14 15 18 19 21 21 24 26 26 25 23 23 17 6 3 4 3 1 3 3 6 2 5 4 6 4 4 6 4 6 7 5 7 14 4 3 8 4 3 4 3 4 4 2 4 4
15 14 16 18 20 21 22 24 26 28 24 20 22 15 6 4 3 3 2 3 6 4 4 2 2 3 5 4 9 2 11 5 5 8 6 3 8 11 4 4 4 2 3 4 3 3 2
15 14 16 18 21 22 26 25 25 26 24 19 18 11 3 2 1 3 2 1 4 5 3 4 1 3 2 4 4 1 1 8 6 10 11 4 5 4 2 3 2 6 6 7 4 3 2
15 13 16 18 21 22 26 29 24 26 22 16 15 4 1 0 1 3 2 2 4 5 3 4 1 1 4 1 3 1 3 3 4 6 4 5 4 2 3 6 3 2 5 3 2 1 4
14 12 14 17 20 23 26 26 25 26 21 16 9 1 1 1 2 4 6 4 6 4 4 2 1 7 3 3 4 3 2 3 3 5 4 4 4 3 3 3 5 3 3 5 6 4 4
12 12 12 16 20 23 26 24 25 25 20 11 3 4 2 1 3 5 1 4 7 6 4 4 1 2 1 2 5 1 2 3 4 2 5 4 2 2 2 1 2 4 4 4 5 2 3
12 11 12 15 19 23 23 23 24 23 19 10 3 4 2 2 4 1 3 2 2 3 1 1 3 4 3 5 5 3 3 3 3 3 2 2 4 2 2 2 2 2 1 1 2 3 4
11 11 12 15 18 21 21 22 22 22 16 5 4 3 1 1 4 1 2 4 3 5 2 2 2 2 4 5 3 5 9 1 3 5 5 4 3 5 6 6 8 3 3 3 2 4 5
11 10 12 14 17 19 19 21 21 19 14 1 3 2 2 3 1 2 1 4 1 0 1 2 1 2 4 7 5 4 6 4 11 10 7 4 3 3 5 2 2 7 6 6 4 5 3
10 10 10 13 16 18 18 20 19 17 11 3 2 2 2 0 2 2 3 2 1 0 2 1 2 1 1 2 4 3 3 1 13 6 6 6 1 3 2 4 1 5 7 7 3 1 6
11 9 8 11 14 16 17 17 17 16 8 1 0 1 2 2 3 2 2 3 2 1 2 3 2 1 1 2 5 4 3 3 9 11 13 12 4 6 6 4 4 7 11 15 10 4 7
10 7 6 10 12 15 15 15 15 14 7 0 2 1 1 1 1 3 2 2 2 1 2 1 2 2 1 1 2 2 3 4 3 7 4 5 5 4 5 4 5 6 7 15 17 21 7
9 6 5 8 11 12 13 13 14 14 5 4 1 2 1 2 7 4 4 3 1 1 3 0 2 3 2 2 5 6 4 3 3 1 4 1 2 2 3 4 3 5 7 10 18 19 21
9 5 4 6 9 9 11 12 13 15 11 5 3 3 2 3 3 0 2 4 4 4 1 1 2 2 1 2 1 2 6 6 6 7 3 3 4 3 3 4 5 7 10 13 7 7 14
10 4 5 4 6 5 9 12 14 14 15 12 8 3 2 1 2 1 4 4 7 6 3 6 2 1 2 1 2 6 7 6 7 3 6 5 5 3 2 3 2 6 3 6 12 12 12
10 6 5 2 4 5 7 9 12 12 11 13 12 3 1 1 2 2 6 3 7 9 3 4 4 3 3 1 3 3 4 3 1 4 5 4 4 2 3 3 7 4 1 4 5 6 6
11 8 6 1 4 4 6 7 10 10 10 8 10 8 3 4 2 1 2 3 2 3 6 4 3 5 3 2 2 3 4 4 2 1 1 2 2 4 1 1 4 5 4 2 3 4 2
13 11 7 3 2 4 4 5 6 9 10 8 6 9 4 3 1 2 2 1 3 3 2 3 10 5 3 2 1 2 3 3 3 4 4 3 2 5 4 3 7 7 6 1 3 5 9
14 13 8 5 2 3 4 5 7 8 8 7 4 6 8 4 4 4 2 4 6 2 2 5 1 1 3 2 2 2 2 3 1 0 5 5 5 3 4 4 7 2 1 4 5 7 9
18 14 9 6 3 2 3 4 6 7 8 8 6 7 8 3 3 10 4 3 4 10 7 2 4 3 4 1 1 0 2 1 2 2 2 2 6 4 7 5 6 4 9 8 9 9 8

GFSGBSN_850_spd_060.txt.gz
Wind_Speed
18 20 22 22 21 20 20 18 18 17 14 15 19 22 18 14 11 8 6 6 7 5 6 8 8 4 1 3 7 5 5 13 13 21 16 16 19 13 6 9 6 2 8 13 14 9 4
18 19 20 21 20 20 20 20 19 19 17 15 17 18 18 14 10 7 6 6 8 6 5 8 8 4 2 3 5 7 12 10 12 17 21 17 14 18 8 9 6 7 2 11 6 10 2
18 18 19 21 20 19 19 20 20 19 18 17 15 16 17 13 12 8 7 7 6 6 8 9 8 7 5 6 9 10 11 18 19 18 25 20 10 20 7 5 9 7 6 4 11 16 2
18 18 19 19 19 20 19 18 20 19 20 18 18 14 12 13 9 8 7 5 5 9 10 7 7 6 5 6 10 10 12 17 22 21 26 23 6 20 3 8 7 4 4 6 4 13 4
18 18 19 20 18 20 19 20 20 19 20 21 19 16 13 10 8 8 9 7 6 7 6 3 4 6 4 4 8 4 9 9 22 24 24 24 12 8 4 7 4 3 4 5 6 21 9
19 18 19 21 19 18 19 21 20 20 20 21 21 20 13 9 9 8 9 7 3 5 5 5 6 6 1 9 7 5 6 14 24 24 18 11 9 3 3 6 16 8 4 2 2 12 10
21 19 19 20 21 19 20 21 21 21 21 21 21 22 14 8 7 6 6 3 1 2 5 4 7 5 4 6 11 8 8 17 21 24 2 15 7 11 5 4 5 8 5 5 2 6 3
18 20 19 20 21 20 21 22 23 22 22 21 20 20 12 7 6 4 3 2 4 2 2 4 4 4 4 6 1 5 8 5 9 14 14 5 8 5 7 5 5 7 7 4 1 3 8
18 19 19 19 20 21 22 21 24 25 24 22 21 20 12 6 5 5 2 2 1 5 1 2 2 3 3 5 4 7 5 5 8 14 14 8 7 7 6 4 5 2 7 5 4 3 2
18 17 18 18 20 21 22 23 25 26 23 22 21 18 9 4 4 6 4 4 1 5 4 5 3 3 4 2 5 5 7 5 4 4 9 4 5 8 6 5 5 2 5 6 6 6 4
18 18 18 18 18 20 23 24 26 24 23 21 19 16 6 5 2 4 3 3 1 2 4 4 5 4 4 5 5 7 6 6 3 3 4 3 8 9 4 6 4 2 3 5 3 4 3
18 18 18 19 17 19 23 26 25 23 22 20 17 12 1 2 4 4 2 2 1 5 1 4 4 5 2 5 5 2 5 7 6 3 7 3 4 4 3 2 5 7 6 7 4 3 2
18 17 17 18 18 18 23 25 24 23 22 19 14 4 3 2 1 3 3 2 4 5 3 1 1 1 2 2 4 1 3 2 3 5 8 7 3 2 2 6 3 3 4 3 2 2 4
17 16 17 17 18 19 22 23 22 22 21 18 8 3 4 3 1 3 3 4 5 4 3 3 5 3 2 3 3 3 5 2 1 5 5 4 4 1 5 4 6 3 4 4 5 3 4
17 16 16 16 17 19 20 21 21 21 19 13 2 5 5 4 5 3 2 3 5 5 3 5 3 2 2 2 3 2 1 0 1 1 5 5 2 2 4 2 2 4 3 4 6 3 3
16 16 15 15 16 18 19 19 20 19 16 10 5 6 3 4 5 2 3 3 0 2 2 3 3 3 3 4 1 2 4 2 3 1 1 3 5 1 1 2 5 3 5 3 2 2 4
16 15 15 14 15 16 18 18 17 17 13 4 5 4 4 4 5 2 2 5 4 5 3 1 1 3 4 4 2 1 3 2 1 3 6 3 4 3 3 4 5 2 2 3 3 4 3
16 15 14 14 14 15 16 17 16 15 10 1 4 1 4 6 2 2 2 4 2 1 1 2 1 0 5 5 3 3 5 3 9 8 5 2 4 3 2 3 3 2 6 5 4 4 1
16 15 14 13 12 13 15 15 14 13 8 2 5 3 2 2 1 2 3 2 3 2 2 1 1 1 1 3 3 2 2 3 13 4 5 5 1 4 2 2 1 6 9 6 3 2 6
17 16 12 11 11 11 12 11 13 12 6 2 4 1 2 3 2 2 2 3 1 1 0 1 1 1 2 3 3 4 2 2 6 3 9 3 3 5 6 4 4 6 11 16 13 7 8
19 16 10 9 8 10 8 9 12 12 5 1 2 1 2 2 2 3 2 2 1 1 1 2 3 1 1 2 2 2 3 3 4 8 4 2 3 3 3 2 3 3 6 13 15 18 10
18 12 9 7 5 7 6 7 10 11 3 2 2 2 1 1 3 3 2 2 2 3 1 1 3 2 2 3 4 6 4 1 3 1 4 0 1 3 5 4 4 5 7 9 15 17 16
18 13 9 5 3 3 5 8 9 10 6 4 4 3 1 2 1 1 0 2 4 3 3 5 1 1 2 2 1 3 8 7 6 8 6 6 6 3 4 2 3 6 14 13 7 6 14
19 13 10 4 2 1 4 8 8 9 10 9 7 3 1 1 1 1 2 2 1 1 2 4 3 1 2 1 4 9 9 7 9 3 6 6 5 3 3 0 1 6 2 5 11 10 11
19 15 10 4 4 2 4 6 7 8 9 9 11 4 2 1 1 1 5 3 5 4 2 1 3 3 4 1 3 3 3 2 1 3 4 2 4 2 3 2 6 2 1 4 5 5 5
21 16 10 7 5 3 3 4 5 7 7 6 8 7 3 3 2 3 2 5 3 4 5 3 2 2 1 2 2 3 3 4 2 1 2 3 3 3 2 2 4 5 2 4 4 3 3
22 17 12 9 6 4 3 2 3 5 6 6 7 9 4 4 3 5 5 2 3 3 1 3 9 4 4 2 2 2 2 3 3 4 4 3 2 4 3 2 6 7 5 4 4 4 9
23 18 14 11 7 5 4 3 3 5 7 6 6 8 7 3 4 4 4 4 4 3 2 7 4 3 3 1 2 2 2 3 1 0 5 6 5 3 3 4 6 3 0 3 5 6 9
23 19 16 12 9 6 5 3 2 3 7 7 7 7 7 4 3 3 8 8 8 1 3 3 2 4 6 1 1 1 1 1 2 2 1 2 5 4 7 5 5 4 7 8 11 13 11

GFSGBSN_850_spd_066.txt.gz
Wind_Speed
18 19 21 24 24 23 23 19 18 18 17 17 17 13 12 15 16 12 9 9 10 10 9 9 10 10 6 3 3 4 6 2 13 17 12 13 22 18 16 14 22 17 17 14 16 13 9
18 20 19 24 23 23 22 20 19 19 17 16 17 18 11 11 14 11 9 8 9 9 9 10 11 9 4 4 4 4 2 2 10 26 7 14 14 10 15 16 18 23 5 15 12 15 7
18 19 19 19 22 21 22 23 20 18 17 17 19 18 18 11 10 10 9 7 8 9 11 10 10 9 7 5 4 3 4 6 12 23 9 13 17 6 11 13 8 16 15 6 14 21 11
19 22 22 22 22 20 21 22 21 19 17 18 18 20 20 13 10 9 7 7 7 6 7 7 5 6 5 5 8 9 7 6 11 11 19 10 14 6 10 10 9 11 13 14 14 18 11
23 22 22 22 21 21 20 22 21 21 19 18 18 19 19 19 9 9 7 7 5 4 6 7 7 6 5 8 8 9 7 8 12 9 6 8 8 6 6 15 10 11 13 17 9 16 8
24 26 21 21 20 21 19 22 21 21 21 19 18 18 19 18 10 6 4 5 2 4 6 5 5 6 5 7 10 7 7 14 14 12 9 9 6 8 11 13 15 19 14 16 13 13 13
24 26 20 20 20 21 19 20 23 23 23 19 18 18 17 16 8 5 3 2 2 2 2 3 5 6 12 12 4 11 9 16 14 11 5 6 5 15 19 16 4 13 10 13 11 8 13
23 25 22 21 19 20 19 19 21 24 24 20 19 18 15 14 7 4 2 1 1 2 3 3 5 9 10 14 8 12 19 12 16 5 13 3 7 12 12 10 11 16 15 11 6 9 13
21 23 23 21 19 19 19 20 21 23 24 21 20 18 14 9 5 3 3 2 2 4 3 2 4 5 6 12 9 13 9 18 16 9 8 2 10 12 14 11 11 11 14 13 9 9 6
23 24 22 20 20 19 19 19 21 23 23 22 19 17 12 5 2 4 3 4 1 4 2 4 2 4 6 5 8 11 12 6 4 11 4 3 13 12 13 9 12 10 8 10 10 9 6
27 23 22 19 19 19 18 18 20 22 22 20 18 14 8 3 2 4 3 3 1 2 1 5 3 4 5 5 9 7 9 8 6 10 2 3 15 14 17 10 5 4 9 10 6 7 3
24 27 23 18 18 18 18 18 20 21 20 18 15 9 1 1 4 4 4 2 1 2 3 2 2 2 1 6 4 4 6 7 5 5 5 4 2 3 5 4 2 11 12 10 5 3 5
25 25 25 19 17 17 17 17 18 19 18 16 10 2 5 4 3 5 3 2 1 2 1 0 0 2 3 4 4 2 4 6 4 4 3 10 7 2 2 10 9 8 15 4 4 4 4
26 26 24 19 17 16 15 17 17 17 15 12 4 4 6 6 7 6 3 1 2 0 2 2 1 4 2 3 3 3 7 6 3 6 4 3 7 6 2 3 8 13 10 3 6 4 3
29 26 25 20 18 15 14 16 16 14 12 8 3 6 6 9 5 3 1 1 2 3 3 5 2 2 4 4 3 3 1 6 6 9 1 5 3 2 3 1 2 6 5 3 3 2 1
28 27 27 22 19 15 12 14 15 12 9 5 7 6 5 9 4 1 1 1 2 2 1 3 1 1 3 5 2 3 5 5 5 4 4 4 5 2 2 1 7 2 7 4 1 3 4
28 31 31 22 18 15 11 12 12 10 6 3 9 3 5 9 3 1 1 1 2 4 3 2 0 2 2 3 3 3 3 3 2 3 2 5 3 3 5 4 9 5 4 2 3 2 2
31 34 28 21 17 15 11 11 9 7 2 8 6 2 7 9 2 1 2 3 2 3 4 2 1 1 3 4 4 3 3 2 4 4 5 1 4 5 2 1 3 9 11 12 8 5 2
37 26 29 21 17 15 10 9 7 6 5 11 6 4 6 8 2 2 2 3 3 4 3 2 1 0 1 3 2 2 4 2 8 2 2 4 4 4 2 2 2 5 9 9 4 2 7
35 34 28 21 18 14 10 8 6 5 8 15 6 3 4 6 3 2 2 2 3 1 2 2 1 1 1 2 2 4 4 2 6 4 6 3 3 3 5 2 5 9 15 15 13 5 11
39 35 27 22 19 14 10 8 7 6 10 14 7 3 5 4 6 5 2 1 3 3 1 2 2 3 2 3 2 3 4 5 2 5 3 1 2 2 2 3 2 4 13 18 18 19 12
35 38 29 22 21 14 10 9 8 7 12 12 6 5 5 4 3 6 4 4 4 3 1 2 2 3 3 2 2 5 5 4 5 4 2 2 2 2 1 1 4 6 10 12 18 19 21
32 38 30 24 18 14 13 11 9 9 13 7 9 9 6 4 4 4 4 3 4 1 3 4 4 2 2 2 4 4 2 4 6 8 5 6 5 4 3 1 4 7 12 14 9 10 14
34 36 31 24 21 17 14 12 10 9 10 10 10 11 5 4 5 3 3 2 4 2 2 3 3 1 2 2 6 8 8 8 6 5 5 7 6 3 3 4 5 3 1 2 8 9 11
35 37 31 25 22 18 15 13 12 10 10 10 12 8 6 4 3 4 4 3 2 2 2 2 3 4 1 4 2 4 3 3 3 2 3 2 4 3 3 3 6 3 3 2 1 2 1
38 38 31 28 23 19 17 14 13 11 10 9 11 11 6 9 3 5 3 2 3 2 3 2 1 3 2 2 1 3 4 3 5 5 2 4 3 2 2 2 3 2 3 3 3 3 3
43 37 33 28 23 21 17 15 12 11 10 10 11 12 7 8 3 4 2 2 2 2 2 2 4 3 3 4 3 3 3 1 4 4 6 4 2 7 6 4 4 3 4 4 4 3 8
44 38 34 29 26 22 18 14 13 11 10 8 11 12 9 8 8 8 6 3 3 3 1 2 2 1 2 4 3 3 3 3 2 0 2 6 5 3 4 5 6 6 5 2 3 6 8
43 38 34 29 26 22 18 16 13 10 8 10 13 14 17 11 13 18 15 11 8 5 4 3 3 3 2 0 0 1 2 2 1 3 0 4 2 1 5 2 4 3 2 2 2 8 10

GFSGBSN_850_spd_069.txt.gz
Wind_Speed
20 21 19 21 22 21 21 21 22 24 20 16 16 18 19 12 14 17 13 12 12 13 12 12 14 12 9 6 7 4 8 7 11 17 11 11 21 26 22 19 19 13 21 16 19 17 16
24 25 23 22 22 22 21 21 23 23 19 18 16 19 21 18 11 13 13 11 12 11 12 13 14 14 8 8 2 4 5 3 3 13 11 13 14 23 21 16 21 9 1 11 18 19 17
25 23 24 24 23 21 22 20 21 24 20 19 17 19 20 21 14 11 13 12 12 11 10 11 8 7 10 9 3 4 4 3 8 16 9 10 7 16 17 15 18 18 7 7 11 25 10
33 24 26 23 24 22 21 22 21 23 21 20 18 18 20 21 20 11 11 11 10 10 9 8 6 4 7 7 4 6 5 3 3 17 13 6 5 11 13 9 15 12 7 9 14 15 5
33 25 25 27 22 21 21 21 22 22 22 21 19 18 19 20 18 12 9 9 7 8 10 9 6 6 6 9 5 4 4 5 5 5 14 13 7 7 8 16 12 17 8 18 5 11 4
29 25 27 28 23 21 21 20 21 23 23 24 18 17 19 18 16 10 6 7 6 7 8 5 6 7 5 8 20 6 1 6 7 10 7 2 3 7 13 15 15 14 12 19 14 13 17
26 26 26 27 24 23 21 20 20 22 24 23 19 17 18 15 12 9 3 4 3 4 5 4 8 10 14 17 3 7 8 8 9 6 1 3 2 13 20 20 12 17 18 19 18 15 17
29 28 27 25 27 22 22 20 19 20 24 23 18 17 17 12 8 7 2 2 3 3 6 5 7 10 9 11 5 6 10 11 11 5 8 3 5 15 13 10 6 16 16 11 7 12 10
34 27 27 25 27 20 21 19 19 20 23 23 19 16 15 10 5 3 4 3 5 4 5 2 4 8 6 8 8 10 9 10 10 8 12 2 6 11 12 10 10 11 14 13 11 8 14
35 27 26 27 27 21 20 18 18 19 22 22 18 17 12 6 2 3 1 4 4 2 3 5 2 4 5 3 5 6 7 7 2 10 9 4 11 11 13 12 13 13 10 8 8 13 8
37 36 27 26 26 22 20 18 18 19 20 20 16 14 8 4 2 1 4 2 1 1 1 3 3 3 4 9 2 4 5 4 6 9 4 3 9 14 12 9 8 5 5 9 8 9 5
39 36 26 23 27 21 20 17 17 18 18 18 14 9 1 3 3 4 3 2 1 3 2 1 1 2 4 8 4 3 3 8 7 7 6 4 6 2 7 8 4 9 10 6 5 5 5
37 40 32 25 26 22 19 17 16 17 16 15 11 2 3 3 1 2 3 1 2 3 1 3 4 3 5 4 3 1 4 7 4 6 2 5 3 5 3 8 6 10 15 5 5 3 5
38 41 36 25 26 23 18 16 16 15 14 11 5 5 4 4 7 5 2 2 3 2 3 3 5 7 3 2 3 1 8 6 5 6 3 3 4 8 2 8 5 10 13 4 6 6 9
35 40 39 29 26 25 17 15 16 13 11 7 3 6 5 6 5 2 1 2 2 2 4 9 6 3 3 5 2 2 2 5 5 9 1 5 4 3 1 4 4 7 5 4 3 3 2
37 40 39 31 28 26 17 15 15 12 8 4 6 6 5 6 3 1 2 3 1 1 2 5 3 3 4 7 5 4 4 5 8 8 4 2 5 1 2 4 1 3 6 3 1 2 4
32 41 40 35 31 28 17 15 14 11 6 6 8 5 4 7 3 3 2 2 1 5 2 2 2 5 5 5 6 5 6 2 5 9 4 6 4 5 5 7 10 4 3 5 3 2 3
30 41 40 42 37 28 18 16 13 10 6 13 7 2 8 9 4 2 2 2 1 6 4 2 2 3 3 7 4 3 6 4 6 9 5 1 5 3 11 2 4 7 12 11 7 4 4
26 42 44 39 39 26 19 17 14 10 10 15 7 4 8 10 2 3 3 3 2 4 4 3 2 1 1 5 3 5 6 3 6 5 8 6 6 5 3 4 5 6 11 10 12 4 5
24 38 42 36 36 26 20 17 14 12 13 17 7 3 4 8 7 4 4 6 6 3 3 1 1 3 5 5 1 6 6 4 4 3 4 2 4 4 4 3 3 11 16 17 13 3 9
25 36 42 31 36 25 21 17 15 14 16 18 6 4 6 4 7 9 4 3 7 6 3 4 3 4 3 4 4 5 5 10 6 7 5 4 3 1 1 3 2 3 10 16 16 17 13
15 44 39 35 36 25 23 19 16 15 20 17 7 5 5 4 4 11 6 8 8 5 5 5 2 3 3 1 3 7 7 7 5 7 5 3 1 1 1 1 3 7 9 11 16 18 19
27 45 40 38 37 26 23 20 20 18 23 9 14 11 5 8 8 9 9 7 7 5 3 5 3 3 4 4 3 3 2 2 3 7 9 6 5 4 3 2 4 8 13 14 11 14 11
23 48 34 43 37 28 24 21 19 20 25 14 14 12 5 5 8 9 5 5 6 3 3 5 2 3 2 1 2 5 5 4 6 3 6 6 6 3 1 2 4 3 2 2 6 9 9
34 36 33 45 38 30 25 21 20 20 22 20 13 11 5 4 9 5 7 7 5 4 3 5 5 2 1 3 3 5 4 4 3 2 5 5 6 2 3 6 7 6 2 3 4 4 1
24 48 52 46 34 28 24 24 22 20 20 18 16 15 5 8 5 5 9 7 5 7 4 3 4 4 1 3 4 5 5 5 5 4 2 4 6 4 3 3 3 8 6 2 2 5 4
33 53 52 40 33 28 26 24 21 21 19 17 20 16 7 7 4 4 4 5 2 2 2 4 2 2 3 4 4 4 4 1 4 6 6 3 5 9 7 5 4 6 7 3 5 3 5
43 56 47 39 32 28 28 25 22 20 19 20 19 19 12 8 7 5 4 4 4 1 4 4 4 2 2 2 3 4 3 4 3 1 6 8 5 4 5 4 6 7 5 3 5 4 8
32 54 46 39 33 31 28 25 22 20 20 18 21 18 17 10 9 12 11 8 7 6 4 2 3 3 3 1 2 2 2 2 4 3 3 3 1 1 3 1 5 4 4 5 7 8 11

GFSGBSN_850_spd_072.txt.gz
Wind_Speed
30 29 24 23 24 24 23 23 23 23 24 21 20 19 21 21 18 13 16 16 13 12 12 14 15 14 13 7 4 8 9 9 4 11 15 11 16 16 14 17 16 7 11 19 1 30 23
27 30 32 24 26 24 24 23 22 23 23 22 19 19 21 21 20 17 12 15 14 13 11 13 12 8 7 9 4 8 9 6 1 5 16 5 9 19 15 17 16 10 12 20 2 5 6
29 29 32 29 25 27 24 22 22 22 23 23 21 21 21 21 20 21 13 12 13 13 11 11 9 6 10 10 4 9 7 7 3 5 20 6 4 3 12 15 17 13 4 6 5 3 5
28 29 28 31 26 27 23 23 22 22 23 23 22 21 19 21 20 20 14 12 10 11 10 10 9 4 7 8 8 4 5 8 3 5 18 16 8 7 7 10 23 12 9 8 10 10 5
29 28 26 26 28 24 25 23 22 22 23 24 25 22 20 21 20 18 13 9 7 8 9 9 6 6 7 4 2 3 5 5 4 2 8 7 6 6 14 13 8 8 5 3 6 7 3
28 29 25 23 27 22 25 23 21 21 22 24 25 23 22 20 17 17 8 6 6 8 8 5 9 8 8 7 12 18 4 2 1 3 3 2 3 4 6 12 11 5 6 5 8 7 4
27 30 28 27 30 25 27 22 21 20 21 23 25 24 23 18 14 12 3 3 5 2 4 7 10 12 11 13 1 8 8 5 3 3 2 3 2 6 13 12 10 17 6 12 13 10 7
31 28 30 32 34 27 28 23 20 19 20 22 25 24 21 17 12 8 1 2 2 3 7 5 7 6 5 9 4 6 7 6 3 2 7 2 7 10 11 12 4 12 18 9 7 10 10
33 31 29 32 31 32 25 24 20 18 19 21 23 21 20 12 6 3 4 3 4 3 5 2 2 3 7 6 5 7 5 3 2 5 2 4 6 6 4 4 9 5 7 10 7 4 14
36 35 32 33 34 34 31 24 19 18 17 20 21 19 17 5 3 0 1 5 2 1 2 3 1 2 2 4 4 2 8 3 3 6 5 5 1 7 4 10 5 8 5 11 15 9 3
41 37 34 33 33 31 36 25 18 17 16 19 18 16 12 5 3 1 5 2 1 2 1 2 3 2 2 5 9 2 4 2 6 7 1 2 1 6 10 4 5 5 7 7 7 5 5
37 40 32 35 34 32 40 27 17 16 14 17 14 11 6 2 2 5 2 3 5 2 1 1 1 2 4 7 4 5 2 5 11 7 9 4 6 5 6 8 7 4 9 9 5 3 2
42 40 36 30 35 31 40 24 17 16 12 14 11 4 4 4 4 3 4 3 1 2 3 1 3 2 5 4 4 3 6 4 2 4 5 6 4 3 3 7 2 5 8 3 2 1 4
38 42 38 31 35 31 38 27 18 15 10 11 6 5 4 3 5 4 5 1 1 4 4 2 5 4 2 2 4 2 6 4 4 4 3 2 1 3 4 3 2 4 6 4 3 4 5
39 39 39 33 35 32 35 30 19 14 9 8 5 7 5 6 5 5 2 2 3 3 5 8 9 1 2 1 1 2 2 5 5 3 2 4 3 2 3 4 4 4 2 1 2 1 3
36 39 40 35 36 30 31 31 20 14 8 6 10 9 7 8 5 4 1 3 2 3 1 10 2 5 4 6 3 0 4 2 6 5 3 5 5 1 2 4 2 2 3 2 3 1 2
39 35 42 31 33 31 27 34 22 14 10 12 15 7 5 8 4 2 2 2 2 5 2 1 4 5 5 7 5 3 4 2 1 5 2 3 5 3 4 3 6 2 2 2 2 1 1
45 37 40 35 37 34 29 36 22 16 15 19 13 3 8 9 3 3 3 3 1 9 5 2 3 3 5 7 8 5 6 1 7 9 3 4 4 4 2 3 3 5 3 6 3 2 2
46 42 32 37 30 34 27 34 23 19 19 24 11 6 11 12 3 4 4 3 4 6 6 3 3 4 4 6 3 7 5 1 4 6 1 2 2 3 2 2 4 5 6 5 3 3 2
46 40 33 37 37 30 27 35 23 21 23 20 10 4 4 10 8 4 5 6 6 3 2 1 1 2 3 4 0 6 5 2 4 2 5 5 3 1 1 1 3 5 9 8 5 3 4
48 39 30 35 41 27 29 32 24 23 26 18 9 6 8 5 8 9 5 6 9 5 4 6 4 6 4 3 4 5 5 8 3 4 2 4 2 3 2 4 4 1 6 9 9 8 5
51 33 33 40 48 26 28 31 25 26 30 18 8 5 11 6 5 12 8 6 9 6 6 6 3 7 3 3 5 5 11 5 4 4 4 5 2 3 3 1 2 2 6 7 9 10 10
50 39 33 19 49 22 33 31 28 31 34 12 12 13 7 9 6 7 8 7 8 9 1 5 2 3 3 6 4 6 7 1 6 7 6 5 4 2 1 1 3 5 8 11 6 6 6
48 41 24 6 37 32 36 30 29 31 35 14 21 16 5 3 6 8 3 6 8 4 4 5 1 2 2 2 3 2 4 4 8 3 4 3 3 3 1 2 1 4 4 5 3 5 6
45 43 31 25 20 39 36 30 29 28 36 22 18 13 6 4 7 4 8 6 10 6 7 8 6 3 4 3 3 5 2 2 4 3 2 1 3 1 2 2 3 4 1 2 3 4 2
43 40 44 31 18 43 35 31 28 27 34 27 15 15 5 8 3 2 8 13 5 5 4 4 3 4 2 2 1 3 4 4 5 4 2 3 3 1 2 1 3 4 5 4 1 2 6
42 38 18 31 37 41 35 33 30 26 27 27 17 17 7 8 3 5 3 2 1 4 3 6 3 1 1 2 2 3 2 3 5 6 5 2 2 3 4 2 5 7 7 3 1 2 9
42 34 13 28 40 38 34 34 26 22 25 24 19 19 13 9 9 5 6 5 2 3 3 5 4 1 2 2 2 1 2 3 2 4 5 6 5 4 3 3 5 5 4 1 2 11 9
36 28 4 20 32 34 35 31 25 23 24 22 24 21 15 10 9 12 11 9 8 7 7 4 4 4 2 1 1 2 0 2 2 3 3 2 1 2 2 3 4 9 14 10 7 5 7

GFSGBSN_850_spd_075.txt.gz
Wind_Speed
27 27 26 27 28 24 20 24 24 23 25 22 22 19 19 20 20 20 20 11 15 16 13 12 14 13 10 3 4 3 13 11 5 4 8 8 8 10 7 9 12 2 8 9 7 19 7
28 25 27 29 31 26 21 24 22 23 24 25 22 20 21 20 20 19 20 13 11 14 14 11 12 10 5 5 4 9 10 10 4 3 2 7 5 5 6 5 11 8 6 5 8 7 7
29 28 25 27 34 34 23 22 21 25 23 25 22 21 23 20 19 18 18 16 12 11 11 11 9 7 10 16 6 6 7 9 7 3 7 11 5 5 2 6 14 11 4 3 8 1 5
28 29 28 26 30 27 27 20 21 24 24 24 23 23 23 21 19 19 17 14 9 8 8 9 6 3 7 9 10 10 3 6 7 6 7 14 7 10 7 4 8 7 5 3 5 3 6
31 29 29 29 29 29 27 21 22 23 24 23 23 23 23 23 22 18 15 6 5 8 7 6 1 5 6 5 8 8 4 1 5 5 2 7 4 5 7 4 5 0 4 5 2 11 7
26 31 30 30 29 26 28 30 24 25 24 23 23 23 23 23 20 16 9 2 4 6 2 3 7 9 6 8 16 14 6 4 1 2 6 3 8 5 4 7 8 8 6 5 3 4 5
28 28 29 30 31 31 29 32 25 25 23 22 21 22 23 22 17 12 3 1 2 2 3 5 5 9 7 9 7 7 9 5 2 2 4 1 3 7 10 7 12 10 6 8 6 5 2
40 36 32 30 30 30 32 33 29 25 21 20 20 21 21 20 13 6 4 3 2 3 5 2 2 8 4 5 6 5 4 4 1 2 3 4 2 5 6 7 17 14 10 4 3 12 5
34 39 40 38 31 31 33 33 30 27 19 19 19 19 19 14 5 4 3 1 3 3 2 2 0 3 3 4 3 2 1 1 2 5 4 6 3 8 5 6 14 9 15 11 2 6 2
38 38 39 39 40 30 34 32 33 28 21 17 16 17 16 9 2 3 2 2 2 1 3 1 2 2 2 3 3 4 3 2 6 2 7 3 5 4 7 14 8 6 18 16 17 4 2
41 41 38 36 41 39 26 37 34 29 21 16 14 15 14 5 5 4 1 2 2 2 3 1 2 0 3 3 4 2 3 1 5 7 4 3 4 4 8 6 5 0 19 16 12 12 1
42 40 38 35 37 40 39 35 31 29 19 16 13 13 10 4 7 4 3 5 4 4 2 1 3 2 1 2 3 2 2 3 2 6 6 5 4 4 1 4 6 5 14 8 5 3 3
38 37 39 39 38 37 39 35 29 29 22 13 12 9 7 8 5 5 8 5 3 4 3 3 5 4 4 0 3 1 1 1 0 4 5 5 6 4 1 4 7 6 6 3 4 3 4
40 36 38 34 34 35 34 32 34 28 21 10 11 7 9 8 8 10 11 2 2 4 5 3 7 4 2 1 3 3 1 2 3 4 4 4 2 7 8 3 1 2 4 4 5 4 4
38 38 41 39 34 34 30 31 43 31 19 11 10 12 10 11 10 13 6 2 3 6 5 8 10 8 1 1 1 1 2 5 3 1 5 4 2 3 2 4 3 4 3 3 4 3 4
39 39 42 46 46 34 22 23 44 32 19 14 15 13 10 12 10 11 2 3 3 3 4 6 4 5 5 6 4 1 2 3 3 3 1 5 5 2 4 4 1 2 2 3 3 3 2
41 40 39 43 47 36 26 23 41 32 21 19 18 8 12 12 11 5 3 4 5 5 3 5 3 5 5 6 5 4 2 2 1 1 5 2 3 1 2 2 1 3 2 3 3 4 4
43 40 40 45 53 35 27 28 38 31 22 26 15 3 12 15 4 5 4 5 2 5 1 2 2 2 6 6 6 5 5 1 3 5 1 2 4 3 2 1 1 2 1 3 4 4 0
40 41 43 46 50 37 35 26 44 33 21 35 14 6 14 16 3 4 4 4 3 5 4 4 3 2 3 5 5 5 5 2 4 3 1 2 2 3 2 4 3 3 4 3 2 2 2
42 42 44 44 43 29 35 38 45 33 28 28 11 4 5 11 7 4 6 6 4 2 4 2 2 3 1 2 3 4 3 1 4 4 4 3 3 5 5 4 4 4 5 5 4 3 3
43 44 46 45 45 33 31 42 40 32 36 24 11 5 9 5 7 6 2 4 7 4 2 6 1 3 3 3 3 4 7 3 4 3 3 3 3 2 1 3 2 2 5 8 7 6 5
43 44 45 44 43 32 33 45 40 37 40 22 9 6 11 7 8 10 4 5 12 6 6 4 2 6 4 4 2 5 9 5 4 2 3 2 2 2 3 0 2 3 5 5 7 5 7
42 43 44 46 40 35 19 50 38 42 45 17 13 10 9 11 5 6 4 5 8 8 3 7 6 6 6 4 4 6 3 13 10 7 5 5 4 3 3 3 2 5 8 9 5 4 8
39 41 40 44 39 34 20 40 41 44 44 15 18 16 5 3 6 7 4 7 8 5 6 5 11 5 4 6 6 6 11 14 11 3 5 4 4 2 2 2 0 6 2 1 11 5 6
38 39 38 43 38 30 20 31 33 35 41 15 18 12 5 3 4 5 4 5 12 12 5 6 5 7 9 5 4 4 3 3 3 5 5 4 3 2 3 2 4 2 3 3 3 3 4
35 38 40 41 38 25 18 32 34 33 37 22 16 11 3 8 1 1 5 12 5 4 3 4 7 9 6 2 2 4 4 4 3 1 4 4 3 3 2 2 4 4 3 4 3 1 5
34 36 40 39 27 18 27 36 34 31 35 24 13 10 4 9 4 4 4 5 6 5 4 5 5 3 2 2 2 3 3 5 5 7 5 2 2 4 3 2 5 4 3 3 3 3 8
32 34 36 34 9 6 29 34 32 32 35 28 16 12 7 8 10 6 7 5 5 6 4 7 5 2 2 2 3 3 3 4 4 6 6 6 5 4 3 2 5 3 3 1 3 10 10
29 31 32 24 6 13 27 29 32 27 29 30 15 13 9 9 11 12 12 9 8 8 10 5 3 3 3 3 0 1 0 1 4 3 1 2 5 4 6 4 2 12 18 14 12 11 10

GFSGBSN_850_spd_078.txt.gz
Wind_Speed
24 25 26 28 29 31 33 34 21 21 24 24 24 22 20 18 20 17 18 18 12 8 16 14 10 14 12 4 9 5 13 16 8 4 6 6 16 15 13 8 10 14 10 13 7 10 11
23 24 25 26 28 31 31 36 27 20 22 23 23 22 21 21 19 16 18 16 14 10 11 13 9 12 8 5 3 7 13 13 8 5 3 9 3 4 12 6 7 10 3 12 17 5 10
31 28 28 28 29 29 30 30 36 20 22 22 21 22 22 23 20 18 18 16 14 10 10 8 8 11 11 16 8 9 13 10 9 6 5 5 8 8 5 4 8 16 6 6 9 4 4
30 30 28 28 29 29 27 29 33 23 25 22 21 22 22 23 22 22 17 12 9 7 6 6 6 8 8 9 12 12 13 10 7 8 6 6 3 8 3 6 4 9 5 5 6 1 5
32 32 31 29 28 29 26 27 28 30 31 23 20 20 21 22 22 20 14 7 3 5 5 4 5 6 7 7 9 11 6 7 8 7 1 6 3 2 4 3 3 0 4 8 4 1 7
31 31 34 36 33 31 29 29 34 37 32 26 18 20 20 20 21 16 7 2 1 2 2 3 6 7 6 8 11 12 14 9 6 3 4 2 2 1 6 3 10 5 7 6 6 3 7
32 33 30 36 40 39 32 35 39 36 36 30 16 17 17 18 18 12 1 3 3 1 4 5 5 6 10 9 9 7 11 5 4 2 3 1 3 6 10 8 5 8 11 9 6 5 3
34 34 35 33 33 38 42 37 40 37 32 32 17 15 16 15 12 5 3 3 3 0 4 4 4 5 4 4 3 3 1 3 2 3 3 3 4 5 7 8 7 10 16 6 4 5 3
35 35 36 38 37 33 35 38 41 40 37 31 20 13 14 10 4 1 5 3 1 1 1 4 3 3 4 1 2 2 4 2 3 4 3 4 3 5 9 15 11 9 10 8 5 12 8
36 35 37 36 36 37 34 34 37 38 34 30 20 11 11 6 2 4 4 3 2 2 3 3 1 1 3 2 3 5 5 2 3 3 4 4 3 5 9 5 2 6 10 10 10 2 4
37 37 38 39 36 40 36 37 38 36 32 38 24 12 10 4 6 7 5 3 4 3 3 5 1 1 2 2 3 2 2 3 5 2 1 2 6 7 9 5 6 6 15 16 13 5 4
35 35 36 37 39 39 42 35 36 34 31 41 21 12 10 6 9 7 6 6 6 5 4 2 2 2 2 5 3 3 2 5 1 6 5 2 1 3 2 5 3 20 14 5 3 2 3
34 35 37 35 38 41 40 36 31 31 27 40 22 12 9 8 9 10 10 8 4 4 3 3 4 3 3 1 1 1 2 3 2 3 5 8 5 6 7 6 8 18 7 2 3 2 4
35 35 37 38 38 37 45 42 33 24 25 39 21 13 14 11 12 13 13 3 3 5 5 4 4 2 1 3 1 2 1 3 4 4 4 3 2 7 8 4 2 2 4 3 4 3 3
35 35 38 38 36 35 39 45 31 30 24 36 20 20 17 10 14 17 6 2 6 6 6 10 6 3 1 2 2 2 1 2 0 2 5 4 3 3 1 2 1 4 5 2 5 3 3
35 35 36 36 36 36 41 44 32 17 26 32 26 20 14 15 17 15 2 5 4 4 6 10 6 7 5 3 2 1 2 1 2 3 3 5 4 3 4 1 3 4 1 3 3 3 3
36 36 36 37 39 41 38 42 27 8 27 28 24 10 17 19 17 8 4 6 5 6 4 6 5 4 3 5 4 2 2 1 1 1 1 4 4 3 3 5 2 4 2 4 4 2 3
37 38 38 39 42 44 39 45 24 29 27 30 12 2 26 24 5 5 5 4 5 6 3 3 4 2 6 8 3 4 4 3 4 3 2 2 5 3 1 2 0 0 0 3 4 2 2
39 39 41 42 42 42 42 44 32 25 38 32 10 7 24 26 5 4 4 6 2 4 5 5 5 2 4 6 5 4 3 3 0 3 3 1 2 3 5 5 3 2 3 2 4 3 3
39 38 40 42 42 42 41 44 28 17 42 26 8 4 7 19 6 4 4 9 4 6 4 4 3 3 5 3 2 6 3 3 4 3 5 3 3 4 5 5 3 3 4 4 5 3 4
39 38 37 38 39 40 42 43 23 24 52 24 9 4 8 7 10 7 5 7 5 5 2 8 2 3 4 4 3 3 4 2 4 3 4 3 3 3 0 1 2 1 3 5 7 4 5
39 38 38 38 38 41 45 38 18 35 43 16 9 6 10 6 15 13 4 5 8 4 5 3 4 5 4 4 5 6 7 3 4 3 2 2 1 2 4 4 4 3 5 4 5 2 5
39 39 38 36 37 39 42 26 12 38 42 13 8 8 9 10 5 7 5 5 12 9 2 7 6 5 7 6 6 12 6 12 8 7 4 3 4 3 2 3 3 6 7 8 4 4 6
39 39 38 36 37 40 38 26 12 41 38 7 12 6 4 3 6 7 8 4 12 6 6 3 11 6 5 12 13 12 13 10 6 2 6 5 4 2 1 2 1 5 1 3 7 4 5
37 37 36 34 37 40 38 23 14 43 43 18 4 2 2 3 3 5 3 5 11 14 5 5 5 9 15 10 4 4 3 3 3 4 3 5 4 3 3 3 5 3 3 4 4 1 4
35 36 34 33 37 41 24 14 11 43 46 16 1 2 1 6 1 1 3 12 5 4 3 4 8 11 6 3 3 4 4 4 4 2 3 4 4 3 2 3 5 4 1 3 3 2 7
36 33 31 31 38 35 9 6 20 36 45 21 4 1 1 8 5 3 3 5 9 7 4 4 4 3 2 2 2 3 3 5 5 7 5 3 3 5 4 2 6 5 2 3 5 5 5
33 32 29 29 34 26 6 20 27 32 31 28 9 6 2 8 11 4 6 6 9 9 5 8 5 1 3 3 3 3 3 5 3 5 6 6 5 3 2 2 7 5 4 6 6 9 8
31 29 27 27 27 15 2 21 30 35 33 30 9 6 7 8 11 15 15 13 11 10 11 6 3 3 4 4 1 2 1 1 4 3 2 3 5 4 7 4 3 6 5 9 15 12 7

GFSGBSN_850_spd_081.txt.gz
Wind_Speed
26 25 25 26 28 28 27 28 28 33 34 23 22 22 23 21 19 20 16 15 15 17 9 13 12 10 13 6 16 13 9 13 14 10 8 9 8 5 9 10 12 14 9 16 16 10 7
30 28 27 25 25 29 32 31 29 30 34 26 23 23 24 20 20 19 18 17 14 15 11 12 10 11 11 7 3 7 10 12 11 8 8 11 6 17 11 14 14 16 6 15 18 18 8
28 28 30 30 28 26 31 33 29 31 34 29 26 25 22 19 20 21 20 16 10 13 10 10 7 10 12 18 7 10 13 13 13 10 8 10 12 6 6 2 13 12 10 3 18 12 7
28 28 28 29 31 31 28 29 31 26 29 40 36 30 20 20 19 21 20 14 10 7 4 5 5 8 9 12 11 10 11 14 10 10 13 11 9 11 5 4 4 9 4 5 11 11 6
28 29 29 29 29 30 32 31 30 34 30 37 42 34 19 18 18 20 14 9 5 3 3 5 6 4 8 9 12 17 15 11 10 9 8 6 8 6 7 4 5 5 6 2 1 1 5
29 30 30 30 29 30 30 33 34 31 39 34 30 31 21 15 18 16 11 4 3 2 2 4 5 5 6 10 13 10 7 13 10 10 2 4 3 4 3 3 5 6 8 4 10 3 6
31 31 31 32 30 32 31 29 30 35 31 38 32 37 21 14 16 14 5 4 3 1 8 5 2 5 11 10 7 9 4 2 8 5 1 3 1 3 1 2 4 3 10 3 10 10 6
30 30 31 31 31 32 32 32 32 29 27 33 29 33 22 11 14 9 6 5 4 2 6 6 6 13 11 5 3 4 2 3 1 1 1 2 2 3 5 6 5 9 15 11 8 7 2
31 33 32 32 33 32 33 35 30 34 27 28 23 28 22 7 11 7 7 6 4 2 1 3 4 6 4 1 2 6 5 3 3 2 3 2 3 3 5 7 5 4 8 7 8 5 3
32 31 33 35 34 34 34 34 34 34 31 24 20 28 23 6 8 10 8 8 5 3 4 3 2 2 2 1 1 4 6 4 1 4 3 4 3 2 6 6 4 3 5 14 12 7 2
33 33 34 35 37 37 36 34 36 35 33 26 20 28 23 8 6 11 6 8 7 4 3 2 2 1 1 0 5 5 3 5 3 4 3 2 1 5 2 8 8 5 10 10 11 7 2
31 32 33 32 34 39 35 37 36 36 33 28 27 27 21 12 17 12 10 10 9 5 5 1 3 2 0 2 2 4 2 2 4 5 5 3 1 3 3 3 1 11 15 10 8 3 1
31 32 32 34 35 37 37 38 36 38 34 20 29 27 23 13 15 16 14 11 5 3 3 3 4 3 2 1 2 1 3 2 2 3 5 5 2 2 3 3 15 8 3 2 3 2 2
32 32 32 34 34 35 38 39 42 39 41 24 29 28 20 16 14 18 20 3 3 3 5 3 4 3 3 2 1 2 1 2 4 4 4 3 3 6 9 3 8 5 1 3 4 2 1
33 33 34 34 35 36 37 40 43 42 40 32 24 23 18 22 21 23 11 3 7 6 6 7 4 3 1 0 1 2 1 1 1 1 4 4 4 3 2 2 2 2 2 1 6 2 3
34 36 35 34 35 37 40 40 40 38 47 16 21 21 24 25 22 23 2 4 4 4 4 6 5 4 4 3 1 2 0 1 2 0 1 3 4 3 4 3 5 2 5 2 3 3 2
34 35 35 34 37 39 41 38 37 34 29 4 12 11 22 25 23 13 3 6 4 7 4 6 6 4 4 5 4 1 3 2 1 2 3 3 3 4 2 5 2 4 3 6 4 3 3
35 36 37 35 37 38 37 35 34 34 38 16 7 2 25 30 8 5 4 6 4 5 3 2 5 3 5 5 4 3 3 1 3 1 3 2 4 3 0 3 0 2 3 3 4 2 2
37 38 38 36 36 36 36 35 33 33 35 21 7 3 29 31 4 4 2 2 3 5 5 4 4 4 4 6 4 2 3 3 3 3 2 2 2 3 6 5 4 3 2 4 5 3 2
37 37 38 36 36 39 34 34 31 39 28 27 10 3 6 20 7 5 5 5 6 6 4 4 3 3 4 4 1 6 3 2 3 4 5 4 3 4 6 4 2 1 2 4 4 3 3
37 39 38 36 35 37 35 33 35 38 20 18 12 5 5 5 9 3 4 5 12 5 2 7 1 3 6 3 2 3 4 3 4 1 3 3 3 2 3 3 3 2 3 4 4 4 4
39 37 37 36 36 35 34 33 40 30 14 26 10 5 6 2 14 7 3 5 11 4 5 3 6 4 4 6 5 6 5 3 2 3 3 3 2 2 2 3 3 1 3 3 3 2 5
38 38 36 36 35 34 32 35 36 26 13 16 12 9 10 4 6 10 5 4 10 7 4 10 6 4 5 4 5 11 5 6 5 6 3 2 4 3 2 3 4 4 4 6 5 4 5
37 37 36 34 36 34 32 35 36 19 24 13 14 16 5 3 5 10 10 5 8 5 6 2 10 5 6 20 21 15 16 13 7 4 4 4 3 2 1 3 2 4 3 3 5 1 3
36 38 36 36 35 32 33 35 19 17 38 12 18 7 2 2 3 5 6 4 13 14 5 5 3 8 19 8 5 4 4 3 3 4 3 2 4 2 3 2 5 2 3 5 5 3 2
35 36 35 34 33 29 37 29 16 11 36 23 17 5 1 3 1 1 3 5 4 4 3 4 8 14 4 3 3 3 4 3 3 2 5 4 6 3 1 3 4 5 3 1 3 4 2
34 34 34 33 31 30 32 20 2 16 34 25 11 4 1 6 5 3 2 4 8 7 4 4 4 3 3 2 3 3 2 4 4 6 3 2 2 2 2 1 6 6 4 3 4 5 7
32 33 33 31 30 32 20 5 13 21 38 27 8 4 2 6 10 4 4 4 6 8 5 7 5 2 3 3 2 2 3 5 3 5 5 5 5 3 3 2 7 4 3 5 4 10 11
31 31 29 26 30 22 12 9 13 22 38 33 5 8 4 6 10 15 14 11 10 8 12 7 3 4 4 4 1 3 2 1 4 3 0 3 6 4 7 5 2 4 4 3 9 11 9

GFSGBSN_850_spd_084.txt.gz
Wind_Speed
24 24 25 26 28 28 28 28 29 28 26 30 30 29 25 23 18 22 22 19 18 17 19 10 9 13 12 8 15 11 9 10 12 13 11 11 10 6 8 5 15 21 12 18 17 19 20
26 27 26 27 27 27 28 31 31 30 25 27 24 26 27 32 20 19 21 20 19 14 17 12 10 12 12 8 6 8 10 11 12 13 13 11 8 7 9 7 9 12 21 9 17 17 9
26 27 28 28 29 29 28 27 30 31 26 12 12 21 30 30 22 16 19 21 18 14 15 11 10 10 12 19 11 11 13 15 13 13 13 12 13 11 6 4 24 26 10 8 6 9 7
27 28 29 29 28 30 29 30 29 27 28 24 26 24 28 29 21 16 19 23 17 14 10 5 5 8 9 15 11 15 11 15 14 12 14 15 11 12 13 4 3 7 6 7 2 12 10
27 27 28 29 28 28 29 28 30 29 26 25 26 25 22 25 21 15 18 20 13 11 6 5 6 6 9 8 13 14 16 15 14 12 12 8 5 5 3 4 4 7 2 7 2 13 10
27 27 27 28 28 29 28 29 30 32 31 24 22 22 22 27 17 10 14 15 10 7 6 6 6 4 6 8 11 11 4 7 10 11 8 5 5 2 3 5 5 6 5 3 4 2 14
26 26 27 28 28 29 29 30 30 30 32 28 22 21 17 23 16 10 7 9 3 6 10 8 5 5 7 10 5 6 6 3 4 6 2 4 2 3 2 7 3 6 6 9 5 4 5
26 27 27 27 29 30 31 32 32 32 33 32 21 21 18 22 15 10 4 8 9 6 5 12 12 11 12 9 2 5 3 1 2 2 3 3 2 3 12 8 7 4 9 5 8 9 4
27 27 29 30 30 31 33 33 33 31 31 33 19 21 17 19 13 10 6 12 10 7 2 4 6 5 5 5 3 4 3 2 3 3 5 2 1 2 4 9 3 4 7 8 4 4 9
30 32 31 32 35 33 34 33 33 33 30 31 26 21 26 23 13 8 7 8 8 3 4 3 3 3 2 3 3 4 1 4 4 2 3 2 2 3 5 4 4 3 8 10 13 5 1
31 31 30 31 31 33 35 35 35 36 35 33 29 21 28 28 8 10 3 8 7 2 2 1 3 2 2 3 2 2 4 7 4 3 2 1 2 4 3 3 5 5 8 9 10 8 5
32 30 31 32 32 32 33 34 34 36 37 36 34 20 18 23 16 10 7 8 5 4 6 2 4 2 1 3 3 1 4 7 4 3 3 2 1 2 2 6 5 8 11 8 5 5 3
32 32 32 33 33 34 34 34 35 37 38 41 33 27 24 24 16 15 14 11 3 3 2 3 4 3 2 1 3 0 1 3 2 1 3 3 5 3 5 6 2 5 3 3 3 2 1
32 32 33 34 33 34 34 35 35 38 41 41 37 29 27 28 12 20 19 3 2 3 5 3 4 3 2 2 1 2 2 2 1 1 3 4 3 6 7 3 5 3 3 2 4 3 3
32 32 32 36 34 36 35 33 35 36 39 36 46 17 21 25 19 25 16 3 6 6 6 8 4 3 1 1 1 2 1 1 2 2 4 3 4 4 4 3 2 3 2 2 5 3 4
34 32 31 35 38 37 35 34 32 33 34 36 45 11 28 24 27 26 3 6 3 3 4 5 4 3 4 3 2 1 1 1 1 3 1 2 5 3 4 6 4 2 2 1 3 3 3
35 35 33 34 38 37 35 34 31 31 33 33 29 2 12 29 29 15 4 5 3 9 6 5 5 4 3 4 4 2 2 2 1 2 3 2 3 1 1 1 2 2 2 5 5 3 3
33 34 32 35 37 36 35 34 30 29 30 33 14 3 16 29 5 3 3 3 4 5 3 3 5 4 5 5 3 2 3 1 2 0 3 2 4 4 2 2 3 3 2 3 4 1 1
32 34 33 36 36 35 33 31 31 28 24 31 8 6 11 28 3 3 1 3 3 3 3 4 3 3 3 5 4 1 2 4 1 3 3 3 2 3 7 5 4 4 4 5 6 2 1
31 33 34 36 35 35 32 30 30 28 27 24 6 2 3 12 1 2 4 3 4 4 2 4 4 5 4 3 3 4 2 3 3 3 7 4 3 4 5 3 1 2 1 3 4 3 3
31 34 35 35 35 34 31 30 28 25 26 21 6 3 3 3 5 3 3 4 5 4 1 3 3 2 6 3 2 2 2 2 4 4 5 3 4 3 4 4 2 2 3 3 2 4 4
31 33 36 35 32 32 31 30 28 27 26 21 6 3 2 2 11 7 5 3 6 1 4 3 5 4 4 6 5 7 5 3 2 5 3 4 1 3 5 6 5 1 2 4 3 3 3
31 34 35 34 34 32 32 29 30 26 16 9 9 8 6 2 4 7 5 4 6 5 7 8 8 5 4 5 4 8 8 8 6 4 2 3 3 3 2 5 6 4 5 5 3 2 5
32 34 33 33 32 32 30 30 29 20 13 21 10 12 5 2 2 4 4 5 7 0 6 2 8 5 5 23 21 19 18 16 12 7 4 4 3 2 1 3 2 4 1 1 4 3 6
32 33 33 32 32 32 31 29 28 20 7 13 18 9 4 2 2 5 5 6 6 8 4 4 4 9 18 8 4 4 4 2 4 5 4 3 4 3 3 2 5 1 2 4 5 4 5
31 32 32 32 33 30 28 29 27 14 7 21 19 9 4 5 2 1 2 7 3 3 3 3 9 18 5 3 3 3 4 2 1 3 3 5 5 4 2 2 3 4 1 4 2 4 2
29 30 32 33 33 29 30 29 8 4 23 20 14 10 5 6 2 1 1 3 5 6 4 2 3 3 4 2 2 2 2 2 4 6 4 3 2 2 2 1 6 5 2 2 4 4 5
27 28 31 31 31 34 28 15 7 19 25 24 16 7 4 5 8 2 2 3 4 5 4 6 5 1 3 3 3 2 2 4 2 2 4 5 5 3 2 1 6 2 3 5 3 3 7
24 28 28 30 32 28 16 12 9 20 29 19 14 9 7 4 8 13 14 11 8 5 9 8 2 3 4 4 1 3 2 2 4 3 1 2 5 5 7 5 2 2 3 2 5 7 7

GFSGBSN_850_spd_087.txt.gz
Wind_Speed
23 24 25 26 25 24 26 26 26 25 25 27 21 18 21 20 22 23 20 18 16 19 17 16 13 13 10 8 14 10 11 10 10 9 8 7 10 11 9 5 12 18 16 14 26 24 18
24 25 24 26 25 26 25 26 27 28 24 21 17 15 10 19 29 26 20 15 13 19 16 11 11 11 12 11 9 8 10 10 10 10 9 9 8 9 13 9 14 9 18 29 32 31 18
25 25 25 24 24 24 25 24 25 28 29 24 16 17 24 25 25 29 20 15 14 15 13 12 10 12 13 20 12 11 13 14 14 13 12 11 12 10 6 6 22 14 11 7 28 22 7
24 25 23 23 23 23 23 24 25 25 27 28 25 20 24 21 19 26 18 14 15 12 11 7 3 10 11 15 12 12 12 12 14 12 12 14 12 14 9 14 5 5 2 6 11 12 6
26 26 25 24 24 25 25 25 26 24 25 30 26 20 21 13 16 23 17 12 11 8 6 2 5 9 8 7 10 11 12 14 13 14 14 12 7 7 9 4 5 7 6 10 1 12 8
26 25 26 25 25 25 26 27 26 27 27 27 28 21 27 12 21 22 15 10 5 6 6 7 9 6 10 5 7 6 6 4 5 7 8 5 5 2 2 3 4 10 8 3 4 7 9
26 27 26 26 27 26 26 27 26 26 27 26 27 21 22 10 17 21 12 5 2 3 10 11 9 7 5 4 5 3 2 2 3 4 2 5 4 3 5 12 10 9 10 6 3 5 6
28 25 27 27 26 28 28 26 26 26 29 29 26 25 20 17 15 15 10 6 5 1 5 12 19 16 13 8 4 2 3 0 3 3 2 3 5 5 3 3 4 8 16 8 8 9 5
28 28 29 28 29 29 29 29 28 29 29 30 27 25 23 21 18 15 12 8 6 4 1 4 14 9 6 7 3 3 3 3 4 2 5 5 2 2 4 3 5 9 15 9 6 7 7
30 30 32 30 31 31 31 32 31 30 31 32 30 25 29 24 17 19 13 9 7 4 3 4 5 4 5 5 3 3 4 4 3 3 3 5 1 2 7 0 2 4 4 10 14 7 2
32 31 32 31 33 31 32 31 30 32 34 36 31 27 27 19 15 13 6 8 9 4 3 2 3 5 4 5 2 3 5 4 4 3 2 1 1 4 4 3 2 1 7 6 4 5 4
32 32 31 32 31 32 33 32 30 29 32 33 30 31 21 22 18 11 8 11 10 3 4 3 5 4 3 5 3 4 3 8 7 1 3 2 1 1 1 6 0 8 13 7 5 3 2
31 34 34 31 31 32 35 37 35 31 30 31 30 34 21 29 22 15 15 15 2 3 2 4 4 4 3 3 3 3 3 2 1 2 0 1 2 1 3 7 7 5 2 2 2 3 1
32 34 37 33 32 32 35 37 32 31 31 32 35 36 33 35 21 20 22 2 3 2 4 1 4 5 3 1 2 2 2 2 5 3 2 4 3 6 7 3 3 1 1 2 4 3 3
31 33 36 34 31 33 34 37 33 32 32 33 37 39 24 22 24 28 17 2 6 4 5 7 3 4 1 1 1 2 2 2 2 2 2 4 4 4 6 1 0 0 4 2 4 3 4
32 33 33 34 33 33 36 34 33 32 33 34 36 31 8 16 27 30 3 3 1 2 1 2 3 2 4 4 3 1 1 1 3 1 3 2 5 5 5 4 3 2 2 1 3 3 3
30 31 31 33 32 34 35 32 32 30 32 29 33 13 10 26 32 14 2 4 1 3 3 3 3 4 3 4 3 2 1 2 3 3 3 2 3 1 2 2 2 4 3 3 4 3 3
29 29 30 32 34 34 33 32 31 30 31 24 13 3 1 30 4 2 2 2 3 4 5 3 3 4 5 4 3 2 2 1 8 5 4 2 5 3 1 1 2 1 3 1 2 1 3
29 27 28 31 33 33 32 31 28 28 26 28 15 6 8 22 2 3 1 3 4 3 3 3 1 2 2 4 4 2 2 4 4 4 1 1 3 3 5 4 3 4 3 3 4 3 1
28 25 28 30 32 31 30 28 27 27 27 16 7 3 5 6 4 4 3 3 1 4 3 3 3 4 4 3 5 3 2 4 4 3 7 4 4 3 4 2 0 2 3 3 4 3 2
27 25 27 31 30 29 31 28 26 25 17 23 3 3 3 2 1 3 2 2 3 4 1 1 3 3 5 4 3 3 2 1 4 5 5 4 4 4 4 4 2 1 1 1 3 3 3
26 25 28 32 30 28 26 26 25 24 16 12 3 3 1 2 11 5 2 2 4 4 1 0 5 4 3 5 5 6 5 2 2 5 3 3 1 2 6 6 4 1 1 2 1 3 3
25 25 28 29 29 27 27 25 24 20 15 5 3 3 1 2 2 4 4 2 3 2 6 2 7 5 4 3 6 10 8 9 6 5 3 3 4 2 2 5 7 4 3 4 2 1 6
24 25 28 29 28 30 27 25 23 19 7 14 22 8 3 1 2 3 4 7 2 2 1 4 6 4 3 24 24 19 21 16 14 7 3 5 4 2 2 2 1 3 1 1 4 3 4
24 25 27 27 29 28 25 25 25 18 11 10 11 10 4 1 1 3 4 3 2 7 4 3 5 7 16 4 4 4 4 4 5 6 6 4 4 3 2 2 4 2 2 2 3 2 4
23 25 26 28 29 27 26 28 17 11 1 7 15 11 4 5 1 1 1 4 2 3 2 3 5 16 3 3 3 2 2 2 0 3 4 3 5 4 2 3 3 4 3 2 2 3 1
23 25 27 27 28 29 29 21 11 6 4 11 15 7 3 6 2 1 2 3 1 5 3 3 3 3 5 3 3 2 1 1 3 6 3 1 2 3 2 2 6 5 3 1 3 4 2
22 24 27 27 29 31 26 11 4 9 12 16 12 6 2 6 7 2 2 2 1 4 4 5 4 3 4 2 2 2 2 3 2 3 4 5 4 3 2 1 5 5 4 5 3 2 5
19 22 24 26 28 27 19 9 3 12 21 13 8 10 10 5 9 12 12 9 6 4 8 7 3 3 5 4 2 3 1 1 3 2 1 2 5 4 7 5 2 6 3 4 4 5 8

GFSGBSN_850_spd_090.txt.gz
Wind_Speed
21 22 22 22 22 22 23 23 22 25 27 26 21 17 14 14 14 23 14 19 18 15 13 11 9 11 9 4 12 13 14 12 13 11 6 7 10 11 12 9 12 19 21 22 27 27 27
22 24 24 22 22 22 23 22 25 26 24 27 27 20 20 19 19 15 21 26 16 14 12 10 8 10 9 8 7 6 8 8 9 11 9 7 8 9 12 11 13 11 15 25 26 22 24
23 22 23 23 23 23 24 25 25 24 23 23 27 25 21 22 22 18 21 26 16 14 14 9 10 12 13 14 9 12 12 11 13 13 12 11 10 10 4 9 14 20 16 15 21 23 12
23 23 23 24 23 24 23 25 27 23 23 24 25 27 24 18 25 23 25 22 14 13 11 5 9 9 8 8 9 12 13 14 13 12 13 11 11 15 17 7 9 10 11 10 5 12 17
24 25 25 26 25 24 25 25 25 24 25 25 26 28 23 24 21 17 20 20 12 10 5 7 8 7 7 7 6 8 11 10 11 13 14 11 10 10 5 3 6 6 4 11 6 15 14
24 26 25 25 26 25 26 25 26 23 25 27 28 28 26 21 16 17 17 18 6 7 8 7 7 4 8 4 4 6 4 4 7 6 8 11 9 5 4 5 5 5 6 6 11 11 18
25 26 26 27 25 26 26 26 25 26 26 27 28 27 24 25 17 15 18 4 5 3 13 11 10 5 4 4 4 3 2 3 6 6 5 8 6 8 9 9 13 11 9 10 8 9 12
27 26 28 27 27 27 28 27 28 27 26 26 29 23 23 24 18 12 9 6 8 3 6 16 10 12 9 5 4 8 8 6 5 5 4 5 9 7 3 10 9 13 13 6 3 10 3
28 28 28 28 28 29 28 29 28 25 24 25 26 26 22 20 21 14 15 12 8 5 4 5 12 9 8 9 5 6 10 3 5 6 7 6 9 5 6 6 10 16 12 8 5 8 3
29 28 28 29 28 27 30 29 31 29 28 26 26 24 24 21 14 12 18 8 8 5 2 6 6 6 8 6 4 8 8 4 5 4 4 7 3 6 8 3 3 8 8 8 7 8 3
29 28 30 29 33 30 27 28 34 33 29 26 26 23 22 19 18 15 13 6 10 4 3 8 6 8 8 6 3 8 9 5 6 3 3 1 1 6 7 2 3 3 12 10 8 3 1
29 29 31 31 33 33 29 29 32 31 29 27 24 23 23 21 16 13 8 12 9 3 5 6 6 7 6 6 4 4 5 9 6 3 2 5 6 3 3 0 6 7 9 6 3 3 3
31 28 31 31 30 31 30 30 32 31 30 29 26 25 25 21 13 7 14 13 3 4 2 6 5 7 7 6 5 6 4 3 2 3 3 2 3 4 2 3 4 8 4 2 1 3 4
30 26 29 30 28 32 30 31 32 31 31 29 28 34 29 21 17 11 20 3 6 3 3 4 5 9 5 6 3 4 4 0 4 2 0 1 2 7 6 4 3 3 4 4 2 3 4
35 29 32 27 27 30 32 31 31 31 32 31 37 34 31 20 24 21 16 4 2 1 4 7 8 7 4 3 2 4 2 1 2 2 2 2 4 5 4 3 2 2 1 5 3 5 4
24 26 29 25 26 30 32 32 31 31 30 32 36 32 16 13 28 34 3 1 2 1 4 8 2 2 6 6 4 2 1 2 2 2 3 2 4 7 3 3 2 1 2 1 2 2 4
25 26 24 23 26 30 31 31 31 29 30 31 32 10 16 26 32 13 3 3 2 2 5 2 2 4 3 4 1 2 3 3 4 3 1 1 3 5 4 6 8 3 1 2 2 3 2
32 24 23 23 25 28 29 30 28 29 31 29 13 2 5 28 5 1 3 4 4 5 4 3 1 3 4 3 3 2 3 3 5 5 4 4 4 3 3 2 4 4 6 5 3 3 3
30 24 23 22 25 28 28 28 26 27 29 28 15 7 17 14 3 2 3 4 3 1 3 2 1 0 1 3 4 2 3 3 6 3 3 2 3 2 1 1 2 3 4 4 2 2 4
23 23 20 22 26 27 26 26 26 26 26 28 7 2 6 5 5 5 3 2 2 6 5 2 2 2 3 4 5 4 4 4 3 5 6 2 4 3 2 4 3 2 5 7 5 3 6
25 22 21 21 25 26 25 26 24 24 21 19 7 4 4 2 4 5 3 1 3 3 6 3 2 2 4 3 4 4 3 3 3 5 2 1 4 4 6 5 2 3 5 8 7 5 5
24 20 19 23 24 24 25 23 21 21 19 11 4 3 5 3 6 5 1 0 2 4 2 3 1 5 2 4 2 5 5 1 1 3 3 2 4 4 3 4 5 3 5 5 5 3 5
21 19 20 22 21 23 23 21 18 16 14 5 7 9 3 2 2 2 3 3 2 3 3 4 1 5 9 4 4 9 6 7 4 1 3 3 3 1 2 4 2 4 4 2 3 1 1
19 16 20 20 21 23 22 19 18 15 9 8 8 8 2 2 0 1 2 8 2 4 2 5 4 2 3 19 18 16 17 13 12 9 5 3 3 3 2 5 3 2 2 3 3 4 4
17 17 18 20 21 22 23 22 13 8 5 12 6 4 2 2 1 1 1 3 2 5 5 3 6 6 11 3 5 4 2 2 6 8 7 2 3 3 1 0 2 2 2 2 2 2 1
15 17 20 20 20 23 22 16 7 2 2 10 7 8 1 2 2 0 2 1 3 2 1 3 7 10 2 2 2 1 2 2 3 3 5 5 4 2 1 1 3 3 2 2 2 3 2
16 16 19 20 21 23 22 15 4 5 6 10 10 7 3 4 1 2 0 3 4 2 2 4 2 2 5 2 2 1 2 1 3 5 4 3 2 3 3 2 3 3 3 3 2 3 4
15 17 20 20 22 23 19 9 1 7 10 12 8 5 3 3 4 3 2 3 3 1 1 6 3 1 3 1 1 1 1 2 2 2 3 4 5 3 4 3 4 6 6 4 3 2 4
13 15 18 19 19 21 12 8 13 12 17 11 7 5 5 3 7 10 9 7 5 4 3 5 1 2 3 2 1 2 2 2 2 2 2 4 3 1 5 1 2 7 1 4 2 2 5

GFSGBSN_850_spd_093.txt.gz
Wind_Speed
19 20 20 20 19 20 20 22 22 23 23 23 22 27 25 25 20 17 18 25 17 14 17 17 11 10 7 7 13 9 11 10 7 8 7 7 9 11 14 11 15 16 21 30 30 27 28
20 19 20 22 20 22 24 22 25 26 24 22 25 24 27 24 25 24 17 17 22 18 17 15 10 9 8 10 4 6 6 6 7 8 8 8 8 8 12 13 18 17 20 24 28 30 27
22 21 23 21 22 23 23 24 24 26 24 26 25 27 31 29 25 23 26 15 23 20 17 13 9 7 11 17 4 6 8 7 8 10 11 10 10 9 7 13 17 16 17 17 23 25 23
20 23 23 23 25 24 25 24 25 28 24 26 26 29 30 29 27 27 24 19 24 21 11 7 8 8 9 7 9 11 8 9 9 9 12 10 8 14 20 17 17 16 15 12 12 17 20
23 24 24 25 25 26 25 24 25 25 26 29 28 29 31 31 28 32 18 23 20 13 9 6 6 9 9 9 8 8 8 9 7 8 10 9 7 12 11 11 7 9 9 14 12 15 10
24 25 24 25 26 25 28 26 29 26 27 29 29 31 32 29 28 20 8 22 12 5 7 8 8 7 12 7 8 5 4 5 5 5 7 12 8 9 5 5 8 6 14 12 13 6 18
28 25 24 26 26 26 22 26 25 26 26 26 22 30 26 27 26 19 4 5 7 3 17 10 9 5 9 8 6 5 5 7 6 6 8 16 8 10 15 15 18 18 16 16 15 9 16
28 25 26 26 28 28 28 26 24 27 28 26 25 26 26 26 25 16 16 5 2 1 7 23 15 16 5 6 4 9 9 8 6 8 12 6 12 14 6 8 12 17 18 18 5 8 11
30 28 26 26 30 25 32 29 24 25 28 27 25 21 27 23 25 13 9 14 11 3 4 6 19 17 9 10 5 11 14 6 7 8 11 13 9 5 5 8 10 13 15 11 5 10 7
36 32 28 25 26 27 30 29 25 26 26 25 24 22 22 22 16 12 13 11 3 4 3 8 9 8 10 6 5 8 12 4 5 8 12 9 12 6 7 10 8 10 11 6 6 8 2
44 38 30 23 25 27 28 28 27 26 25 26 23 21 19 16 19 11 10 9 7 2 4 9 8 9 11 9 10 8 8 6 9 7 4 2 5 7 11 6 7 5 4 5 10 10 4
55 47 26 25 28 25 28 28 28 26 27 24 24 19 18 15 12 18 14 5 10 2 5 5 7 8 9 10 6 6 5 7 8 3 6 12 5 5 5 10 10 11 7 10 13 9 1
49 46 16 25 26 20 27 29 28 28 26 26 24 19 21 19 16 5 6 14 3 5 6 5 7 9 12 8 8 8 7 5 3 2 3 1 2 4 8 6 7 8 8 3 5 1 3
36 14 19 31 21 24 27 29 29 28 28 27 25 26 25 22 11 13 8 0 6 5 5 3 9 12 6 10 5 7 2 1 3 1 2 3 2 5 6 2 1 3 4 4 4 2 4
24 23 34 23 23 24 27 28 28 29 28 30 31 27 19 12 16 13 7 3 6 5 4 6 10 9 5 5 3 4 6 3 5 9 3 0 3 5 3 4 5 3 2 5 5 5 5
29 42 30 23 22 25 28 29 29 29 31 31 32 17 14 9 24 17 1 4 4 6 3 8 2 4 5 7 5 4 3 3 2 1 3 1 3 3 5 5 5 3 6 2 1 2 5
36 34 23 21 23 26 28 28 29 30 32 34 18 9 18 25 23 7 2 3 5 8 6 4 3 4 2 5 1 2 3 3 5 3 2 4 2 1 4 5 7 3 6 3 3 3 2
35 35 23 21 22 26 27 29 29 30 32 31 12 4 16 21 4 2 1 4 4 6 6 3 3 5 2 2 3 2 6 6 9 6 3 4 4 2 2 1 2 2 9 9 4 4 4
36 30 22 22 24 26 27 28 26 27 28 20 6 8 16 3 2 2 4 4 5 4 5 6 3 5 1 2 1 4 4 4 8 6 7 5 3 1 2 2 0 6 11 10 2 3 4
35 28 19 20 24 25 26 26 24 26 26 12 5 2 4 6 3 6 3 4 3 4 5 6 3 3 3 4 3 5 5 4 5 6 6 6 5 6 6 5 4 5 11 13 6 6 12
33 25 17 22 22 22 23 24 22 22 18 7 5 2 3 2 5 2 4 3 2 4 5 4 2 2 2 2 4 4 3 5 4 5 5 6 4 4 8 6 5 4 7 11 12 11 10
30 21 18 21 19 21 21 20 18 19 13 19 5 3 4 4 2 3 3 3 2 3 4 2 2 5 2 4 5 4 2 3 4 3 4 3 2 3 3 5 5 5 7 6 8 8 10
27 19 19 19 17 19 20 18 16 14 9 5 7 7 1 5 2 3 2 3 0 3 3 5 7 3 8 7 10 9 9 9 6 4 3 3 2 3 3 6 4 3 7 5 4 4 3
24 17 18 18 16 16 18 18 15 8 4 2 5 3 2 3 1 3 4 4 4 7 4 7 8 2 3 5 9 11 11 11 11 7 5 2 3 1 1 3 2 3 4 5 4 2 4
22 17 17 17 17 16 16 14 7 3 2 5 2 2 1 2 2 3 1 3 2 4 5 6 7 6 4 5 3 2 2 2 5 6 7 5 0 1 2 1 3 1 1 2 4 5 3
20 17 17 18 19 17 14 13 7 4 3 8 4 6 1 4 3 2 3 1 2 1 4 4 4 7 5 2 1 1 3 4 2 2 4 4 3 2 1 0 0 4 3 1 3 3 3
18 15 16 18 18 20 16 10 2 4 9 8 9 6 1 2 1 1 1 3 3 1 3 3 1 5 7 2 1 1 2 3 1 2 1 1 2 3 1 2 2 5 3 1 2 4 4
15 13 14 16 18 18 18 9 9 8 15 10 7 3 1 2 2 3 2 1 3 2 0 5 4 2 0 2 2 1 2 1 2 2 1 3 2 2 1 2 2 5 2 2 3 3 3
14 10 11 11 12 19 13 6 10 15 12 4 4 4 4 2 3 3 4 4 5 3 0 4 3 1 2 1 1 1 2 2 3 2 2 3 2 3 3 2 2 5 3 2 2 2 2

GFSGBSN_850_spd_096.txt.gz
Wind_Speed
23 24 23 22 22 22 22 22 22 23 23 22 24 24 25 27 28 25 25 20 13 17 20 13 11 8 4 6 10 10 8 8 6 10 8 9 10 10 11 10 12 12 13 22 24 26 27
23 23 24 25 25 24 24 22 23 24 24 23 24 25 27 29 28 29 23 23 18 14 18 16 10 7 8 6 3 8 8 8 9 9 8 9 9 7 8 8 7 10 20 23 24 26 27
24 23 22 23 22 24 24 24 24 24 25 25 26 27 28 29 30 30 28 24 24 18 20 15 11 5 8 12 5 9 8 8 7 9 9 10 9 8 5 8 8 8 9 17 19 25 23
26 26 25 25 24 26 23 27 25 26 26 24 27 25 29 31 31 30 28 24 23 19 20 11 7 8 7 2 14 11 8 8 7 8 9 10 9 10 13 11 15 13 9 12 10 19 26
28 26 25 25 25 25 25 22 24 23 24 25 27 27 25 29 29 28 29 14 14 21 11 8 10 8 4 9 13 13 10 10 8 6 7 8 7 10 7 4 5 6 8 14 16 18 7
30 29 29 27 26 25 28 26 27 24 23 26 24 25 27 26 28 26 26 12 16 12 12 10 8 6 11 7 11 10 9 9 8 6 4 8 7 6 5 5 7 8 5 10 12 4 10
37 37 35 33 26 26 25 24 29 26 21 25 23 25 26 25 25 23 21 16 4 3 17 8 12 2 10 12 11 8 8 10 8 9 7 16 5 10 11 14 16 15 18 18 17 12 9
50 49 45 41 31 23 19 23 25 26 22 23 23 24 23 25 24 16 10 10 4 6 5 14 9 14 10 9 6 10 11 8 8 8 10 3 10 13 15 11 11 15 19 19 16 15 10
48 49 43 46 21 18 19 20 21 26 22 21 22 23 23 24 24 6 13 15 10 3 3 5 18 15 11 7 5 19 16 8 7 11 8 9 6 3 8 10 12 13 15 17 7 8 8
51 48 52 26 12 17 25 20 23 23 22 22 22 20 22 24 12 13 8 13 18 8 1 7 9 8 13 5 5 11 13 5 5 5 7 9 15 17 7 9 8 12 8 13 15 6 5
47 33 16 11 21 26 18 21 23 24 23 21 19 20 19 16 17 8 14 14 1 1 4 7 10 10 10 8 14 7 8 6 7 5 4 2 7 6 9 13 7 8 13 6 9 7 3
41 44 33 35 28 20 22 25 25 23 22 21 19 17 15 13 7 9 9 9 6 3 2 4 6 6 11 11 7 7 4 4 4 4 6 12 3 2 4 12 12 14 12 9 7 4 3
50 41 34 27 26 25 26 25 25 24 24 22 19 16 14 12 7 6 9 4 2 2 1 6 6 9 11 8 8 7 6 4 3 3 3 2 4 5 5 6 6 6 6 1 3 3 3
45 36 33 30 26 25 25 28 28 26 25 26 26 23 15 12 7 5 4 1 1 5 5 7 8 10 3 10 4 7 2 1 4 3 3 2 1 2 1 2 4 2 4 2 4 3 1
38 33 28 24 24 27 28 28 28 29 31 29 18 14 7 5 9 5 4 1 4 3 5 7 10 5 3 5 1 3 0 3 6 8 2 2 3 4 8 5 2 3 2 4 4 5 2
34 34 27 24 26 29 29 29 30 32 29 22 19 25 18 16 16 9 2 4 4 10 4 2 2 2 5 5 2 3 5 4 2 7 9 3 2 4 4 5 6 4 7 3 2 5 3
36 32 24 23 26 28 30 31 32 33 19 16 19 16 20 19 13 4 2 4 5 13 12 8 7 4 7 6 4 4 5 4 8 4 5 5 3 4 4 4 5 3 4 3 2 2 0
35 31 21 22 25 28 30 32 33 30 21 18 20 5 14 2 0 1 3 4 4 8 9 4 4 9 7 3 4 4 5 7 10 6 3 3 1 0 4 4 2 4 5 5 3 7 4
32 28 20 23 23 25 28 28 30 28 14 16 8 7 3 6 2 2 2 5 3 7 6 6 7 6 3 4 2 4 5 3 10 4 5 6 4 1 2 1 3 4 10 7 1 2 4
31 26 20 22 22 23 25 26 26 24 9 10 4 2 3 3 5 3 4 5 3 4 5 6 2 1 1 5 4 3 3 3 5 4 6 3 5 5 3 2 3 4 9 10 4 5 8
28 23 23 20 20 21 23 25 24 20 10 7 4 2 1 2 6 6 6 2 4 7 4 7 0 6 5 2 5 3 3 4 4 3 1 4 3 4 5 3 3 4 6 10 11 7 6
26 22 20 21 17 19 20 23 24 16 11 10 3 2 4 4 5 3 3 3 4 4 6 5 6 6 12 9 6 4 5 6 5 5 3 4 1 1 3 6 5 7 9 8 8 8 9
23 23 17 18 18 16 17 19 20 12 9 7 7 5 2 4 3 4 3 1 2 3 5 7 8 5 8 6 10 7 9 9 5 6 5 4 1 3 2 4 4 3 6 7 4 8 2
23 21 18 16 16 18 16 15 13 10 6 5 5 4 4 2 2 3 3 3 6 7 4 11 13 5 7 11 5 5 10 11 11 8 10 3 3 2 2 2 3 3 2 3 4 6 7
21 20 18 16 17 18 17 16 10 5 2 1 3 4 4 2 3 2 3 3 4 6 4 7 6 6 9 7 2 2 3 3 5 6 7 6 3 2 2 1 4 4 1 1 1 3 5
19 17 17 17 18 20 20 12 7 1 3 4 1 3 3 3 3 5 4 4 2 1 2 3 2 10 9 2 2 3 4 3 3 2 1 4 3 2 3 1 2 2 3 1 3 1 3
17 17 14 14 16 18 16 8 5 6 6 6 2 2 3 4 2 2 3 4 2 3 1 2 3 6 7 3 2 2 1 1 2 4 4 2 2 2 1 2 1 3 2 2 1 3 3
14 13 12 10 13 17 13 9 9 9 10 7 3 4 2 3 2 1 1 2 4 6 1 3 0 2 2 2 2 1 2 1 2 2 1 2 0 3 0 1 4 2 2 1 4 4 6
14 11 8 6 9 13 10 8 9 12 8 7 10 8 2 1 3 3 4 4 5 5 4 2 1 2 5 1 1 1 2 1 1 2 1 2 2 1 1 2 1 2 4 5 5 6 3

GFSGBSN_850_spd_099.txt.gz
Wind_Speed
31 29 27 26 27 26 26 24 22 22 21 20 23 21 24 23 23 25 22 18 19 21 10 19 18 13 12 7 7 10 10 12 5 12 11 11 10 10 5 5 11 12 12 16 18 18 21
31 30 30 28 27 28 26 23 23 23 21 20 21 20 23 24 24 26 24 20 20 24 20 16 17 12 13 6 5 15 13 8 7 15 12 11 6 9 4 4 3 10 17 19 19 23 23
33 33 31 30 30 26 27 23 21 22 21 21 20 20 19 21 23 26 25 21 24 21 20 19 15 15 12 6 6 11 9 7 13 8 10 7 9 5 3 6 11 14 11 14 18 22 14
39 40 40 37 35 30 28 26 23 21 19 19 22 20 20 21 22 26 26 22 19 15 19 21 18 14 4 12 19 11 11 13 11 12 11 9 6 6 9 10 10 7 4 5 3 3 9
45 47 48 52 46 40 30 26 19 18 21 18 19 20 19 21 21 25 25 21 6 10 21 22 14 12 5 13 19 15 7 9 6 6 6 5 5 5 4 5 5 5 5 6 10 3 7
50 51 52 52 48 58 34 16 11 17 19 18 18 19 18 20 20 22 21 20 5 19 18 18 17 10 7 9 13 17 11 9 11 7 6 5 5 2 5 6 6 5 5 6 10 5 10
51 48 44 45 42 29 25 14 11 14 16 20 19 19 18 19 19 17 15 14 7 7 17 3 12 2 13 19 18 16 15 13 9 8 6 9 3 9 13 13 14 7 12 15 18 18 18
32 44 51 34 28 20 23 16 12 16 18 19 19 18 17 17 18 9 12 7 8 8 4 8 10 6 22 17 9 12 13 9 10 7 9 3 10 14 12 12 16 14 14 17 20 14 10
49 51 38 35 32 27 22 19 19 18 19 18 18 17 17 19 6 7 7 8 17 5 2 8 9 14 14 11 8 20 18 8 6 8 9 8 5 4 14 12 11 12 13 14 16 13 11
48 38 32 30 28 23 23 23 21 19 19 18 17 17 16 17 6 6 3 12 13 9 3 5 8 6 9 6 0 16 16 4 5 6 7 8 10 13 10 13 8 10 9 11 12 8 3
50 33 30 28 30 28 28 26 26 22 20 16 14 12 11 12 5 6 11 9 3 2 4 2 5 10 13 4 16 6 11 5 5 4 2 4 4 4 4 5 4 7 9 12 14 6 3
41 31 31 28 28 26 28 28 25 22 18 15 12 10 9 7 4 3 9 4 1 1 5 4 5 5 6 4 5 7 3 4 3 3 6 9 5 2 3 8 8 11 10 14 12 4 3
38 32 28 26 27 29 30 30 30 27 26 19 13 8 7 6 5 6 7 5 2 3 2 3 5 9 7 5 5 6 5 4 3 3 3 1 1 3 5 5 2 5 3 3 2 2 1
37 34 27 27 29 30 32 32 34 32 21 12 3 1 5 2 2 6 7 2 5 5 7 7 6 8 3 7 4 7 4 2 4 3 2 3 1 2 5 5 1 3 2 3 4 2 2
37 35 26 27 30 30 32 34 34 25 18 14 17 21 14 7 5 6 4 4 4 5 3 5 7 2 2 4 1 3 3 3 4 7 4 2 3 4 10 5 3 1 2 4 3 3 0
35 34 26 27 29 31 33 34 31 20 17 24 25 29 20 14 9 7 4 5 5 8 4 3 2 5 4 2 2 2 2 4 3 11 8 5 2 5 5 5 6 6 4 2 1 4 3
33 33 26 27 29 31 33 33 30 13 9 4 10 11 11 9 9 8 4 3 3 7 10 5 6 2 6 5 4 3 3 1 5 2 9 4 2 5 1 1 3 3 4 3 2 4 1
31 31 27 25 26 28 30 30 28 17 6 8 12 4 9 11 6 2 3 4 8 7 10 4 2 6 3 3 2 3 3 2 11 4 2 4 2 2 2 3 5 4 6 1 3 6 3
30 28 26 24 24 26 27 27 25 20 13 12 6 5 10 9 3 3 3 4 5 6 5 6 6 4 3 3 4 4 4 3 6 2 1 4 3 2 7 5 5 4 7 4 2 3 6
28 27 25 22 22 24 25 22 22 17 10 10 3 3 5 7 8 2 2 5 5 7 5 4 4 3 3 6 6 2 2 2 5 1 1 1 4 2 4 4 4 6 11 13 5 5 3
26 26 25 23 20 22 24 22 18 15 12 4 5 2 2 2 6 5 3 3 5 6 4 6 6 8 4 6 3 4 2 2 4 9 4 4 4 4 4 4 4 5 7 13 8 5 4
25 24 23 21 18 18 21 20 18 13 13 12 4 2 4 2 6 5 5 5 6 5 4 6 6 7 9 6 4 4 4 5 2 6 4 4 0 3 6 7 7 5 12 10 10 9 7
23 22 22 20 19 20 19 20 16 12 10 8 6 6 2 3 4 2 3 3 4 7 5 8 5 4 8 7 15 11 8 6 5 3 4 2 3 2 2 4 5 5 6 6 3 6 3
22 21 22 21 18 20 19 16 13 7 6 10 7 4 3 2 1 1 2 5 4 6 3 6 12 4 4 13 8 2 7 9 10 8 7 3 2 2 2 3 4 5 2 2 5 6 6
20 19 19 20 19 20 22 15 7 2 2 4 8 4 3 2 3 2 1 3 11 1 3 3 5 6 11 7 3 2 3 4 3 3 6 3 2 2 3 2 2 3 2 1 2 2 4
19 17 18 18 17 20 18 12 5 4 5 6 7 6 3 0 2 4 4 3 1 3 5 4 5 8 10 2 3 2 1 2 3 5 4 4 4 3 1 3 3 3 0 3 2 3 4
16 16 16 15 16 18 13 10 4 5 6 7 6 4 2 2 2 3 2 1 3 2 2 4 6 6 8 3 3 1 2 1 2 3 2 3 2 2 1 1 4 2 3 2 3 4 3
13 13 13 12 12 12 8 8 6 10 9 6 4 2 1 1 2 2 2 2 3 0 1 5 3 3 4 3 1 2 1 3 2 3 2 3 2 3 1 2 4 6 3 4 3 6 8
11 12 10 9 7 7 5 6 8 7 7 8 11 7 3 1 2 5 4 5 5 4 4 2 2 2 2 2 0 1 2 1 2 3 2 3 5 3 6 4 4 6 3 7 7 11 7

GFSGBSN_850_spd_102.txt.gz
Wind_Speed
35 38 41 40 40 37 33 29 26 22 20 16 16 18 17 18 17 19 21 19 16 15 17 10 18 24 19 9 8 10 14 17 15 15 17 10 8 5 3 3 5 6 7 15 21 23 23
39 41 42 45 45 42 38 32 29 24 22 16 11 12 16 18 17 18 21 19 17 15 17 8 21 18 15 3 9 15 16 16 9 18 15 12 6 9 4 4 2 5 10 12 15 19 19
42 45 47 44 47 47 48 36 32 26 21 12 7 12 14 15 16 18 21 20 17 20 15 18 24 17 12 9 5 13 14 9 12 14 15 12 9 5 1 4 5 9 6 11 14 21 10
44 43 41 51 46 43 39 34 27 13 8 7 8 10 15 15 15 17 19 20 18 18 13 20 24 19 6 13 14 19 14 14 11 10 10 6 4 6 3 5 6 5 3 5 5 2 8
38 39 45 39 40 43 34 31 9 6 6 9 9 10 13 14 14 16 18 18 8 2 16 27 25 11 6 16 20 15 13 16 13 8 8 7 3 4 2 1 4 4 5 6 7 7 5
37 50 41 40 37 36 33 27 24 17 15 12 14 13 13 14 14 14 14 12 4 17 28 28 22 11 11 14 21 20 9 15 12 9 7 6 6 1 2 3 4 4 4 5 7 5 8
54 45 33 33 27 33 30 31 28 23 19 15 14 13 13 13 12 8 11 3 5 5 4 5 13 4 18 16 21 20 17 14 11 6 5 4 2 10 13 10 11 7 10 15 18 18 14
43 36 31 31 30 30 28 29 25 22 19 17 15 13 12 12 5 7 8 6 10 4 4 4 18 13 26 26 13 19 18 8 7 5 6 2 9 13 8 7 13 15 18 19 17 13 7
44 33 30 29 29 30 30 28 27 22 20 18 15 13 12 7 6 5 8 6 7 3 2 3 8 15 17 13 9 17 21 11 7 6 10 6 5 2 11 11 13 15 15 16 15 16 12
34 31 28 28 28 31 30 28 27 22 19 16 14 11 9 2 3 8 3 7 6 9 3 3 2 6 9 7 4 15 21 5 4 8 9 7 11 9 8 11 12 14 11 17 15 10 6
31 30 26 27 30 32 33 32 29 27 18 11 10 8 8 10 4 8 8 7 3 2 4 3 3 13 10 2 13 8 15 4 3 5 4 6 3 6 3 7 11 9 8 8 13 13 7
32 29 26 27 31 33 37 35 32 26 19 12 9 6 6 7 7 5 7 2 2 2 5 3 4 5 4 2 2 6 5 5 1 2 4 9 5 3 4 3 6 10 11 14 11 7 6
33 27 25 28 30 34 35 35 33 29 22 15 6 5 3 5 5 6 1 4 2 5 3 1 4 5 6 3 5 6 5 4 3 3 3 2 2 3 3 5 3 6 4 4 2 2 3
33 28 26 28 30 35 35 34 31 30 24 17 6 5 3 6 7 8 4 3 6 8 6 4 4 5 2 4 3 5 3 2 4 3 2 2 2 5 6 5 3 4 2 2 4 3 3
31 30 25 26 31 34 37 32 27 21 26 22 13 14 12 10 10 13 4 6 5 3 3 5 4 3 0 2 2 1 2 2 3 7 3 2 3 3 9 6 3 1 3 3 3 3 1
29 28 27 24 28 31 33 32 23 15 17 15 17 15 17 18 16 11 4 8 5 7 5 3 1 4 3 2 1 1 1 4 3 10 3 2 3 5 4 6 10 5 2 3 2 4 2
28 27 28 23 24 27 29 28 24 17 15 13 10 6 21 21 12 11 5 4 4 7 5 1 3 3 3 4 3 3 1 2 2 4 12 5 2 5 1 3 2 1 2 3 3 3 2
27 26 26 23 20 22 23 24 23 15 20 9 9 4 19 17 7 4 3 2 6 6 6 4 2 2 3 5 3 1 1 3 5 1 6 6 2 3 5 4 3 3 4 4 2 4 3
26 25 25 24 20 20 21 19 19 18 19 16 5 5 17 17 5 4 5 2 3 8 5 7 6 4 3 2 4 2 1 5 6 2 1 2 3 3 6 4 4 2 7 5 1 3 3
24 24 23 23 22 24 23 20 16 16 16 12 3 3 7 9 11 3 4 5 6 9 4 6 4 6 5 7 6 2 3 3 7 3 1 1 3 1 3 5 4 7 14 9 3 3 2
24 21 22 21 21 19 20 18 14 13 15 7 5 2 2 3 7 5 3 4 5 7 7 16 8 10 3 5 5 6 4 6 5 11 2 3 3 3 3 5 2 4 8 14 7 1 4
21 21 21 20 20 20 20 19 14 9 10 9 4 2 2 3 8 5 5 4 5 5 5 5 4 5 8 5 1 4 5 4 3 6 4 3 0 2 6 6 7 5 11 11 8 8 6
20 20 20 20 19 18 19 19 12 7 6 6 9 6 2 3 4 3 2 4 6 7 3 4 3 2 6 5 12 13 8 2 2 3 5 3 2 2 3 5 5 5 6 5 3 5 3
19 19 20 20 19 20 20 18 11 4 7 10 10 8 3 3 2 0 3 4 4 8 3 5 6 1 5 12 5 1 2 6 8 6 4 2 2 2 2 4 4 5 2 1 5 2 4
20 18 18 19 18 20 17 13 9 3 7 10 8 3 2 1 2 3 5 4 8 4 4 4 4 6 12 5 3 3 4 5 3 3 5 3 3 2 2 1 3 2 2 2 1 2 0
19 17 15 17 17 18 14 10 10 6 6 7 10 7 1 4 2 3 3 4 2 3 6 3 5 8 8 3 3 2 1 2 5 9 5 3 5 3 1 2 3 3 3 3 2 4 3
17 17 14 13 14 12 9 8 8 9 6 4 4 4 2 1 1 1 2 3 3 2 1 5 8 5 8 3 2 1 3 2 2 3 3 4 3 1 0 2 6 4 3 2 3 4 4
16 15 14 10 10 8 6 4 8 10 8 5 4 1 2 1 4 4 2 3 3 2 1 6 3 3 4 3 1 2 2 3 1 4 2 3 2 3 1 1 6 6 3 5 4 5 7
14 14 12 9 7 6 3 2 5 5 6 6 7 4 0 2 3 9 9 8 7 7 4 3 1 2 1 2 0 1 2 1 2 3 2 3 5 3 7 5 4 7 4 4 9 9 7

GFSGBSN_850_spd_105.txt.gz
Wind_Speed
37 41 44 47 41 42 39 42 39 31 32 27 18 12 11 14 14 13 13 16 15 12 11 10 18 20 29 9 1 7 11 19 16 10 13 12 11 5 4 1 3 2 4 10 14 18 20
40 45 43 35 41 41 41 41 41 25 21 19 12 7 8 10 10 11 14 15 15 13 10 9 6 31 20 4 2 11 14 17 14 12 15 10 6 6 3 1 1 5 8 15 14 21 17
39 38 36 34 34 37 41 42 43 30 25 9 6 3 5 8 9 12 14 16 14 10 8 11 17 17 14 9 13 13 14 12 8 16 13 9 6 5 4 1 2 7 7 7 13 14 7
38 33 32 31 30 35 35 38 39 34 29 19 10 8 7 11 11 13 14 17 14 11 5 16 22 16 8 17 16 15 11 7 11 10 10 8 7 3 2 1 4 3 1 4 5 3 5
38 32 30 32 32 33 34 35 33 30 26 22 18 13 10 11 11 12 12 14 8 5 9 22 27 11 6 17 17 16 10 12 11 7 5 3 3 1 1 3 3 1 3 6 8 4 3
34 31 30 31 32 33 33 31 29 27 22 19 15 13 12 10 8 9 10 7 13 17 22 29 19 10 11 12 18 17 12 12 10 7 5 3 3 1 3 3 4 4 4 6 8 5 5
32 29 28 30 32 33 33 30 28 25 22 19 16 13 10 7 7 6 7 7 8 6 11 4 10 6 16 16 19 15 12 13 9 3 2 2 1 6 8 7 4 3 6 12 16 15 14
30 28 28 29 31 33 33 30 28 23 22 18 15 13 10 9 6 10 9 11 9 4 9 12 9 10 15 21 12 17 14 7 5 3 2 2 7 11 6 5 8 13 14 16 16 14 6
30 27 26 29 30 32 36 33 31 25 21 15 15 14 14 10 7 9 15 12 11 8 5 6 9 14 14 9 6 15 18 5 4 6 7 5 4 4 8 8 11 13 14 14 13 14 12
30 25 26 29 31 33 38 36 33 27 19 12 12 13 13 6 7 9 15 9 7 7 3 4 4 4 7 8 4 19 19 5 5 7 5 6 8 8 8 9 11 15 11 17 16 10 5
30 25 26 26 30 38 38 36 35 30 19 12 7 9 11 9 7 9 8 6 2 2 4 1 2 9 10 3 13 8 20 4 4 3 3 6 3 6 11 6 12 8 5 8 11 12 12
30 24 23 25 29 35 41 38 36 29 20 14 9 8 10 10 11 10 7 8 4 4 5 2 4 6 5 2 2 10 8 10 4 3 3 8 6 4 4 3 6 6 7 14 13 7 5
30 25 23 24 27 30 37 40 32 31 24 16 11 10 11 11 9 10 4 2 3 5 1 1 6 4 4 3 4 5 6 5 3 3 3 2 4 2 3 6 5 6 4 4 3 2 3
30 28 22 22 23 27 30 31 29 25 24 20 15 15 15 13 10 8 2 2 8 6 5 1 4 5 1 5 2 5 4 3 9 4 3 2 5 6 6 5 2 4 2 2 4 3 3
29 27 23 22 21 21 25 25 23 21 20 15 12 17 26 21 15 7 3 6 3 3 4 4 1 2 1 2 3 4 4 3 3 8 4 2 5 1 8 5 3 2 3 2 4 3 3
27 27 25 22 21 19 20 20 18 19 20 19 17 11 30 19 14 10 5 7 4 4 3 1 1 3 3 2 1 1 2 5 3 6 3 1 5 4 2 5 7 5 3 2 2 3 3
28 27 26 24 23 23 16 14 12 14 20 19 19 6 26 14 11 13 4 4 2 3 2 4 0 2 2 3 1 2 2 2 3 5 7 2 2 5 2 4 3 2 2 2 3 2 2
27 26 26 23 22 22 19 16 12 10 10 15 8 3 23 10 7 4 3 5 7 4 3 1 2 2 3 4 2 2 2 2 1 10 5 5 2 4 6 2 2 2 4 3 1 1 1
26 26 24 23 20 22 23 18 14 13 12 10 4 5 15 14 4 4 5 4 3 8 6 6 5 4 3 2 2 3 3 2 1 3 2 3 2 4 7 5 4 3 6 5 2 1 2
25 26 24 23 21 19 22 22 15 12 10 7 3 3 7 11 8 2 4 5 6 8 4 6 3 2 4 6 6 3 6 2 6 4 1 2 2 1 3 4 3 6 13 7 1 2 1
24 25 25 24 23 20 21 21 17 9 6 4 5 2 2 3 6 4 3 3 5 7 8 13 6 6 1 4 3 5 4 6 3 8 2 2 1 0 3 3 2 2 6 12 7 1 4
22 24 25 24 24 22 23 22 17 8 4 4 4 6 5 3 5 5 6 5 6 6 6 6 4 6 7 4 1 2 1 3 1 6 3 3 1 1 3 5 6 4 9 8 6 6 5
20 21 23 24 24 23 23 20 11 5 4 2 3 11 8 2 2 3 3 4 5 8 2 3 5 3 5 2 9 12 8 6 4 2 2 2 2 2 4 4 6 3 4 4 2 2 3
20 19 21 22 23 23 20 15 10 6 7 2 2 1 3 2 2 0 2 3 4 6 2 8 7 4 8 18 8 4 6 7 3 2 1 1 3 3 3 5 3 4 2 1 2 3 2
20 18 18 19 20 21 18 13 9 7 8 5 2 4 3 3 5 2 5 4 7 9 3 3 4 9 16 10 4 4 4 4 2 2 3 2 3 2 2 2 5 2 4 4 4 4 4
19 17 16 15 16 16 14 10 6 5 6 6 5 4 4 3 5 9 4 3 3 4 6 4 5 9 9 3 4 4 3 2 4 8 2 3 4 3 1 1 4 3 2 3 3 4 5
18 16 15 14 13 11 10 6 5 5 4 3 3 3 2 3 4 8 4 5 2 1 2 5 8 6 10 3 2 0 3 2 4 4 4 3 2 2 2 3 6 4 2 1 3 4 7
17 15 13 13 11 9 7 4 2 3 4 7 7 3 2 3 5 7 7 7 6 3 2 5 3 3 3 4 1 2 1 2 3 3 3 1 1 2 1 1 5 4 3 4 4 2 5
17 16 14 12 10 8 5 3 3 1 2 4 6 6 5 4 4 9 11 9 8 7 4 2 2 3 3 2 1 1 2 2 1 4 2 3 5 2 6 5 4 7 7 6 6 7 7

GFSGBSN_850_spd_108.txt.gz
Wind_Speed
32 31 29 28 29 32 35 40 43 49 37 10 14 11 5 2 4 6 6 8 11 9 8 10 11 13 18 10 8 5 9 15 12 13 8 11 10 5 4 3 1 1 3 6 9 19 18
34 27 27 29 29 32 33 37 38 44 51 36 22 19 12 6 4 4 7 8 10 11 2 4 16 18 23 4 12 9 16 13 11 7 12 9 5 7 6 2 1 2 6 14 12 22 14
29 26 26 29 30 33 34 34 36 36 37 38 25 19 14 13 11 10 10 9 11 8 2 7 19 28 12 11 9 8 6 7 6 8 11 8 8 4 4 2 2 5 6 7 6 5 5
27 26 27 29 30 31 31 33 32 31 29 27 23 18 14 12 9 9 11 10 8 6 7 14 17 15 8 16 15 14 14 5 8 8 6 5 5 6 3 2 4 4 2 5 3 2 4
27 26 27 28 29 30 32 31 28 28 27 24 20 16 12 9 8 8 9 11 14 8 11 18 18 11 8 16 12 15 13 11 10 8 8 6 5 3 3 3 4 4 2 3 8 2 2
28 26 27 29 28 29 33 32 27 24 24 23 20 16 13 13 12 10 7 10 18 21 21 15 12 9 10 6 15 15 12 11 8 7 6 3 3 3 3 3 2 2 2 5 7 5 3
27 26 26 28 29 29 29 31 27 23 21 20 19 18 16 14 12 11 7 19 15 10 15 11 9 11 12 15 16 15 12 11 11 6 3 2 4 4 7 5 4 1 3 10 13 14 9
29 27 27 29 30 30 28 26 28 20 17 16 18 17 17 10 13 14 8 11 9 7 10 20 14 15 12 14 8 9 13 4 3 3 2 4 4 8 6 5 5 6 8 12 13 12 6
31 25 27 28 31 31 28 30 26 22 17 15 17 17 14 12 10 12 21 18 13 9 5 10 12 9 9 8 5 11 12 6 2 3 5 4 3 6 6 2 4 6 8 11 12 11 13
33 24 26 27 29 29 29 33 27 24 21 16 15 16 11 6 6 13 14 10 13 9 4 6 6 5 3 3 5 12 11 2 1 5 4 4 5 4 5 5 7 11 9 15 16 9 4
32 29 25 26 27 28 27 33 30 24 20 17 15 15 14 13 7 12 6 7 9 2 5 4 2 3 4 5 9 5 10 3 3 2 3 6 2 3 6 6 11 8 6 9 12 13 12
31 31 27 25 26 26 26 24 29 25 21 19 18 16 14 14 13 10 11 12 3 5 4 2 2 5 2 5 3 4 4 8 6 4 2 6 2 3 5 4 7 7 9 13 11 6 4
31 30 29 24 22 22 24 21 21 23 21 21 23 20 17 15 11 8 5 4 5 5 1 3 5 2 1 2 3 4 4 2 1 2 2 3 5 3 4 5 3 8 6 4 4 3 4
30 30 29 25 24 21 19 16 14 14 12 12 19 27 25 19 9 3 2 4 8 4 4 0 4 5 3 2 2 1 2 3 5 3 2 2 5 7 5 7 2 5 3 2 4 3 4
29 29 29 27 23 21 18 12 11 13 13 9 9 19 28 22 15 6 4 5 3 2 3 5 3 1 1 1 2 4 4 3 3 9 4 2 5 2 6 4 3 2 3 2 4 3 3
27 27 27 26 26 22 18 17 15 17 17 14 7 3 24 16 16 14 5 7 3 3 2 2 2 1 2 2 2 1 2 4 3 8 8 2 5 5 1 4 7 4 3 1 1 3 3
27 27 26 27 25 23 21 20 18 16 15 16 9 1 18 9 12 12 4 4 4 5 2 3 1 2 1 3 3 2 2 3 4 5 10 3 2 5 1 4 1 3 2 2 2 2 2
25 26 26 26 27 25 24 22 18 17 17 14 7 3 15 7 7 4 2 4 4 3 2 2 2 1 4 4 2 2 3 4 6 8 5 6 2 4 5 2 3 2 1 4 2 2 1
27 25 25 26 27 26 23 21 20 16 19 16 5 4 18 5 4 3 5 3 1 6 4 5 3 3 3 2 1 1 2 3 3 7 3 3 0 4 4 2 2 3 5 4 4 2 2
26 27 25 25 27 27 24 24 17 14 13 10 3 3 8 15 7 4 4 5 5 7 1 3 4 1 3 4 4 1 5 2 5 3 1 2 2 2 3 5 3 5 9 6 3 2 1
23 25 27 26 26 28 26 25 13 9 10 6 4 2 2 1 6 4 2 3 5 7 8 15 4 5 3 4 5 5 3 5 3 9 2 2 1 3 5 5 3 3 4 7 3 2 2
22 22 25 26 25 26 26 21 13 9 8 6 2 3 3 4 3 3 4 4 5 6 5 5 4 6 6 4 1 4 4 4 2 6 5 4 2 1 3 0 3 3 4 2 4 4 4
22 20 22 24 24 24 23 19 14 10 8 4 6 6 2 1 2 4 1 1 3 6 1 3 3 3 4 3 11 14 12 10 6 3 3 3 3 4 4 4 5 2 2 1 0 1 5
21 19 19 21 22 21 19 17 11 9 9 6 5 2 2 0 1 5 6 2 1 2 2 7 4 1 5 19 10 4 6 9 7 5 2 2 2 1 3 5 3 4 2 3 3 5 6
20 18 16 17 19 19 16 13 9 7 8 7 6 3 1 1 1 1 8 5 2 3 3 3 3 7 14 8 3 4 4 3 0 0 2 1 3 2 1 2 6 1 3 4 3 5 7
19 18 15 15 15 16 14 11 8 5 5 7 8 7 2 5 5 3 2 2 4 2 3 4 2 5 7 3 3 2 2 1 4 8 2 3 4 3 1 1 4 2 2 2 2 5 6
19 18 15 13 13 12 11 8 6 4 4 6 8 7 6 5 4 7 4 3 2 1 2 5 3 1 4 2 2 1 3 1 2 2 2 3 2 3 2 3 7 3 2 3 2 5 2
20 19 15 12 12 10 8 6 3 3 4 6 8 8 5 5 8 9 7 6 3 2 1 5 4 2 2 3 2 3 3 2 3 4 3 3 3 4 2 2 6 4 3 5 4 5 6
20 19 15 12 13 11 8 7 4 5 5 5 4 6 9 6 6 9 14 11 9 7 1 1 2 5 5 3 1 1 2 1 4 3 1 3 5 3 7 5 5 9 13 9 8 8 9

GFSGBSN_850_spd_111.txt.gz
Wind_Speed
26 26 25 26 29 30 30 31 32 35 37 42 34 27 22 13 6 3 1 3 4 3 5 7 7 9 11 7 7 4 9 15 17 14 10 11 10 5 5 5 3 2 0 3 7 16 17
26 26 26 27 29 30 29 29 28 29 29 30 29 21 20 12 8 4 3 2 4 1 6 8 10 14 13 6 11 11 13 18 16 12 12 10 6 8 8 3 2 2 4 10 12 17 11
25 27 28 28 29 31 29 26 26 26 26 22 19 18 13 10 8 7 4 2 5 1 7 11 11 18 14 13 17 11 8 17 10 10 14 9 9 4 6 3 2 2 4 7 3 2 3
25 25 28 28 29 31 29 26 22 23 21 22 20 17 15 12 10 10 7 10 8 5 11 14 23 25 7 20 11 8 15 13 11 11 10 11 8 9 4 5 4 3 2 4 1 2 3
24 25 27 29 33 31 29 25 21 18 20 20 18 17 16 15 13 11 12 19 15 16 19 18 22 21 4 20 17 13 13 14 10 10 11 8 5 4 3 3 2 5 1 2 7 1 2
24 25 28 29 31 31 29 24 20 20 20 20 19 18 15 15 13 11 16 27 26 27 19 15 15 16 10 9 20 17 16 13 8 10 9 4 5 3 2 2 1 0 2 3 6 3 1
25 24 27 29 31 31 29 26 21 17 17 20 21 18 15 15 14 12 25 24 14 15 26 12 12 20 14 22 19 15 14 12 10 7 3 3 3 2 4 4 3 4 1 6 9 12 9
27 25 25 27 29 31 32 28 24 19 18 21 24 17 16 15 17 14 10 13 11 11 15 25 20 21 18 9 10 11 11 3 3 3 3 3 1 3 3 3 2 2 6 7 10 4 2
30 26 25 24 26 28 30 32 26 22 21 22 22 19 17 15 14 15 22 19 15 11 7 11 16 9 9 11 6 9 6 4 3 3 2 2 1 6 4 3 3 4 5 4 7 8 13
31 27 27 23 22 25 25 27 30 23 21 21 21 19 15 9 11 15 19 13 9 5 5 10 9 6 6 4 4 7 5 2 1 1 4 3 3 3 2 2 6 5 9 9 9 6 4
31 30 26 26 23 21 23 23 24 24 20 20 21 20 21 17 8 12 12 13 4 4 6 7 4 4 4 3 7 3 6 3 3 4 3 4 1 3 6 6 9 5 1 6 9 11 8
31 30 28 25 25 22 18 21 21 20 18 19 22 21 16 21 16 13 12 6 7 6 3 2 4 2 2 2 3 3 1 1 4 3 3 6 4 4 5 2 7 3 6 8 9 4 4
31 30 29 26 25 23 20 18 19 18 14 12 15 21 18 9 9 5 2 5 5 6 1 3 3 2 3 3 2 2 2 1 1 3 5 5 2 2 3 3 2 5 4 3 3 3 5
30 30 29 28 26 25 22 20 19 21 19 14 10 14 18 13 5 5 3 5 9 4 4 1 1 1 2 4 2 1 1 2 4 3 2 4 6 5 4 4 1 3 3 2 4 2 5
29 29 29 29 27 24 24 23 21 21 20 18 5 13 21 14 9 8 6 6 3 1 0 4 1 2 0 2 1 1 1 1 1 6 2 2 4 2 4 3 3 1 3 3 4 3 3
27 29 29 28 29 26 23 24 23 20 20 17 6 3 19 13 14 10 6 7 3 2 2 1 1 0 2 1 1 1 2 2 1 6 5 2 4 2 0 2 5 6 5 1 1 3 3
31 27 29 29 29 29 24 24 24 22 20 12 6 3 13 11 16 12 5 3 2 2 1 1 1 1 3 3 2 2 1 3 3 4 10 3 2 4 1 5 4 1 2 2 1 2 2
29 29 27 29 29 29 25 24 23 20 18 10 6 3 10 6 8 4 2 4 4 3 3 2 1 1 3 4 1 1 3 5 10 9 6 5 2 4 5 2 1 3 2 4 2 1 1
26 29 28 28 29 28 28 24 19 16 18 7 5 4 11 4 4 1 3 3 2 6 4 4 2 2 2 0 1 4 2 1 6 7 4 5 2 4 3 2 1 2 3 4 2 0 2
23 26 29 27 27 29 26 23 18 15 15 9 3 2 7 9 6 6 4 2 4 4 1 3 4 3 3 4 1 3 4 2 3 2 5 5 2 4 4 4 0 5 4 2 4 2 3
22 22 26 28 26 27 25 21 17 15 13 6 5 1 2 0 4 3 2 3 3 6 6 10 3 4 2 4 5 5 3 5 1 5 1 2 3 2 5 7 2 4 3 2 5 3 3
24 20 22 25 25 24 24 20 16 14 10 11 4 3 3 4 1 1 3 1 3 1 1 4 3 4 4 3 3 4 2 0 0 5 3 4 3 2 5 3 5 5 5 6 2 3 3
25 20 19 21 23 22 21 19 16 14 10 6 6 5 2 2 1 3 3 5 5 6 4 3 3 1 2 3 8 14 14 11 5 2 3 2 2 3 4 4 6 5 8 6 3 4 6
23 21 17 18 20 20 19 17 14 14 13 9 7 2 2 1 1 1 2 3 5 4 4 3 4 2 3 16 10 5 6 11 9 8 8 2 1 2 4 4 2 3 1 0 3 6 7
21 22 17 15 16 17 16 14 11 9 10 10 10 5 3 1 2 2 1 3 4 4 3 4 6 4 7 6 4 4 3 2 2 3 5 5 3 0 1 2 7 1 2 3 3 5 6
20 22 18 14 13 14 14 12 9 7 7 8 8 6 3 0 4 2 3 2 1 2 4 4 5 7 3 3 3 1 3 2 4 7 5 5 3 3 1 1 5 4 2 3 3 4 4
19 20 19 14 10 11 11 10 8 6 7 8 9 7 4 3 3 6 4 3 4 2 2 4 5 2 4 1 2 4 4 4 3 3 2 3 2 2 2 3 7 4 2 1 3 4 3
17 18 19 16 10 10 10 9 8 6 6 7 5 6 6 3 8 8 10 7 5 4 2 2 2 1 3 1 1 2 3 3 2 4 4 4 3 3 1 2 6 5 3 4 5 3 5
16 17 17 18 13 10 11 10 9 8 6 7 8 9 10 6 7 10 13 15 13 8 3 2 2 1 2 3 1 1 3 1 3 3 0 3 6 4 8 6 6 10 12 8 9 9 12

GFSGBSN_850_spd_114.txt.gz
Wind_Speed
22 25 26 26 27 30 30 28 28 26 23 24 22 22 16 12 9 7 4 1 2 3 6 8 8 19 18 12 8 5 10 19 15 16 15 13 11 7 7 6 5 4 3 3 7 9 13
24 24 26 26 30 31 29 27 25 23 22 20 17 14 12 9 6 5 4 4 3 3 7 12 17 23 13 12 11 13 20 20 17 15 14 12 7 8 10 5 2 3 3 7 9 12 10
23 24 24 29 31 29 28 25 24 24 19 18 17 15 13 14 9 5 2 1 3 5 6 15 16 18 15 10 17 10 13 16 14 10 15 12 14 5 10 7 4 1 4 6 7 3 3
24 25 24 30 31 30 28 22 22 22 20 18 18 16 14 12 10 11 10 4 9 14 12 13 20 16 12 16 10 17 22 18 14 13 14 12 10 11 4 8 3 2 3 3 4 3 1
24 25 25 28 30 31 31 27 20 22 21 21 19 16 14 12 12 14 24 19 23 19 21 21 19 22 8 15 14 11 14 17 14 12 12 10 6 5 5 3 3 2 2 4 3 2 1
24 25 24 28 29 31 32 31 25 22 21 21 19 18 16 12 15 21 33 30 29 28 23 19 22 11 8 13 14 18 17 10 8 11 9 4 4 2 2 1 1 2 1 4 7 1 7
25 25 25 26 27 29 30 31 27 24 23 24 18 17 17 14 23 27 25 16 9 15 31 17 19 25 21 18 18 18 10 10 7 4 3 3 2 3 4 4 4 3 2 8 10 6 9
31 25 26 25 25 26 27 28 29 27 23 23 21 18 17 16 19 10 4 14 15 15 16 27 27 23 14 12 9 8 5 2 3 6 4 3 5 3 5 5 3 2 5 7 9 1 10
32 28 26 26 24 24 24 25 27 28 26 22 23 15 16 16 12 11 28 24 19 14 8 14 18 14 8 6 7 5 5 3 4 4 2 3 6 7 4 4 3 4 8 5 6 11 10
32 32 27 26 25 22 22 22 24 26 27 22 21 21 11 14 11 15 14 16 10 5 5 11 9 7 7 3 5 2 4 2 2 3 2 2 3 5 3 4 5 5 4 7 7 9 4
32 31 30 26 24 23 21 23 23 22 23 24 22 20 20 13 12 10 12 6 5 0 5 8 6 6 7 5 6 1 2 4 3 2 3 3 5 5 3 4 9 3 3 8 11 9 8
31 31 31 29 25 23 22 22 22 23 19 18 20 16 15 17 14 14 4 9 3 1 6 3 6 5 3 3 3 1 2 2 2 2 1 3 0 4 5 4 11 7 10 11 5 3 4
30 30 30 31 28 24 23 22 22 19 18 15 14 15 12 8 6 1 7 7 1 6 1 2 2 2 3 4 2 1 1 2 3 1 5 5 3 2 5 4 1 5 5 2 3 3 2
29 29 30 30 30 27 22 22 22 19 15 10 14 15 13 9 5 3 7 3 10 4 5 1 1 3 4 4 2 1 0 2 1 2 1 3 2 5 7 4 1 3 2 2 4 3 7
29 30 30 29 30 28 24 22 21 18 16 8 4 15 15 12 10 7 7 6 3 1 1 2 3 1 2 2 2 1 1 1 1 6 0 2 1 3 7 3 2 2 3 1 4 4 3
30 28 31 29 30 29 26 24 18 17 15 7 3 8 14 13 16 12 7 6 2 1 2 2 1 1 1 1 1 0 1 3 2 5 4 1 3 2 2 4 4 4 2 3 2 3 3
27 29 29 31 30 30 28 24 16 16 12 7 4 4 9 9 13 12 4 4 2 2 2 2 2 1 1 2 2 2 1 4 5 6 5 2 2 0 2 6 5 2 2 2 2 3 3
23 27 28 29 30 30 28 25 18 17 11 6 6 3 8 3 3 3 3 1 1 2 1 2 3 3 1 1 2 1 2 2 4 6 2 3 3 5 3 4 7 1 0 2 3 4 3
21 23 26 27 28 28 25 21 20 16 13 5 4 3 8 6 2 2 3 4 3 2 3 2 1 3 3 2 2 2 1 2 6 5 2 4 2 4 2 4 4 5 5 4 3 3 6
24 21 24 26 26 26 24 20 18 16 13 5 5 1 5 6 5 1 3 2 4 3 3 2 3 1 1 2 1 3 4 1 3 3 5 4 3 6 4 5 2 4 5 7 9 4 3
25 19 20 23 24 23 23 20 17 15 12 4 3 3 2 2 4 4 3 0 2 4 2 2 3 4 1 1 1 2 3 4 2 4 1 2 4 3 12 14 9 9 10 7 13 11 6
23 20 18 20 22 21 21 18 17 15 9 9 2 4 5 3 1 4 3 1 2 1 3 2 4 5 5 3 3 3 1 2 1 2 2 1 3 4 6 3 8 11 12 12 10 12 13
20 21 17 16 19 19 18 17 16 14 11 6 5 4 4 2 3 1 1 2 3 4 3 3 2 2 4 5 7 10 11 9 4 2 1 2 4 4 4 5 9 11 15 15 7 7 6
17 20 18 14 15 17 15 15 13 11 11 10 5 0 1 3 4 3 2 1 1 4 6 5 3 4 5 11 12 5 6 10 11 12 10 3 2 2 4 6 3 3 3 1 8 7 11
16 18 19 13 12 13 13 12 11 9 9 9 8 3 2 1 3 4 7 5 3 3 3 4 4 6 13 9 4 5 3 3 6 7 11 10 3 3 3 3 12 1 2 2 3 3 4
15 17 18 14 10 10 11 10 9 8 9 9 9 6 3 2 4 2 4 5 3 3 3 5 5 7 4 2 2 3 3 4 2 2 2 3 7 5 3 4 5 3 4 5 3 5 4
15 15 16 15 12 9 9 9 7 6 7 8 7 8 5 4 4 7 5 3 5 2 3 3 2 2 1 2 3 3 3 1 4 3 4 4 5 10 9 6 8 4 5 5 4 2 0
15 16 15 13 13 10 9 9 8 6 5 6 7 7 8 4 12 9 10 8 6 5 2 1 2 2 2 3 2 2 3 1 3 3 3 4 3 5 3 5 6 6 5 4 4 1 2
16 16 16 13 13 13 9 9 10 9 7 6 6 9 11 9 9 13 14 15 17 11 6 5 2 2 3 2 3 1 3 3 3 4 3 4 4 3 5 3 3 7 5 5 8 11 13

GFSGBSN_850_spd_117.txt.gz
Wind_Speed
25 24 27 30 31 29 27 24 25 26 23 22 22 20 19 14 6 4 3 3 2 4 8 11 20 16 19 14 4 12 15 17 12 12 11 8 11 7 7 7 7 5 4 3 6 7 11
24 24 28 30 32 32 28 22 23 24 24 22 20 17 15 15 11 5 2 2 1 3 10 12 18 16 16 7 7 9 13 25 12 11 9 7 5 3 7 5 4 2 3 6 5 8 9
25 25 26 29 32 33 31 23 24 24 25 23 20 16 11 10 12 8 5 2 2 3 11 15 20 12 19 7 9 11 17 20 15 10 9 7 9 1 8 6 3 2 4 5 8 4 3
25 25 25 27 30 33 31 28 26 26 26 23 17 17 11 13 12 9 5 6 8 12 16 17 17 18 12 21 24 28 19 19 13 12 12 11 9 9 4 8 3 2 2 3 6 4 2
26 26 25 25 27 29 31 28 25 25 25 21 20 18 15 18 20 22 23 19 18 16 15 18 19 15 4 11 14 20 21 16 16 11 11 9 7 5 5 3 3 3 2 5 3 3 1
26 26 26 25 25 27 28 29 25 26 24 20 18 18 17 17 23 27 29 31 25 24 24 25 21 11 7 10 15 17 16 9 11 10 8 4 3 3 3 4 1 5 2 4 6 5 5
31 27 27 26 23 25 25 27 29 28 24 20 19 17 17 24 24 18 10 9 8 19 39 20 22 22 18 18 15 12 10 9 7 3 2 3 5 4 4 1 2 1 4 6 6 4 7
32 29 28 26 24 22 23 24 26 28 24 19 17 14 11 15 11 7 3 10 11 10 16 27 22 23 16 11 7 7 4 3 3 5 3 4 4 4 3 2 0 1 4 5 2 1 8
32 31 30 28 25 22 21 21 22 23 24 19 13 15 9 10 5 16 25 21 15 10 7 14 14 11 8 6 6 8 8 4 7 5 2 1 7 6 3 3 2 4 5 6 5 13 10
31 31 30 30 26 25 22 20 21 18 19 19 15 11 13 10 10 15 13 10 6 6 4 10 9 9 8 2 5 5 7 4 3 4 2 4 4 4 3 2 3 5 4 4 7 10 4
30 30 30 30 28 24 23 19 18 17 15 15 14 10 10 6 11 5 4 7 9 2 4 9 6 6 7 7 3 3 5 4 5 3 3 3 4 5 4 1 4 4 3 7 7 7 8
30 29 30 31 29 24 23 20 15 14 13 12 9 6 9 11 10 11 2 13 2 0 6 5 5 3 3 6 3 1 2 1 1 1 2 1 1 4 4 2 5 7 7 8 4 3 4
29 29 29 30 30 25 23 21 14 11 10 11 11 6 4 8 6 8 9 4 2 6 2 3 3 3 8 5 4 3 2 3 2 1 3 4 5 3 5 2 2 2 4 1 3 4 3
26 29 28 29 31 28 24 20 15 11 7 4 13 11 8 3 5 0 5 1 11 5 6 1 2 0 4 5 3 4 3 4 4 2 2 1 3 6 8 3 2 4 2 3 4 3 6
27 27 29 29 31 30 24 17 14 12 7 11 9 13 14 7 4 6 1 7 3 3 3 2 2 3 3 3 4 2 2 1 1 1 3 3 2 2 3 1 2 4 3 2 3 5 4
25 25 29 30 30 29 24 18 15 12 5 8 6 7 15 11 9 9 6 6 4 2 1 2 4 4 4 4 2 3 2 3 2 0 2 4 3 2 4 2 5 2 3 3 3 3 4
23 25 26 28 28 27 21 17 16 13 6 2 5 3 8 10 11 9 4 5 4 2 2 1 4 4 5 3 3 4 5 4 1 5 3 3 2 2 3 7 4 4 3 2 2 4 3
22 23 25 26 27 26 22 17 15 13 6 4 5 2 8 10 4 3 4 3 1 1 2 1 1 2 4 4 3 2 3 3 1 2 3 1 3 4 6 2 2 2 1 2 4 3 6
22 20 23 24 24 24 22 18 16 14 9 4 3 3 7 8 3 4 3 3 2 2 1 2 2 2 2 0 1 2 3 2 2 1 4 2 2 4 3 4 6 6 8 5 8 2 8
20 19 20 22 22 22 21 19 17 14 12 4 2 2 5 6 4 3 1 2 0 1 1 3 2 4 4 3 2 1 2 3 3 5 3 3 6 8 8 9 4 7 7 10 9 4 6
19 17 17 19 20 20 20 18 17 14 12 2 3 2 1 1 2 4 2 1 2 1 3 2 2 5 5 3 3 3 3 4 7 6 5 4 5 7 14 17 16 16 15 12 14 17 7
18 16 17 16 18 18 18 17 16 15 10 8 2 1 1 1 0 2 2 3 2 2 2 1 4 4 5 6 8 10 7 5 4 5 4 3 4 8 7 6 8 14 17 17 17 17 18
18 17 16 15 16 16 16 15 14 13 12 6 5 3 1 2 1 3 1 1 3 1 3 1 3 5 6 3 9 14 15 17 14 7 5 4 5 6 5 4 12 13 19 20 15 12 15
17 18 17 14 14 14 14 13 12 11 12 9 6 2 2 2 5 3 1 3 5 5 3 4 3 3 1 10 17 13 11 14 14 13 12 7 7 4 6 10 4 3 3 7 16 12 13
16 16 17 15 13 13 13 11 11 10 9 9 7 3 1 3 4 6 8 6 6 8 7 10 9 6 8 8 4 6 4 4 4 7 9 10 5 4 4 7 17 12 2 3 3 9 7
15 15 14 15 14 12 12 11 9 9 8 8 8 6 1 3 2 4 4 7 6 7 5 6 5 7 3 3 3 3 4 2 2 4 2 6 8 4 3 4 5 3 3 1 1 4 6
16 15 13 13 13 14 11 11 10 9 8 7 6 7 4 4 5 5 5 4 4 3 4 2 3 3 4 3 5 4 5 1 4 3 5 4 6 11 10 8 9 5 5 2 3 3 6
17 15 13 12 12 13 13 11 11 10 8 8 7 7 6 5 12 12 12 9 5 5 4 2 2 4 3 4 3 3 3 2 4 6 3 7 5 5 5 5 9 10 5 5 2 2 6
17 17 16 14 12 12 14 13 11 11 11 9 9 8 10 9 11 16 17 17 18 13 4 4 4 2 2 3 2 2 4 3 5 5 4 5 9 3 8 5 5 9 9 4 5 10 16

GFSGBSN_850_spd_120.txt.gz
Wind_Speed
24 25 27 31 35 34 32 30 29 28 27 25 23 20 19 20 16 13 11 11 8 6 6 6 12 17 14 11 9 11 11 15 13 13 10 11 12 9 6 7 6 3 4 1 2 2 5
25 25 25 29 33 36 31 30 29 28 25 23 23 17 19 18 15 13 12 10 8 8 9 7 7 13 16 9 8 6 13 17 10 10 9 7 4 4 8 9 2 5 5 2 0 2 4
26 25 23 26 30 33 30 28 29 28 25 24 22 21 23 23 21 14 14 11 9 9 10 10 21 20 28 10 6 9 15 20 13 10 9 9 9 2 9 5 4 3 2 6 7 0 1
25 25 26 23 27 30 35 30 27 27 23 22 22 20 23 27 29 24 17 17 15 13 12 15 17 16 15 19 17 19 16 18 14 11 12 12 13 10 5 9 4 3 1 2 3 4 2
27 25 25 25 24 26 28 32 28 25 22 20 17 18 22 27 31 33 29 19 20 15 21 22 21 19 9 17 19 21 20 14 14 12 11 8 8 5 4 2 3 1 1 2 5 4 1
31 27 26 24 23 23 24 26 28 25 21 18 17 16 16 21 22 23 27 30 28 27 26 16 10 8 10 11 15 18 13 9 8 11 9 4 3 3 1 1 2 3 2 1 3 5 5
31 30 26 24 23 23 23 23 24 24 20 16 15 14 15 16 16 15 10 14 13 18 34 20 16 23 18 18 16 11 9 10 6 2 3 1 2 3 2 8 6 6 4 2 4 8 3
32 30 29 26 23 22 22 23 21 22 19 14 12 11 9 11 15 18 28 25 24 13 17 23 21 23 17 12 10 11 6 3 2 5 2 2 7 8 6 3 2 1 3 3 5 3 5
33 31 30 28 23 21 21 20 18 19 18 14 9 9 7 9 21 21 25 21 15 12 6 17 15 13 10 8 10 13 9 5 5 4 3 8 6 5 2 1 1 5 3 5 3 8 7
33 33 30 29 24 21 19 18 17 15 15 14 8 7 7 12 9 11 9 9 8 4 4 10 11 10 10 4 6 8 8 4 4 5 7 7 3 3 1 1 1 3 6 3 4 6 2
30 33 32 30 26 21 19 16 15 14 14 11 9 4 7 1 7 4 3 13 8 3 5 7 6 6 7 7 1 6 8 4 8 5 3 3 5 3 3 3 1 5 5 5 5 6 4
30 31 32 31 29 22 17 14 13 13 13 13 8 4 1 4 0 5 9 18 3 3 6 5 4 4 4 10 5 1 2 4 2 1 1 5 3 3 4 3 2 7 5 6 3 2 3
29 31 32 32 31 27 17 13 12 11 9 14 12 5 3 3 5 7 13 5 4 6 2 4 4 5 9 7 6 5 5 6 3 3 3 3 3 3 1 2 1 2 2 1 2 1 4
27 29 31 31 30 28 20 16 14 10 10 11 14 11 8 4 3 5 7 3 9 0 7 2 2 2 5 6 4 4 3 3 4 3 3 2 1 6 8 3 1 1 1 1 3 3 3
25 27 29 29 29 25 22 18 16 8 7 10 13 18 18 12 7 5 4 7 3 1 1 3 4 2 4 4 1 1 4 3 2 1 3 1 3 4 6 2 1 2 1 2 1 4 2
24 26 27 28 28 26 21 19 16 10 4 5 8 9 16 11 9 8 5 5 4 0 2 4 4 3 4 4 2 1 3 2 3 1 1 2 1 3 4 1 2 2 2 1 2 3 4
22 24 26 26 27 26 22 19 16 12 6 3 5 2 10 12 8 9 3 4 4 2 2 3 3 3 4 3 3 3 4 3 3 4 1 1 1 2 4 6 7 3 3 1 2 2 2
20 21 24 24 26 26 23 21 18 14 6 4 4 2 8 7 5 5 3 4 1 1 1 2 3 3 4 3 3 0 3 4 2 4 2 2 3 3 5 5 3 4 3 4 2 0 3
18 19 21 23 23 25 24 21 19 15 9 5 3 4 8 4 3 3 2 3 4 2 1 2 1 2 3 4 3 2 4 3 3 2 5 2 2 4 1 2 3 2 5 3 2 2 5
17 17 19 21 22 23 23 21 19 16 10 4 3 2 4 7 5 3 3 3 1 0 3 4 4 1 3 2 3 4 4 3 2 2 3 3 3 4 4 3 4 5 4 11 6 3 5
17 17 17 19 21 21 21 21 19 16 12 3 3 2 1 2 3 3 3 2 3 2 5 2 3 1 4 3 2 2 3 3 7 6 2 2 4 5 8 14 13 14 13 11 14 13 7
16 16 16 17 18 19 19 19 18 17 11 7 2 0 2 2 2 2 3 3 3 3 3 5 3 4 3 4 2 3 4 2 1 7 3 6 4 6 7 13 8 10 14 16 18 16 20
16 17 16 15 16 17 18 17 16 15 14 7 5 3 1 2 2 2 1 2 1 2 4 4 2 3 6 4 5 13 13 15 12 3 2 3 2 3 5 7 11 7 6 15 11 12 9
15 15 17 16 14 15 15 16 15 14 13 11 8 3 2 1 3 4 1 1 4 6 4 1 3 5 4 9 18 21 22 19 17 14 13 3 2 3 4 7 3 7 3 1 6 11 12
16 15 15 16 15 13 12 13 13 12 11 10 9 5 2 3 1 6 4 6 6 7 5 7 10 9 12 9 4 6 2 3 8 7 8 8 3 3 2 3 10 9 3 2 1 3 5
17 17 14 14 14 14 13 11 12 11 10 8 7 8 3 5 2 4 4 8 4 5 5 8 7 9 2 3 2 3 3 3 1 3 3 4 6 2 2 2 5 2 4 2 2 5 4
17 18 15 13 12 12 14 12 11 11 10 9 6 7 4 4 7 5 4 2 3 6 3 1 4 3 7 2 3 3 4 1 3 3 5 3 4 9 6 5 8 4 9 6 3 5 6
19 18 17 14 13 12 12 14 12 11 11 10 8 6 6 4 16 14 13 11 7 6 3 1 2 3 3 3 3 4 3 2 2 5 4 7 5 5 5 5 9 14 6 6 2 6 3
23 22 18 17 15 14 12 12 14 13 10 11 12 8 8 8 13 25 25 21 18 15 7 5 1 3 2 1 2 2 3 3 4 4 1 4 6 3 7 6 5 16 6 10 4 5 8